GFSGBSN_850_thetae_000.txt.gz
Theta_e
316 318 320 318 317 314 311 316 315 317 317 316 316 312 311 304 304 308 306 308 309 309 309 309 310 312 310 314 316 316 316 315 315 317 320 322 321 321 320 320 322 322 322 326 328 327 327
313 315 318 319 319 317 314 308 315 315 317 316 316 315 312 309 303 308 308 310 311 309 309 309 309 312 312 312 309 312 315 316 316 315 317 318 320 320 321 319 319 321 323 324 325 325 326
306 308 312 316 317 319 316 312 313 314 316 316 316 316 314 312 304 306 309 310 311 311 309 308 309 310 311 310 311 311 314 313 314 316 315 319 316 321 321 321 321 321 322 322 322 325 324
306 306 307 311 314 317 318 315 310 314 315 315 316 315 315 310 308 304 307 313 310 313 311 310 308 310 310 311 309 312 313 313 314 316 315 316 313 319 318 320 319 320 321 324 323 324 325
305 306 306 306 309 313 316 316 314 313 314 315 315 315 315 311 310 305 311 311 311 309 311 311 311 310 310 311 310 310 312 312 312 314 314 314 313 315 316 320 321 319 321 321 323 324 325
304 303 305 306 306 308 313 316 316 312 314 316 315 315 315 313 310 307 311 310 311 312 310 310 310 311 311 311 311 311 311 312 312 312 312 313 314 313 314 319 321 321 321 319 320 324 324
303 303 303 305 305 305 309 312 315 314 313 314 315 316 315 313 310 308 310 310 309 309 309 310 309 310 311 312 311 311 311 312 312 312 311 311 314 314 313 313 315 317 318 318 318 319 322
301 301 302 304 304 304 303 308 311 315 313 315 316 316 316 313 310 308 310 309 310 310 310 310 310 310 310 311 311 311 311 312 312 312 310 311 313 311 312 312 315 316 316 317 317 317 319
299 299 300 302 303 304 304 303 304 312 314 313 315 316 316 314 310 308 308 310 310 309 310 310 310 310 311 311 311 312 311 311 311 312 311 311 311 310 312 313 315 315 315 315 317 317 318
299 299 298 300 302 303 304 304 304 310 314 313 314 316 316 312 310 307 308 310 310 310 309 310 309 311 312 311 313 311 311 311 311 311 310 310 310 311 311 313 313 314 314 316 317 319 320
299 300 298 299 301 300 302 303 305 306 311 313 314 315 315 314 310 307 306 309 309 310 301 308 309 311 312 312 313 312 312 311 312 310 310 310 311 311 311 311 312 313 313 313 316 317 317
298 299 298 299 300 300 300 302 305 306 307 310 315 316 315 312 308 307 307 309 310 307 305 311 311 311 312 312 313 312 312 312 312 311 311 309 310 310 310 310 310 312 313 313 315 317 319
298 297 297 299 299 301 300 301 304 305 308 309 313 315 314 312 308 308 310 311 308 308 310 312 312 311 311 313 312 312 312 313 313 313 312 312 311 309 312 312 311 311 313 317 317 316 318
298 298 297 297 299 299 300 300 303 305 307 309 309 315 313 310 308 309 311 309 308 309 311 310 310 311 311 311 312 312 313 312 312 311 313 312 312 311 310 311 312 313 313 315 314 315 315
298 297 297 297 299 299 300 301 304 304 306 307 307 314 312 308 309 309 309 310 306 311 312 311 311 312 312 312 311 312 312 311 310 310 312 312 312 311 311 311 311 312 312 312 315 316 319
298 297 297 298 299 298 300 301 303 305 304 307 307 311 311 307 308 309 309 309 310 312 312 313 315 312 313 312 312 311 312 310 311 310 309 308 307 310 310 312 311 312 311 313 313 317 320
297 298 297 297 298 298 299 301 303 304 305 306 310 308 308 307 309 308 310 307 310 313 313 314 315 315 312 309 310 310 310 309 309 309 308 309 310 311 311 312 313 313 313 314 312 316 323
297 297 297 297 297 297 298 301 303 302 304 305 308 309 308 310 310 309 312 311 311 313 313 313 313 313 313 309 310 308 309 307 310 309 310 310 313 313 312 310 312 312 313 313 315 314 319
297 297 297 296 297 296 299 301 301 303 304 307 310 311 308 310 312 310 311 311 311 314 314 314 314 313 312 312 311 309 309 309 310 309 310 312 315 315 315 313 312 317 313 315 314 318 321
297 297 297 296 297 296 299 300 301 302 305 308 309 313 311 310 311 311 311 313 313 313 314 314 315 313 315 315 310 312 311 311 311 311 312 312 314 315 317 318 316 317 317 316 318 319 318
296 296 297 296 297 297 299 300 301 302 307 310 311 313 311 311 312 312 312 314 314 315 314 314 313 314 315 315 312 312 311 310 312 313 314 312 314 312 313 314 313 319 320 318 320 319 318
296 296 296 296 297 297 298 299 301 302 308 309 312 314 312 311 312 313 313 315 315 316 316 315 315 315 313 316 311 312 312 313 314 314 313 311 313 312 315 318 318 322 321 322 320 317 317
296 296 296 295 296 297 298 299 301 303 304 306 311 314 313 312 312 313 314 314 314 313 314 314 315 315 315 314 314 315 315 314 313 316 312 311 312 315 322 323 322 326 322 321 315 314 314
296 296 296 296 295 297 297 299 301 301 303 305 311 314 314 315 313 314 314 313 313 313 314 314 314 315 314 315 315 316 317 316 313 311 311 312 313 316 322 323 321 317 319 320 319 319 317
296 296 296 296 295 297 298 299 301 302 303 305 310 313 313 315 313 313 313 312 311 313 313 314 314 314 314 314 318 318 318 317 315 314 310 310 314 317 319 318 318 316 313 318 320 320 314
295 296 296 296 295 297 297 299 301 302 303 307 312 313 312 313 314 313 312 311 312 311 312 313 313 314 314 317 319 321 319 316 317 318 313 314 314 320 318 317 322 316 314 312 314 319 312
295 295 295 295 295 296 297 299 300 301 302 306 311 313 313 312 312 312 312 311 312 312 312 311 312 313 316 318 320 320 318 315 317 316 318 318 317 317 316 319 315 314 313 312 320 316 312
295 295 295 294 295 296 297 298 299 301 303 305 310 312 312 312 312 312 312 312 311 311 313 312 313 314 315 318 318 319 318 314 317 315 317 318 320 320 319 319 317 313 313 315 311 311 311
295 294 295 294 295 295 296 298 299 300 303 306 310 311 312 312 312 312 312 312 312 311 311 312 313 314 315 317 316 318 314 314 319 317 314 319 318 320 316 316 312 312 313 314 313 311 310

GFSGBSN_850_thetae_003.txt.gz
Theta_e
307 308 309 312 316 316 318 317 313 313 315 316 317 317 316 313 309 304 307 307 307 309 310 309 309 310 310 318 319 314 314 315 318 320 320 322 322 320 319 319 321 321 321 323 324 326 326
306 306 307 308 310 312 315 318 317 312 313 315 316 317 315 315 312 305 307 306 309 309 312 309 309 313 312 311 310 316 317 316 315 316 317 319 318 320 320 319 319 320 320 321 323 323 324
305 305 306 307 306 308 312 316 317 316 311 314 315 317 316 316 314 310 307 309 311 312 309 309 310 311 313 311 310 309 314 316 315 316 314 313 317 320 320 320 320 320 319 319 320 322 322
304 305 305 304 305 306 307 311 315 317 315 312 315 315 316 316 315 311 306 310 313 312 313 311 309 310 311 311 309 311 311 312 314 315 315 315 314 313 317 318 318 319 318 321 319 321 322
302 303 303 304 304 304 306 307 311 314 317 313 314 314 316 316 316 310 308 309 312 310 312 312 312 309 310 311 311 310 311 312 313 314 315 315 314 313 315 319 320 318 318 319 320 320 323
301 301 301 301 302 303 304 305 306 310 315 316 314 315 316 315 316 310 307 311 311 311 309 311 310 310 310 311 310 311 310 311 312 312 313 313 314 315 315 318 318 318 320 319 318 321 322
300 300 300 300 300 302 303 304 304 306 311 313 313 315 316 315 314 311 308 311 310 310 310 310 310 310 310 311 311 311 310 311 311 312 310 311 314 316 315 313 316 315 317 319 317 317 317
300 300 300 300 300 299 302 302 303 304 305 311 313 314 316 317 315 311 308 310 309 309 309 310 310 310 311 311 311 311 311 312 311 311 309 311 312 311 310 311 312 314 317 317 316 316 317
299 300 300 300 299 299 300 301 303 303 304 304 311 314 316 316 315 311 309 309 309 309 308 308 309 310 310 310 311 311 311 312 310 310 309 311 310 310 311 311 313 313 313 314 315 314 314
300 300 299 299 298 299 300 300 301 304 303 304 309 313 315 317 311 310 309 307 309 309 304 306 310 311 310 311 312 311 311 310 310 310 310 311 310 310 310 311 311 313 312 314 314 314 315
300 300 299 299 298 298 299 299 302 302 302 304 304 310 314 316 312 310 310 307 310 309 301 307 309 311 312 311 313 312 311 310 311 309 309 310 309 309 310 310 310 311 311 312 314 315 314
300 299 299 298 297 298 298 299 302 302 302 303 305 306 314 315 312 311 308 307 309 305 304 311 311 311 313 312 313 311 311 311 311 310 310 308 309 309 309 309 309 311 311 311 312 313 315
300 299 298 298 298 298 300 299 300 301 302 304 306 304 310 314 312 308 307 309 308 308 309 312 311 311 311 313 312 312 313 313 313 313 312 313 310 308 310 310 309 309 311 315 316 315 314
299 299 298 298 298 299 300 299 299 302 303 304 306 305 309 314 312 306 309 309 305 307 310 310 310 311 311 311 312 311 313 313 312 309 312 311 310 310 308 310 310 311 310 311 314 313 310
299 299 298 297 298 298 298 298 298 302 304 305 306 307 304 311 311 307 309 306 306 307 310 310 310 311 311 311 311 312 313 311 309 310 310 308 309 309 309 309 310 312 313 310 311 311 316
298 298 298 298 298 297 298 299 299 302 304 305 305 308 309 309 308 309 308 306 306 310 309 310 312 311 312 311 312 311 309 309 310 308 308 309 311 309 310 309 309 309 309 313 312 314 315
298 298 298 298 298 297 298 299 300 301 303 303 304 304 309 309 309 309 309 304 307 312 311 312 312 313 311 311 310 309 309 308 309 308 309 310 308 309 310 312 311 311 311 311 309 310 310
298 297 297 297 297 296 297 299 300 301 302 303 303 306 309 307 309 309 309 307 309 311 312 312 312 313 312 309 309 307 308 308 308 308 311 310 311 311 310 310 309 311 310 310 313 307 309
297 297 297 297 297 296 297 299 299 301 301 303 305 310 308 308 309 309 309 310 311 313 313 314 313 312 312 311 310 308 308 308 309 309 310 310 314 312 316 313 311 314 311 310 310 312 310
297 297 296 297 296 296 297 298 299 301 303 306 308 308 308 308 310 308 309 310 311 312 312 313 314 312 312 313 310 311 309 310 309 310 311 310 313 314 314 316 314 313 314 311 310 312 314
296 296 296 296 297 296 297 298 300 301 304 307 307 310 306 310 310 308 309 312 312 313 313 313 314 314 314 314 313 311 311 311 311 311 311 312 313 313 313 313 314 315 315 313 313 312 313
296 296 296 296 296 296 297 298 299 301 305 309 310 311 308 308 311 310 310 312 314 313 314 315 315 314 314 315 312 310 311 311 312 313 312 313 314 311 314 313 313 314 314 317 314 315 314
296 296 296 296 296 296 296 298 300 301 301 304 305 312 311 309 312 311 311 312 314 314 314 314 313 314 315 314 312 312 312 314 313 315 314 311 311 314 317 319 316 316 315 317 317 317 317
296 296 296 296 296 295 296 298 300 301 302 303 304 306 313 312 311 312 313 312 312 312 313 314 313 314 314 314 315 313 314 314 314 314 312 311 311 313 318 320 324 318 319 318 318 316 315
296 296 296 296 296 295 296 298 300 301 303 303 305 308 313 314 311 312 313 313 312 312 313 312 313 314 314 314 316 317 317 317 315 311 313 312 313 319 322 319 317 317 320 320 319 318 316
296 296 296 296 295 295 296 297 299 301 303 304 310 311 312 313 313 313 313 312 313 312 312 312 313 314 314 315 317 320 316 314 314 316 310 309 311 317 319 318 319 314 314 314 316 320 316
296 295 295 296 295 295 296 297 299 300 302 304 308 311 311 311 313 313 312 312 311 310 309 311 312 313 312 315 318 318 316 314 316 317 318 317 316 316 318 319 315 313 312 312 320 317 309
295 295 295 295 295 295 296 297 298 299 301 303 308 311 312 312 312 312 312 312 311 310 312 312 312 313 314 316 318 316 315 313 315 313 316 316 318 315 314 318 315 312 312 314 311 309 310
296 295 295 295 295 295 295 296 298 298 301 302 305 310 311 311 312 312 312 311 312 312 311 311 312 313 314 316 315 316 316 312 314 315 312 317 315 315 314 314 311 311 312 312 311 310 308

GFSGBSN_850_thetae_006.txt.gz
Theta_e
306 306 307 306 306 309 310 311 314 317 317 311 314 315 317 317 315 314 305 307 308 310 311 311 312 311 315 319 320 315 315 316 318 321 324 321 321 319 318 317 319 320 320 322 323 323 324
304 305 305 305 305 306 308 308 309 314 316 317 310 314 315 317 315 314 309 306 307 309 312 310 311 313 312 313 314 318 315 315 318 321 322 322 320 319 319 318 318 318 319 319 320 321 323
303 303 303 304 305 304 305 305 306 309 314 315 315 313 314 317 315 315 313 306 307 310 312 311 310 312 313 311 311 310 316 316 315 317 317 317 319 319 319 319 319 319 318 317 318 320 320
303 302 302 302 302 302 303 304 305 305 309 313 315 312 314 315 317 315 313 309 311 313 313 312 309 311 311 311 310 310 311 315 315 315 315 315 315 314 318 318 317 319 318 320 317 317 319
302 302 302 301 302 302 302 301 303 303 305 309 312 314 314 315 316 316 313 309 310 313 311 313 313 309 310 311 312 310 311 311 313 315 314 315 314 313 315 316 315 317 316 317 317 317 319
303 301 301 301 300 302 301 300 301 302 303 306 309 313 314 315 317 317 312 309 309 310 310 311 311 310 311 311 311 311 310 311 312 313 313 313 313 312 313 313 313 314 317 317 318 317 316
301 300 301 301 300 300 300 300 301 302 303 304 306 309 313 314 316 317 311 310 311 309 310 310 310 310 310 311 310 310 310 310 311 311 311 311 313 315 314 312 313 315 315 316 315 315 316
300 301 301 300 300 300 299 299 300 300 302 303 306 306 311 314 316 316 312 309 310 308 309 309 310 310 311 310 311 311 310 311 311 310 309 311 311 310 311 311 313 315 316 316 313 314 315
301 301 301 300 300 300 299 299 299 299 301 302 303 304 306 314 315 315 312 309 309 309 308 308 309 310 310 310 310 311 311 311 309 309 310 310 310 309 311 311 312 311 312 312 312 311 311
301 301 300 300 299 299 299 299 299 299 300 302 302 302 304 313 315 314 310 309 309 309 299 304 308 309 309 310 310 310 310 311 309 310 309 310 310 310 309 310 310 312 311 312 313 312 311
301 301 300 299 299 299 298 299 299 299 300 302 301 301 303 308 312 312 312 309 308 308 301 307 309 310 310 310 311 310 311 310 309 308 309 309 309 309 310 310 309 311 310 311 312 313 313
300 300 299 299 299 299 298 299 299 300 300 301 301 301 303 306 310 312 312 308 309 300 301 310 309 312 311 310 312 311 311 311 311 310 309 307 308 308 308 308 308 310 309 310 310 313 313
300 299 298 298 299 298 298 299 298 299 299 302 302 303 304 305 310 312 308 309 306 303 308 312 311 312 312 312 312 312 311 312 313 313 312 312 311 309 309 309 308 309 311 313 315 315 312
300 299 298 297 298 298 299 298 299 298 300 303 304 304 304 304 305 311 306 306 304 306 308 310 309 310 311 312 311 312 313 313 311 311 312 309 307 310 308 309 310 309 310 311 311 315 309
299 298 298 298 298 298 298 298 299 300 300 302 305 305 306 304 307 309 308 309 306 307 310 310 309 310 310 310 311 311 312 312 311 311 312 311 308 308 308 309 310 313 311 309 311 310 312
299 298 298 298 297 298 298 298 299 301 300 302 305 305 306 304 309 307 308 307 305 308 309 309 311 310 311 311 310 311 311 308 311 310 309 309 311 307 309 309 309 311 310 313 311 312 310
298 298 297 298 297 297 298 298 299 300 301 303 304 305 305 304 307 307 309 306 306 310 310 310 311 311 311 311 311 311 308 307 308 308 308 308 310 308 310 310 310 311 311 310 310 311 307
297 296 297 297 297 297 297 298 299 300 301 302 302 306 308 306 307 307 306 305 307 311 311 313 311 312 311 309 309 306 307 307 308 308 309 309 312 310 309 308 309 309 309 309 311 306 307
297 297 297 296 297 297 297 298 298 300 301 302 302 308 309 306 309 309 307 308 310 312 312 312 312 312 312 311 310 307 307 307 308 309 309 309 312 313 311 310 310 312 310 309 309 310 307
297 296 297 297 296 296 296 297 299 301 301 305 303 309 308 307 307 309 309 309 310 311 312 313 313 311 312 313 309 309 308 309 308 309 310 310 313 312 312 314 312 313 311 310 310 311 310
296 296 297 297 297 296 296 297 299 301 303 306 307 306 305 306 309 308 309 309 310 311 312 313 314 313 314 316 313 311 309 309 309 310 311 311 312 312 312 311 311 314 313 312 311 310 310
296 296 297 296 296 296 296 297 300 301 303 307 308 308 306 307 308 306 307 310 310 311 313 313 312 313 313 315 313 310 311 311 312 310 311 311 312 311 313 313 312 314 314 314 314 311 310
296 296 297 297 296 296 296 297 299 301 302 301 303 306 308 309 310 307 308 310 310 313 311 312 313 314 314 314 313 313 312 311 312 313 312 311 310 314 315 316 317 315 314 313 314 313 311
296 296 296 296 296 296 296 297 299 301 302 302 302 305 310 311 310 309 310 309 312 313 312 312 313 314 314 314 314 313 312 310 311 312 313 311 310 312 315 316 324 318 315 312 313 314 312
296 296 296 295 296 295 295 297 299 300 302 303 304 305 311 311 310 309 312 311 311 312 312 312 312 313 314 314 315 316 315 315 314 313 313 312 311 316 319 320 319 318 319 314 314 316 313
296 296 296 296 296 296 295 296 298 299 301 304 308 308 309 311 310 311 312 311 313 312 312 312 313 313 313 315 315 318 314 315 313 315 309 312 312 315 317 320 317 313 317 316 316 321 315
297 296 296 295 295 296 295 296 297 299 301 303 307 308 310 312 311 311 312 312 312 311 310 310 311 311 312 315 317 318 317 313 314 317 317 315 313 316 316 319 314 312 310 316 322 319 309
295 295 296 295 295 295 294 295 296 298 300 302 305 307 311 312 312 312 312 311 311 310 311 311 312 312 313 316 317 317 317 312 313 311 313 314 315 315 313 317 314 311 311 315 311 310 309
295 295 295 295 295 295 294 295 295 297 299 301 304 309 311 311 311 312 312 312 312 312 311 311 312 313 313 316 313 316 316 310 311 313 311 315 313 314 313 313 309 311 310 312 310 309 309

GFSGBSN_850_thetae_009.txt.gz
Theta_e
304 304 304 304 304 304 304 306 307 306 308 312 315 316 313 315 317 316 315 313 305 307 311 310 309 312 316 319 321 316 316 317 319 324 322 321 320 317 317 317 318 320 320 321 322 322 322
304 303 303 304 303 303 304 303 304 305 305 308 313 315 313 314 315 317 314 314 305 307 311 312 310 312 312 316 317 319 315 315 318 322 322 321 320 319 318 318 318 317 318 318 319 319 321
303 303 303 303 303 302 303 303 303 302 304 305 308 312 314 313 314 317 315 314 307 307 311 312 310 312 313 311 310 310 316 316 317 323 321 320 320 318 318 318 318 318 319 317 317 318 319
303 303 302 302 302 302 302 302 301 301 302 303 305 309 311 313 314 316 316 314 309 310 312 312 309 311 311 311 311 311 314 316 318 317 316 315 316 317 318 317 316 318 318 319 316 317 318
301 301 303 302 302 302 302 302 301 300 301 303 303 305 308 313 314 314 317 313 308 312 312 314 312 309 310 311 311 311 310 315 315 315 315 315 314 313 315 315 315 316 316 318 317 316 318
302 302 302 302 301 301 302 302 301 301 300 301 301 302 306 309 314 315 316 313 309 312 311 311 312 311 311 311 311 311 311 311 312 314 314 314 313 312 314 315 314 314 316 315 316 316 316
303 302 301 302 302 301 301 301 300 300 301 300 301 301 303 305 313 315 316 311 310 310 310 309 309 310 310 310 310 310 310 311 312 312 312 311 313 313 313 312 312 314 315 315 315 314 314
302 302 302 302 301 301 301 300 300 300 299 299 300 301 302 304 309 313 315 311 311 310 309 309 309 310 310 310 311 311 310 311 311 311 309 311 312 311 310 311 313 314 315 315 313 313 314
302 303 302 301 301 300 300 300 299 299 299 300 300 302 302 303 305 312 312 311 312 311 307 307 309 309 310 310 310 311 310 310 309 309 310 311 310 309 310 311 313 313 313 313 313 311 311
302 302 301 301 300 299 300 299 299 299 300 300 301 300 302 303 304 310 312 310 310 310 299 305 307 309 309 310 309 310 310 310 309 311 311 310 310 310 309 311 311 312 310 312 312 312 312
301 302 301 300 299 298 298 299 299 299 300 298 300 301 301 303 305 311 310 309 310 306 300 306 308 309 309 309 309 310 311 310 309 309 309 309 309 309 311 310 309 311 309 310 311 313 312
301 301 300 299 299 298 298 298 299 299 300 299 299 301 303 304 303 306 309 309 308 302 301 309 309 311 310 309 312 310 310 310 310 309 309 308 308 307 308 308 309 309 310 310 311 312 314
300 300 300 299 299 298 298 299 299 300 300 300 300 302 302 304 305 305 309 308 307 303 307 311 311 312 311 310 312 311 311 311 312 312 311 310 311 309 308 309 308 309 312 313 314 314 313
299 300 299 298 298 297 298 298 299 298 299 301 301 303 303 304 304 306 308 306 308 306 308 309 310 312 312 311 312 312 311 312 311 311 310 306 307 310 309 310 309 310 310 313 313 312 312
299 299 298 297 298 297 298 298 298 298 300 300 304 304 305 305 304 303 307 310 307 306 309 310 310 311 311 310 311 311 313 313 312 311 312 309 309 307 307 308 309 311 311 310 312 311 313
298 298 298 298 297 297 298 298 298 299 300 301 303 304 305 305 304 303 305 309 305 309 309 309 311 310 311 311 311 312 312 309 311 310 310 310 310 306 308 308 308 311 310 312 311 313 313
298 297 297 297 297 297 297 297 298 299 300 302 302 304 305 304 304 305 309 306 306 309 309 310 310 310 309 310 310 311 308 306 307 308 309 309 309 308 310 310 310 311 312 312 311 312 312
298 297 296 297 296 296 296 297 298 299 301 303 301 306 304 305 305 302 308 305 309 309 311 312 310 310 309 309 311 310 307 306 307 307 310 308 310 311 308 308 309 309 310 310 311 309 309
297 297 297 297 296 296 297 297 298 300 302 302 302 306 304 305 308 308 307 309 310 311 312 312 312 311 310 309 310 308 306 306 307 307 308 309 311 309 307 310 309 311 310 310 310 309 310
296 297 297 297 297 297 296 297 299 301 303 304 303 307 306 306 307 306 308 308 310 311 311 312 311 310 311 312 309 309 308 308 307 308 309 309 311 308 312 313 311 313 311 310 310 312 310
296 297 297 297 297 297 296 297 299 301 303 305 305 306 304 307 308 308 308 308 310 311 311 312 312 313 312 315 313 312 308 308 308 309 310 310 311 311 311 311 311 312 313 312 312 310 310
296 297 297 297 297 297 296 297 299 301 303 304 303 307 306 306 308 307 307 308 309 311 312 313 312 313 313 315 312 311 310 309 311 308 311 311 313 312 313 313 313 312 313 313 312 311 310
297 296 297 297 296 297 295 297 298 300 302 302 303 305 307 308 307 307 305 309 309 311 311 312 311 313 314 313 313 312 313 312 311 311 311 311 311 313 315 314 315 317 314 313 313 312 311
297 297 297 297 296 296 296 295 298 299 301 302 303 304 308 309 308 307 307 308 311 311 312 312 312 313 313 313 313 313 313 312 311 310 311 313 310 312 315 315 321 319 315 313 313 312 312
296 297 297 297 295 295 296 295 297 299 300 302 304 305 308 310 308 308 307 307 308 311 312 312 312 312 312 313 312 316 315 313 312 311 311 312 314 315 317 320 319 315 315 314 314 314 311
296 296 296 296 296 295 295 295 295 297 299 302 306 307 307 309 308 309 310 310 310 311 312 312 312 313 313 312 315 317 316 314 312 312 308 312 313 315 317 320 321 313 314 312 315 319 311
296 296 296 296 295 295 296 295 295 294 298 301 305 305 307 311 310 310 309 311 312 311 312 309 311 311 313 314 316 317 316 312 314 315 315 315 314 316 316 319 315 312 310 315 320 317 307
292 294 295 295 294 295 295 295 296 291 296 300 303 305 304 310 311 311 311 311 311 311 311 310 312 312 312 313 316 315 313 311 312 310 313 313 314 313 315 316 314 310 313 316 312 309 308
290 290 295 293 294 294 295 296 295 291 295 298 301 305 308 309 311 312 312 312 312 312 311 311 311 312 312 313 313 315 316 310 309 313 309 314 311 314 312 312 309 311 310 311 310 308 308

GFSGBSN_850_thetae_012.txt.gz
Theta_e
304 305 304 304 304 304 304 304 304 304 303 303 305 308 312 315 314 315 318 315 314 305 307 310 309 314 318 319 320 317 316 318 320 323 323 322 320 319 321 319 320 322 321 321 321 322 322
304 304 304 303 304 303 304 303 303 302 302 302 304 305 309 312 314 314 316 316 314 306 307 311 310 310 314 319 318 320 316 315 318 323 323 322 322 320 319 319 319 319 320 320 320 320 320
303 303 303 304 303 303 302 302 303 302 302 302 302 303 305 309 313 314 315 317 314 307 307 313 311 311 313 314 312 315 318 318 319 323 323 322 320 319 320 320 319 319 320 319 319 318 319
304 303 303 303 303 303 303 303 302 302 302 302 301 303 303 307 310 313 315 317 314 307 308 311 310 310 313 312 311 310 313 317 319 318 321 320 320 319 317 318 317 319 319 321 319 319 318
303 303 303 302 303 302 302 302 302 302 302 301 301 301 301 303 307 312 315 316 312 307 311 313 312 310 312 310 311 311 312 315 317 315 316 318 316 315 316 316 317 317 318 319 319 318 319
303 303 303 303 303 302 302 302 301 301 301 301 301 300 301 301 304 310 314 316 311 311 312 315 312 312 311 311 311 311 310 314 314 314 314 314 315 316 315 317 319 318 318 317 317 317 318
302 304 303 303 302 302 302 301 301 301 300 299 299 300 300 302 302 306 311 314 313 312 311 311 311 311 311 310 311 310 311 311 313 315 316 314 316 316 315 315 315 315 317 317 317 317 317
303 303 303 303 302 301 301 300 300 300 300 298 299 300 301 301 302 303 306 311 310 311 311 310 310 310 310 311 311 311 311 312 312 314 313 314 315 314 313 313 314 315 316 316 315 314 314
303 303 303 302 301 301 300 300 300 300 299 299 299 299 301 300 302 302 304 308 311 309 310 310 310 310 310 310 312 311 311 311 313 314 314 315 313 311 313 313 314 315 316 315 315 314 313
302 301 301 301 300 299 299 300 299 299 299 300 300 300 300 301 301 304 305 308 311 311 311 309 310 310 309 311 312 311 311 311 312 313 313 314 312 311 312 313 313 315 312 312 313 313 315
301 300 300 300 299 299 299 299 299 299 300 299 301 300 300 300 303 302 308 309 310 308 315 308 308 309 310 309 310 311 311 311 312 312 312 313 311 312 312 312 312 313 311 311 312 313 313
300 300 300 298 298 298 299 299 299 299 299 298 299 300 301 301 302 301 305 310 309 308 313 310 309 311 311 310 311 310 311 311 310 311 311 311 309 310 311 311 311 311 311 311 311 312 315
299 299 298 298 298 298 298 298 298 298 299 299 300 300 302 301 303 302 305 305 308 315 308 311 311 310 309 310 312 312 312 312 313 313 313 311 312 310 309 310 310 311 312 314 314 314 314
300 299 298 298 298 298 298 298 299 298 299 299 301 304 303 303 302 304 304 305 313 310 311 310 311 310 312 310 313 312 312 313 311 311 312 313 315 312 310 310 311 311 312 314 313 312 312
299 298 298 298 298 298 298 298 298 297 298 301 302 303 304 303 303 303 303 312 313 309 310 310 312 312 312 310 312 312 312 311 311 311 313 312 311 309 310 310 311 311 312 311 313 312 314
299 298 298 298 298 298 297 297 298 299 300 302 302 304 304 303 305 304 305 313 308 310 310 310 312 311 311 311 312 311 312 312 312 312 311 311 313 309 310 310 310 312 311 313 313 313 313
299 298 298 298 297 296 297 297 299 300 301 302 302 304 305 304 303 303 310 309 311 309 310 311 311 312 311 312 311 312 312 310 311 312 311 311 310 311 309 311 311 311 311 312 312 313 312
298 298 298 298 297 296 298 297 298 300 302 303 302 304 304 304 304 304 310 307 310 310 312 312 311 311 311 311 312 312 312 310 308 311 312 311 311 312 311 310 310 310 311 310 313 313 314
299 297 298 297 297 297 298 297 299 300 303 304 301 304 305 305 310 310 307 310 312 312 313 313 313 312 310 311 312 311 310 309 308 311 312 311 312 312 314 312 310 310 311 311 311 312 313
299 298 297 297 297 297 297 297 299 301 303 304 302 307 304 305 308 308 310 311 313 312 313 312 312 312 312 312 311 311 311 310 308 309 309 310 312 313 315 316 314 315 312 311 312 314 313
298 298 297 297 297 297 297 295 298 301 303 304 305 307 306 309 309 309 310 311 313 313 312 313 312 312 313 313 312 312 311 310 309 309 310 311 313 312 311 311 312 313 313 313 312 312 313
297 298 298 297 297 296 297 295 298 300 303 303 304 306 307 308 308 309 310 310 311 313 313 313 314 313 313 313 313 314 313 312 313 311 311 311 313 313 313 312 313 314 314 314 314 313 313
297 297 297 297 296 296 295 293 298 299 302 302 303 305 307 309 309 310 311 310 311 312 312 312 312 313 313 313 312 313 312 312 312 312 312 312 313 313 315 314 316 318 316 316 315 313 313
296 297 297 297 297 296 295 293 297 297 300 302 302 304 308 309 309 309 309 310 310 311 314 312 312 313 313 313 313 313 313 313 314 314 312 313 312 312 315 316 324 320 316 316 316 314 313
296 296 296 296 296 295 295 294 296 294 297 302 304 304 307 310 309 308 309 310 311 312 313 312 312 312 312 313 314 313 314 315 314 314 315 313 314 316 319 320 318 319 315 318 316 317 314
295 295 295 295 295 295 295 294 296 292 295 302 304 304 306 310 310 308 310 309 311 312 312 312 312 312 312 314 314 315 318 315 316 314 313 313 313 315 318 319 323 319 314 313 314 320 313
291 292 295 295 295 295 295 294 296 291 293 296 301 302 304 307 311 309 311 311 312 312 313 311 311 312 312 314 315 317 316 314 317 317 316 314 314 316 317 318 318 315 312 315 320 318 311
290 291 294 292 291 292 295 294 293 291 291 295 297 301 301 303 310 309 309 311 311 312 313 311 312 312 313 313 315 315 316 315 316 315 317 317 318 317 317 316 321 312 314 317 315 312 309
290 290 293 289 289 290 293 293 291 292 292 293 297 299 301 301 310 310 311 311 311 311 311 311 313 312 312 313 314 314 315 315 315 318 312 317 317 318 318 319 314 312 314 312 309 309 309

GFSGBSN_850_thetae_015.txt.gz
Theta_e
304 304 304 305 305 304 304 304 304 304 303 304 303 303 304 306 311 314 314 315 319 315 308 307 309 313 318 321 321 319 319 320 322 323 323 322 321 321 322 321 321 322 322 320 320 321 322
304 304 305 305 304 304 304 304 304 303 303 303 303 303 303 304 307 311 314 314 317 314 310 307 310 310 317 321 319 319 317 319 322 324 324 323 322 321 321 321 321 321 321 321 321 321 321
305 304 305 303 304 304 304 303 303 303 303 303 303 303 302 302 303 308 312 314 314 314 311 308 311 311 315 317 315 316 319 319 322 324 324 323 322 321 321 321 321 320 322 321 321 320 321
305 306 304 304 304 304 303 302 303 303 302 303 303 303 302 302 302 306 310 313 314 315 310 310 313 313 315 314 314 311 315 319 320 323 322 322 321 321 319 319 319 320 320 323 321 320 319
304 304 305 304 304 304 303 303 302 301 302 302 302 302 302 301 302 303 308 313 314 316 308 310 311 313 314 312 312 313 314 318 319 319 321 321 320 319 318 319 319 319 322 322 322 320 320
304 304 305 304 302 303 302 302 302 301 301 301 301 298 299 300 300 302 305 310 314 313 310 313 313 313 313 313 313 313 313 316 317 317 318 317 316 317 318 319 321 321 321 320 319 319 319
304 303 303 303 303 302 302 301 301 301 300 300 299 299 300 299 301 303 303 307 313 312 313 314 313 313 313 313 312 313 312 316 316 316 317 315 317 318 318 318 318 317 318 318 318 317 318
301 302 303 302 302 301 300 300 300 300 299 299 299 300 300 300 301 301 302 302 307 311 313 313 311 312 312 313 313 313 312 314 315 317 316 315 317 317 317 316 317 317 317 317 317 316 316
302 302 302 301 300 300 299 299 300 299 299 299 300 300 300 300 301 301 302 302 306 310 313 312 311 312 312 312 313 313 312 313 316 316 315 317 316 313 315 316 316 316 317 317 317 316 314
301 301 301 300 300 299 299 299 299 299 300 300 300 300 300 301 301 304 305 304 303 308 312 312 311 311 311 312 313 313 313 313 314 315 315 316 315 313 314 315 315 317 315 315 315 315 317
302 301 300 299 299 298 299 299 298 299 300 300 299 299 300 300 301 302 304 307 305 309 319 311 311 311 311 311 312 312 312 312 314 314 314 315 313 314 314 314 313 315 313 313 313 314 313
302 300 299 299 299 299 299 298 299 300 300 299 300 300 300 302 300 302 303 303 308 311 318 311 309 311 311 310 312 312 312 312 312 312 312 313 311 312 313 312 313 312 312 312 312 312 314
300 300 299 299 299 299 298 298 299 299 299 299 300 302 303 303 301 304 303 307 310 318 310 311 310 311 311 310 311 311 312 313 314 314 314 313 312 311 311 312 312 312 312 316 317 316 316
299 299 299 299 299 299 298 299 298 299 300 301 302 303 303 304 302 304 304 307 313 314 312 310 311 311 311 310 311 312 312 312 312 312 314 314 318 313 311 312 313 311 312 315 314 314 314
299 299 298 299 299 298 298 298 299 300 301 302 303 303 302 304 303 303 306 308 316 312 311 312 310 312 312 311 313 313 312 313 312 312 315 316 314 311 312 311 312 312 313 312 314 312 314
299 299 298 299 298 298 298 297 299 300 302 304 303 304 304 302 303 303 308 312 311 311 311 311 312 312 312 311 314 313 312 312 312 312 312 313 315 311 311 311 311 312 312 313 313 314 314
299 299 298 298 298 298 298 297 299 301 303 304 303 302 302 303 303 305 310 311 311 310 311 312 312 312 312 311 312 312 313 313 312 313 312 312 312 312 310 312 312 312 312 313 312 314 316
299 299 298 298 298 298 298 297 299 301 304 304 303 304 304 303 307 307 311 310 310 310 312 312 312 313 313 312 313 313 314 312 311 312 313 312 312 313 312 311 311 311 312 311 314 314 314
298 298 298 298 298 297 297 297 299 302 304 305 303 304 304 306 310 309 308 311 311 312 314 313 313 312 312 313 314 313 313 310 309 312 313 312 313 314 316 314 312 312 312 312 313 314 316
298 298 298 298 297 296 297 297 298 303 304 304 303 306 305 306 309 310 312 313 313 313 313 313 313 312 313 313 313 313 312 311 310 311 310 311 313 315 315 318 314 315 313 313 314 316 315
298 298 297 298 297 297 297 296 298 302 304 305 306 307 307 310 310 310 312 312 313 313 313 313 313 313 313 313 313 313 313 312 311 310 310 311 315 313 312 312 313 314 314 314 314 314 315
297 297 298 297 298 297 296 296 298 299 304 305 304 306 308 309 309 310 310 313 313 313 313 313 314 313 313 314 314 314 313 313 313 311 311 311 314 313 312 312 313 315 315 316 317 316 315
297 296 297 297 297 297 296 296 297 297 302 303 304 306 306 309 310 311 312 312 312 313 313 313 314 314 314 314 313 313 313 313 313 313 312 312 312 313 315 314 315 319 319 318 317 316 315
296 296 296 296 294 295 296 296 296 293 300 303 304 304 307 310 311 310 310 311 311 313 314 313 313 313 314 314 313 314 314 313 314 313 312 313 311 314 317 316 324 320 316 317 317 317 316
296 295 295 296 293 294 296 296 297 291 296 303 303 304 306 311 310 310 310 312 312 311 313 313 313 313 313 313 315 314 316 315 315 314 314 313 313 317 318 317 317 321 318 318 318 318 315
295 295 293 293 289 289 293 295 294 292 291 298 302 304 305 308 311 310 311 311 313 313 313 312 312 313 313 314 315 315 318 316 317 315 313 314 312 316 317 319 321 320 318 316 316 321 314
296 295 295 290 289 288 288 289 291 291 292 292 299 302 304 306 310 311 310 311 311 312 313 313 313 313 313 315 316 315 316 315 317 318 316 316 315 316 316 318 317 317 316 315 322 319 314
296 295 295 294 290 289 290 289 294 294 292 291 296 300 300 301 307 310 310 311 312 312 314 313 314 313 314 315 315 315 316 316 316 316 317 317 317 316 315 318 320 315 316 319 317 314 313
294 297 295 295 294 290 292 294 294 294 294 295 295 293 296 299 305 310 311 311 312 313 314 312 314 313 313 313 314 314 316 315 316 318 315 318 317 319 318 320 318 316 315 315 313 312 312

GFSGBSN_850_thetae_018.txt.gz
Theta_e
305 305 306 306 305 305 305 305 305 305 305 304 304 305 304 304 304 305 308 313 314 316 317 315 306 309 316 320 321 321 321 322 322 321 323 322 320 320 321 320 319 320 320 320 320 321 321
306 306 307 306 306 305 305 304 304 304 303 303 304 304 304 304 303 303 304 309 314 315 316 313 306 310 314 319 320 319 318 320 321 322 323 321 320 320 321 320 320 321 321 321 321 321 321
306 306 305 305 305 305 305 304 303 303 302 303 303 304 304 303 303 304 304 307 312 314 317 313 308 310 315 317 317 319 320 320 322 322 323 323 323 322 322 322 321 320 321 321 321 320 321
307 305 305 306 306 305 304 304 304 303 302 302 302 301 302 302 301 302 302 305 309 314 316 313 311 312 314 314 315 315 316 319 318 323 323 323 322 321 321 319 320 321 320 322 320 320 320
305 306 304 304 305 304 304 303 302 301 301 301 300 300 300 301 301 300 301 303 308 313 315 314 313 314 314 314 315 315 314 319 321 321 322 322 321 320 319 319 319 318 319 320 321 320 320
305 303 304 304 303 302 302 301 301 301 300 300 300 300 300 300 300 300 302 303 308 312 315 312 313 313 312 313 313 314 314 318 320 320 321 321 318 317 318 318 320 320 319 319 319 319 319
303 303 303 302 302 302 301 300 300 300 300 299 300 300 300 300 300 301 301 303 308 313 313 313 312 313 312 314 313 314 314 317 317 319 318 318 318 318 318 318 318 318 318 317 317 317 316
303 303 303 302 301 300 300 300 300 300 299 299 300 300 300 300 300 300 301 304 304 307 312 313 313 313 313 313 314 313 315 316 316 318 316 316 317 317 317 317 317 317 318 317 316 316 315
303 303 302 301 300 300 300 299 299 300 299 300 300 300 300 300 301 301 303 304 302 304 312 312 312 313 313 313 314 313 314 315 315 316 316 316 316 315 316 317 316 316 317 316 316 315 314
303 303 301 301 300 300 300 299 299 300 300 300 300 300 299 301 301 303 303 305 304 302 311 313 312 313 312 314 314 313 314 314 315 316 317 316 315 314 315 316 316 316 314 315 316 314 314
301 302 300 300 300 300 300 300 299 300 299 299 299 300 300 300 300 301 303 303 303 302 318 312 312 312 312 313 313 313 313 313 315 315 315 316 315 315 314 314 314 314 313 313 314 313 310
300 301 300 299 299 299 299 299 299 299 299 299 300 302 303 303 303 301 302 303 302 307 316 313 310 311 313 312 313 312 313 312 313 313 314 314 311 312 314 313 313 312 313 312 312 311 308
299 300 300 299 300 299 299 299 299 299 300 301 302 303 303 303 304 303 303 304 308 312 310 311 312 311 311 312 313 313 313 313 313 314 315 313 312 311 311 312 312 313 312 313 314 315 310
299 300 300 299 299 299 299 299 299 300 301 302 304 302 303 303 303 303 303 304 309 313 312 309 311 311 311 312 312 312 313 313 312 312 313 312 316 313 311 311 313 312 313 313 315 313 313
299 300 300 299 298 299 299 299 299 300 302 303 303 303 302 304 304 303 306 306 311 313 311 311 312 312 311 311 312 312 312 312 311 311 314 314 314 312 312 311 311 313 311 311 313 311 309
300 299 299 299 298 298 299 298 299 301 303 305 303 303 303 304 302 303 309 310 309 311 310 310 311 312 311 311 313 313 312 311 311 311 311 314 314 311 311 311 311 311 311 312 313 308 312
299 300 298 299 298 298 298 298 300 301 305 304 304 303 303 304 303 306 310 309 312 311 311 313 312 312 311 311 313 312 311 312 311 311 311 311 312 312 310 311 312 312 312 312 311 312 312
299 299 299 299 298 297 298 296 298 301 305 304 303 304 303 304 306 307 310 309 311 311 313 312 313 312 311 311 312 311 313 312 311 312 312 311 312 310 311 311 310 311 311 311 313 310 311
298 299 299 298 298 297 298 293 298 303 304 304 304 303 303 305 309 310 309 312 311 313 314 314 313 313 311 312 313 313 313 310 311 312 312 311 312 310 313 313 311 311 311 311 312 312 313
298 298 298 298 298 297 297 294 298 304 305 305 305 306 305 306 309 308 311 311 313 313 313 313 312 312 313 313 313 313 313 311 310 312 311 311 313 310 311 312 312 312 313 312 312 314 313
298 297 297 297 298 297 297 296 295 303 305 306 307 308 308 311 310 310 312 313 313 312 313 313 313 313 313 313 313 313 313 311 310 311 311 311 312 310 312 311 311 311 312 313 314 314 315
297 297 296 296 296 296 295 297 293 301 305 305 305 306 308 310 309 312 311 313 313 313 314 313 313 313 313 313 314 313 313 312 312 311 310 311 313 312 311 311 311 312 312 313 315 316 317
297 297 296 296 295 296 296 297 293 297 304 303 305 305 306 309 310 310 311 312 313 313 313 313 314 314 314 314 314 313 313 313 313 312 311 313 313 312 313 313 313 315 316 318 317 316 317
296 297 296 296 290 292 296 293 293 292 302 302 302 304 307 310 310 311 312 312 312 314 314 313 313 313 314 313 313 314 314 313 313 312 311 313 311 312 314 313 317 319 316 316 318 318 318
297 297 296 296 291 289 292 289 290 292 292 300 302 303 305 310 310 310 310 311 311 312 313 313 313 313 313 313 314 314 315 314 313 312 312 312 312 316 317 314 314 318 320 317 318 317 315
298 298 296 296 295 292 290 294 289 290 292 292 301 302 303 307 310 310 310 312 312 312 312 313 312 312 313 314 315 314 316 318 316 315 313 313 313 315 317 317 316 319 316 316 315 320 314
298 296 297 296 295 295 294 294 294 291 290 291 297 299 302 305 308 309 311 311 312 312 314 313 314 313 313 314 315 315 316 315 316 317 316 316 315 314 316 318 315 314 314 315 321 317 314
298 297 297 297 295 295 295 295 295 294 292 293 294 297 297 299 304 308 310 311 311 311 313 313 313 313 313 315 315 316 316 316 315 315 315 315 316 316 315 317 315 315 315 318 315 314 313
298 297 296 296 296 296 295 294 295 295 294 294 295 295 294 296 301 306 309 311 312 312 313 313 314 313 314 313 312 314 313 314 314 316 314 316 315 318 314 315 314 317 316 316 314 312 311

GFSGBSN_850_thetae_021.txt.gz
Theta_e
307 307 307 306 305 306 307 306 306 305 304 304 304 304 304 304 304 304 304 305 306 312 315 317 316 310 311 318 318 321 322 320 321 318 316 318 321 320 318 317 318 317 318 320 320 320 320
307 307 307 306 307 306 306 306 304 304 304 305 304 304 303 303 303 303 303 303 305 309 314 317 315 310 312 318 318 319 319 322 322 320 318 322 321 319 320 319 318 319 319 319 320 320 320
306 307 306 304 305 305 304 303 303 302 302 303 303 301 300 302 302 302 302 302 303 306 312 317 315 310 313 315 318 320 318 319 320 321 319 321 323 321 321 321 320 320 320 319 319 320 319
307 304 304 304 304 304 303 303 302 301 301 301 301 300 300 301 301 301 301 301 301 305 311 316 314 310 312 310 316 318 319 320 321 322 321 322 323 322 321 320 319 320 319 321 318 319 320
304 304 303 304 303 302 302 302 301 301 301 300 301 300 300 300 300 300 300 300 302 303 310 315 312 311 312 314 314 316 317 320 320 322 322 322 322 321 319 318 319 318 318 318 319 318 319
303 304 304 304 303 302 302 301 301 301 302 301 301 300 300 300 300 300 300 301 302 303 308 312 312 312 312 314 315 315 315 318 320 321 322 321 320 319 318 318 319 317 317 317 317 318 318
303 303 304 303 302 301 301 301 300 301 300 300 300 300 299 300 300 300 301 301 304 307 310 313 311 312 313 313 313 314 315 317 320 320 320 320 318 320 318 315 316 317 317 316 315 314 314
303 303 303 302 302 301 301 301 300 300 300 301 300 300 301 301 300 301 301 301 302 303 303 311 312 313 313 313 314 314 315 317 318 320 316 316 318 316 316 316 317 316 316 315 314 314 314
303 302 302 302 301 300 301 300 300 300 300 300 300 300 300 300 300 301 302 303 303 303 302 312 312 313 313 314 314 313 315 316 315 317 316 315 315 314 316 316 316 315 315 315 315 313 311
302 302 302 301 301 300 300 300 300 300 300 299 300 300 300 300 300 302 301 303 304 303 305 313 313 313 313 314 314 313 315 315 315 317 316 316 314 314 315 316 315 315 312 314 314 312 312
302 302 301 301 299 300 299 300 299 299 300 300 301 301 302 302 301 301 301 302 302 303 314 310 312 312 312 313 313 313 314 313 315 316 316 316 315 314 313 314 313 314 312 311 311 310 308
301 301 301 300 299 299 299 300 300 300 301 302 302 303 303 304 305 302 301 302 302 306 313 313 311 313 313 313 313 313 313 313 313 315 314 312 311 312 313 312 312 311 311 311 310 307 304
301 301 301 300 299 299 299 300 299 300 301 302 303 303 303 302 303 303 302 304 305 306 310 313 314 312 313 313 313 313 313 313 312 313 316 314 312 310 311 312 311 310 309 305 307 310 308
300 301 299 300 299 299 299 299 299 300 303 305 303 302 303 303 303 302 303 303 307 314 311 311 312 312 313 312 312 313 313 313 311 311 307 308 309 310 309 310 311 310 310 306 312 310 312
300 299 300 300 299 298 299 299 301 302 305 304 302 302 303 303 303 303 305 305 307 313 311 312 311 311 312 312 312 312 312 312 310 310 309 307 312 311 310 310 311 311 310 309 309 308 303
300 299 300 299 298 298 298 299 300 303 304 303 302 303 304 303 303 304 307 307 307 311 311 311 311 311 312 312 311 312 312 310 310 309 309 312 312 311 311 310 310 309 309 307 303 303 310
300 299 300 299 298 298 298 298 300 304 304 303 303 303 303 304 304 305 308 307 310 310 312 312 310 311 310 311 311 311 311 310 309 310 309 311 310 311 311 310 310 310 309 310 308 307 308
298 299 298 298 298 297 296 296 299 304 303 303 303 303 305 305 304 306 307 305 311 311 313 313 311 309 309 310 311 310 309 311 310 311 311 311 310 308 309 308 308 309 309 309 310 305 307
300 298 297 298 297 296 294 294 297 305 304 303 303 304 305 305 305 308 308 311 312 313 313 313 312 311 309 309 311 310 311 309 310 311 309 310 308 306 311 311 310 310 310 310 311 310 310
298 297 296 297 296 296 295 294 295 304 305 304 304 300 305 307 308 309 311 312 313 313 313 313 312 309 310 311 311 311 310 310 310 311 311 310 311 305 308 309 311 310 311 310 311 313 312
299 297 293 296 296 295 294 294 294 304 305 306 306 305 306 302 307 307 311 312 312 313 312 312 311 312 312 312 312 311 310 310 309 311 310 311 308 308 309 310 310 309 310 311 311 312 314
298 298 293 294 292 292 290 292 293 303 305 304 304 305 306 307 309 310 310 312 313 313 313 312 312 312 313 313 314 312 311 310 310 309 309 308 303 309 305 309 309 310 310 311 312 312 313
298 298 297 294 291 290 289 289 292 295 303 304 303 305 306 308 306 307 308 311 313 312 312 313 312 312 314 314 313 313 313 312 311 309 309 311 308 307 306 311 310 313 311 312 317 317 317
298 298 297 296 294 290 290 289 289 292 294 302 302 304 306 307 307 308 311 311 312 313 313 313 312 314 314 313 313 313 313 313 311 309 310 312 311 311 311 309 313 318 315 315 316 316 316
296 299 297 297 296 295 291 290 291 289 291 294 302 303 304 308 307 310 310 310 312 312 312 313 313 313 313 313 313 313 313 313 312 311 311 311 311 314 316 315 311 315 318 316 317 316 314
296 299 298 296 297 296 296 294 292 293 289 291 299 300 303 305 309 308 311 309 309 308 311 313 312 312 312 312 313 312 312 316 315 314 311 311 312 315 316 316 314 315 316 316 313 319 314
297 298 298 296 297 297 297 296 295 294 292 290 295 295 300 302 305 307 310 310 311 310 309 311 313 312 313 311 313 312 310 314 314 315 315 315 314 315 315 316 314 311 312 315 320 316 312
296 297 298 296 294 296 296 295 295 295 294 293 292 295 295 298 303 305 306 307 311 311 312 312 311 311 311 312 313 312 313 313 313 313 314 314 315 315 315 316 313 311 313 317 314 313 312
296 296 299 297 294 295 296 295 295 295 295 294 293 293 294 295 297 302 305 307 309 312 312 312 313 311 311 310 309 311 312 311 312 314 312 315 312 314 312 312 309 314 315 315 313 312 310

GFSGBSN_850_thetae_024.txt.gz
Theta_e
307 307 308 306 305 306 306 305 304 304 304 303 303 304 304 304 304 304 303 302 304 303 308 313 315 317 311 313 317 322 319 320 321 320 321 321 320 320 317 317 319 317 318 319 320 320 319
307 307 305 305 305 304 304 303 303 303 303 303 302 302 302 301 303 302 302 303 302 303 305 313 314 316 310 315 314 319 321 320 321 320 320 318 320 321 319 318 316 317 317 318 319 319 319
305 304 305 305 306 305 303 303 302 302 302 303 302 301 301 300 300 301 302 302 303 303 303 311 315 314 311 311 319 318 319 321 321 319 318 314 321 320 319 320 320 320 320 318 318 319 319
304 305 304 306 304 304 302 302 302 302 302 302 302 302 300 300 300 300 300 302 300 299 300 309 314 313 311 309 317 319 318 319 320 321 319 316 322 321 321 319 318 319 318 320 318 318 318
303 304 304 305 303 303 302 302 301 301 302 302 301 301 300 300 300 300 300 301 299 301 301 308 312 311 310 310 313 318 318 319 321 322 321 320 322 321 319 317 317 316 318 318 318 317 317
304 304 303 304 303 302 301 302 301 301 302 301 300 300 300 300 301 301 300 300 300 300 301 306 312 311 312 312 313 316 317 319 320 321 322 322 320 320 317 316 319 317 317 316 316 315 314
302 303 303 304 302 302 301 302 301 300 301 301 301 300 301 301 301 300 301 300 304 305 304 310 312 312 311 312 314 315 315 318 320 320 321 319 320 322 320 318 315 316 316 316 314 314 313
303 303 303 303 302 301 300 301 301 300 300 300 300 300 300 301 300 300 301 301 302 302 304 307 311 313 312 313 314 314 315 318 319 319 316 318 320 318 318 319 317 317 316 315 313 313 313
303 302 303 303 301 301 300 300 300 300 301 300 300 300 301 301 301 300 301 302 302 303 303 308 312 313 313 313 314 314 314 316 318 318 317 318 316 317 317 316 316 314 315 314 315 312 310
303 302 303 302 301 301 300 300 300 300 300 301 301 302 302 303 302 301 302 302 303 303 304 312 313 313 313 314 313 313 315 316 316 317 316 316 313 315 314 316 314 315 312 312 313 312 312
302 301 301 300 301 300 300 300 300 300 301 301 302 302 303 303 303 301 302 302 303 303 311 310 312 311 313 313 313 313 313 314 315 316 315 316 314 313 314 315 313 314 311 311 310 309 308
301 301 301 300 301 300 299 301 300 301 303 304 305 304 303 303 302 301 301 302 303 306 310 311 311 313 313 313 313 313 313 313 315 315 314 312 311 312 312 311 311 311 309 308 307 306 304
300 300 301 300 299 299 299 300 301 303 303 303 302 303 303 302 303 301 301 302 304 306 308 313 314 313 313 313 314 314 313 313 314 317 316 314 312 310 310 311 310 308 307 303 303 302 307
300 299 300 301 299 299 299 300 302 304 303 302 303 303 303 302 302 302 302 302 305 312 313 312 312 312 313 312 314 313 313 313 311 309 312 310 309 310 309 310 311 309 308 305 309 308 309
300 299 299 300 299 299 299 301 301 304 302 303 302 303 302 302 302 304 305 305 307 309 312 313 311 311 312 311 313 312 312 313 310 309 309 307 310 310 309 309 309 310 307 307 307 307 301
299 299 298 299 299 298 298 301 303 303 303 302 303 303 302 302 303 305 305 308 307 308 311 310 311 311 311 311 311 312 312 310 310 309 309 310 310 311 310 309 309 308 307 306 299 301 308
297 299 297 297 297 297 298 297 304 303 303 303 303 303 304 304 305 306 307 306 311 310 311 312 309 310 310 311 310 310 310 309 308 309 308 310 307 309 310 309 309 309 307 307 305 305 306
296 294 293 294 296 296 293 295 304 304 303 303 303 298 305 306 304 306 307 306 309 311 312 312 308 308 308 310 309 310 309 308 309 309 310 310 308 303 309 308 307 308 309 307 304 304 304
298 292 291 292 292 292 293 295 304 305 305 304 304 305 306 306 302 309 308 310 311 312 312 312 311 309 308 309 309 309 309 308 309 309 309 309 307 303 309 309 308 309 309 309 308 309 305
299 294 291 292 291 290 291 293 304 305 305 306 305 299 306 308 308 308 309 310 311 312 312 310 308 308 309 309 309 311 310 309 310 311 310 310 307 303 307 305 308 307 309 308 309 307 309
295 297 292 292 291 290 290 292 297 305 305 306 306 304 306 302 305 306 309 310 311 312 312 311 310 310 311 312 311 310 309 309 309 311 310 309 305 305 307 308 308 308 309 309 307 309 310
294 298 296 292 293 291 291 290 293 302 305 305 305 304 305 305 306 308 308 311 312 312 312 312 311 312 311 313 312 311 309 309 308 309 309 307 302 308 308 307 308 308 309 309 310 311 311
294 299 298 297 294 293 291 290 290 296 302 303 304 304 305 306 304 306 307 311 312 312 311 312 311 312 313 313 312 311 310 310 308 307 308 308 306 307 306 308 309 311 309 310 312 312 311
294 297 299 297 297 295 294 291 290 290 293 302 302 304 304 305 305 306 308 310 311 312 312 312 313 313 313 313 312 312 312 310 309 308 309 311 310 310 309 308 310 315 313 312 311 314 313
294 296 299 298 297 297 296 294 292 290 290 293 300 302 303 304 305 307 309 309 312 312 312 312 312 313 313 313 311 312 312 312 312 310 310 310 311 312 312 312 311 314 315 315 315 315 313
296 297 298 299 297 296 297 296 295 294 292 290 295 296 301 303 304 306 309 309 307 308 309 312 312 312 312 311 312 311 312 312 315 314 310 310 311 313 315 314 314 311 316 314 313 316 313
296 296 298 299 297 294 296 296 295 295 295 293 292 293 295 300 303 305 306 310 309 308 307 310 312 311 312 310 312 311 308 313 316 315 315 314 314 315 316 315 312 310 310 314 318 314 313
296 296 296 299 297 296 294 296 295 295 295 295 294 294 294 295 296 299 302 306 309 310 310 310 310 310 309 311 310 311 310 310 312 312 313 314 315 316 315 316 314 310 313 317 313 313 313
297 296 296 297 299 297 294 295 296 295 295 294 295 294 293 294 293 295 297 302 304 308 310 311 310 310 310 308 307 309 310 309 309 311 309 315 312 312 312 312 310 311 313 314 313 312 310

GFSGBSN_850_thetae_027.txt.gz
Theta_e
307 306 307 306 306 306 306 305 303 304 303 304 303 303 302 302 303 303 302 302 303 304 304 303 309 314 316 313 312 321 320 317 317 319 321 321 322 319 318 318 318 317 317 319 320 320 319
306 305 306 305 306 305 305 304 303 302 302 303 303 302 302 303 303 302 300 303 303 303 304 304 307 312 315 313 313 313 321 318 320 320 320 320 321 320 318 316 317 317 317 318 318 318 318
306 305 305 305 305 304 302 303 303 302 302 303 302 302 303 301 301 300 301 301 302 303 303 304 306 311 314 313 313 313 317 319 321 320 319 320 320 320 319 318 318 318 318 318 317 318 318
306 306 305 304 306 304 302 302 302 302 302 303 302 302 301 301 300 300 300 301 302 302 302 304 307 310 313 313 316 319 319 320 318 318 318 319 321 320 319 319 318 318 317 319 317 317 318
305 305 304 304 304 303 302 301 302 302 301 301 301 301 300 300 300 301 301 301 302 302 302 304 307 312 313 312 312 318 319 320 320 320 320 316 318 321 318 316 316 315 317 318 318 316 316
304 305 304 304 304 302 302 302 301 301 301 301 301 301 301 301 301 301 300 301 300 300 300 303 306 311 311 312 311 317 317 319 320 320 320 320 320 317 314 315 319 317 318 316 316 315 314
304 304 303 303 304 302 302 301 301 302 301 302 301 301 300 301 301 300 300 301 302 303 304 307 310 311 312 312 312 317 316 319 320 320 322 320 322 322 317 315 314 314 316 316 314 313 313
303 303 303 302 302 301 302 301 301 301 301 301 301 300 301 301 301 301 300 301 302 302 303 306 309 312 312 313 314 315 315 317 319 320 317 319 320 320 319 319 319 318 317 315 313 312 313
304 302 303 302 302 302 302 300 300 301 301 301 301 301 301 302 302 302 301 301 301 303 304 305 308 312 313 314 314 314 314 318 318 318 317 320 318 318 319 320 320 315 314 314 314 311 309
303 302 302 302 302 301 300 301 301 302 304 304 304 304 302 303 302 302 300 301 302 303 305 311 311 313 313 313 313 314 315 316 316 317 316 316 313 318 318 318 313 314 311 312 311 311 312
300 302 301 302 301 301 300 301 303 304 302 302 302 303 303 303 303 302 301 302 302 303 310 309 312 311 313 313 313 314 314 315 316 316 315 315 314 316 316 315 314 315 310 310 309 308 308
301 301 301 301 299 301 300 301 303 303 302 303 303 302 302 302 302 302 301 302 303 305 312 310 311 313 312 312 313 314 313 314 315 315 313 312 311 312 312 310 311 310 309 306 305 305 304
300 300 300 300 301 300 300 301 303 303 303 302 302 302 302 302 301 301 301 302 305 307 307 312 314 312 313 314 314 314 313 313 315 317 315 314 311 309 310 311 309 308 307 304 303 303 307
300 299 299 299 298 299 300 301 302 303 303 302 302 300 301 302 302 303 303 303 308 310 313 312 313 312 313 313 314 314 312 313 310 310 315 315 314 310 309 310 311 309 308 305 306 307 308
300 296 297 297 296 298 300 300 303 303 302 303 302 302 303 304 304 304 304 305 307 308 313 313 312 312 313 312 314 313 313 312 310 308 310 309 310 309 309 309 309 310 305 306 306 304 301
300 296 295 294 291 293 296 301 304 303 302 302 303 303 303 303 304 305 303 310 309 308 311 308 309 310 312 312 312 312 312 311 310 309 308 308 310 310 309 309 308 308 306 306 299 301 307
299 294 296 294 291 292 294 300 304 304 303 303 303 304 305 305 305 305 306 308 311 310 311 309 309 309 309 310 310 310 310 309 308 308 308 308 307 310 309 309 309 309 306 305 304 304 305
297 295 293 294 292 291 293 299 304 304 304 304 304 299 306 306 303 306 309 308 309 311 312 311 308 307 309 309 309 309 309 308 308 308 309 309 306 304 309 308 306 307 308 306 303 302 302
295 295 294 292 292 292 292 296 304 305 304 305 305 305 307 308 304 308 307 309 309 311 311 310 309 308 308 308 309 308 308 308 308 308 308 308 304 301 307 308 307 309 307 306 305 302 301
296 299 295 294 292 292 291 292 302 305 305 306 306 301 306 308 307 308 308 310 310 311 311 308 308 307 308 309 308 308 309 308 308 309 309 309 306 303 305 304 305 306 308 307 306 305 307
296 299 298 295 294 292 292 291 293 304 305 305 305 303 305 303 305 304 307 309 311 312 311 309 308 308 310 310 310 310 309 308 309 311 309 307 305 304 307 307 308 308 309 308 305 308 308
296 297 299 298 295 294 292 292 291 297 304 304 304 304 304 304 305 304 305 310 311 311 311 311 309 310 310 310 310 310 308 308 310 308 309 306 305 307 304 306 307 308 308 308 308 308 308
300 295 299 299 298 295 294 292 291 291 301 303 303 303 304 305 303 305 305 309 311 311 311 311 311 311 312 313 311 310 309 309 307 307 307 307 307 307 308 306 308 310 308 308 309 309 309
300 295 298 299 299 297 296 294 292 291 291 300 300 302 303 304 304 305 306 307 310 311 311 311 312 312 312 312 312 312 310 308 307 307 307 307 309 309 309 307 310 310 308 308 309 310 309
299 296 298 298 299 297 296 296 294 294 292 290 297 300 302 304 304 304 307 307 311 311 311 311 312 312 312 312 310 311 312 312 311 309 310 309 310 310 311 312 308 312 312 313 313 314 311
298 297 296 297 299 298 295 297 296 295 295 293 291 294 299 302 303 304 306 307 306 307 308 311 312 312 312 309 311 312 311 311 313 313 310 310 310 313 314 314 311 311 315 313 312 315 312
298 298 296 296 299 298 296 294 297 295 296 294 293 291 293 298 300 302 303 307 308 306 306 308 311 311 311 308 311 310 308 311 314 314 314 314 313 314 315 315 310 309 309 313 317 313 313
298 298 297 296 297 300 299 296 295 296 295 295 294 293 293 293 293 296 298 302 304 308 307 309 309 309 307 309 309 309 309 310 310 311 310 314 314 315 313 316 312 311 313 316 312 313 312
297 298 297 297 295 297 299 298 297 295 295 295 296 294 294 294 292 292 292 294 298 300 303 308 308 308 309 306 306 307 310 309 308 311 308 315 311 311 310 311 309 311 311 313 312 312 310

GFSGBSN_850_thetae_030.txt.gz
Theta_e
309 306 306 306 306 306 305 304 304 303 303 303 304 303 302 303 303 303 302 301 303 302 304 304 304 306 310 315 314 319 321 320 311 318 321 322 320 319 317 317 317 317 317 319 320 320 319
305 306 306 306 305 306 305 304 303 303 303 303 304 303 302 302 302 302 301 302 302 303 304 304 305 304 309 314 314 315 318 319 314 318 321 321 321 319 318 317 317 317 318 317 318 318 318
305 305 306 305 305 305 305 304 303 302 303 302 303 302 301 302 301 301 301 302 302 303 304 304 304 304 309 313 313 315 312 319 316 318 320 320 321 319 318 316 318 317 318 316 316 317 317
305 305 305 305 304 305 304 303 303 302 302 302 302 302 302 302 300 300 301 302 301 302 303 304 303 305 311 313 314 316 317 318 318 321 318 320 320 320 318 318 317 317 317 319 317 316 318
304 305 304 304 304 304 303 303 303 302 302 302 301 302 302 302 301 301 302 300 300 300 301 304 303 306 311 312 313 315 318 319 319 319 318 318 319 320 318 315 317 315 317 318 318 315 316
304 304 303 303 303 303 303 303 302 302 302 302 301 302 301 301 301 301 300 300 300 301 300 301 304 308 311 313 313 313 318 319 318 318 318 318 318 316 313 317 317 318 317 316 317 314 314
304 304 303 303 303 303 303 302 302 303 303 303 303 302 301 301 301 301 300 300 301 302 302 304 307 310 312 313 312 316 317 319 320 319 319 318 320 320 318 315 313 314 315 316 314 313 313
303 304 303 303 304 302 302 302 303 304 304 304 303 305 300 301 302 302 302 300 301 302 301 303 308 310 312 313 313 315 316 318 319 318 317 318 320 318 315 314 317 317 316 316 313 311 312
302 303 303 302 303 302 302 302 303 303 304 302 302 303 305 301 302 302 302 300 301 302 302 304 306 310 311 312 314 314 316 318 318 319 318 319 317 319 319 319 320 316 316 314 315 311 308
302 303 302 301 302 302 301 302 303 303 303 302 302 302 304 301 303 302 301 302 302 303 303 305 309 312 313 312 313 314 316 316 317 318 317 316 317 318 319 320 316 316 311 312 311 311 313
301 303 302 301 301 300 302 303 303 303 303 302 302 303 303 302 302 301 301 302 301 303 309 308 312 312 312 312 313 314 315 315 317 315 316 315 317 318 319 317 314 314 309 309 308 308 308
300 301 299 300 299 301 302 302 302 303 303 301 301 302 302 302 301 302 301 302 303 299 308 311 311 313 312 313 313 313 313 315 315 314 312 311 311 313 314 311 312 309 308 305 304 305 304
296 300 296 299 298 299 302 302 302 302 303 302 301 301 301 301 301 301 302 303 301 308 308 312 314 312 312 314 314 314 314 313 317 316 315 313 311 309 310 310 308 308 310 306 304 301 306
298 300 295 298 293 294 297 302 303 302 302 301 302 303 303 302 302 303 303 303 305 311 313 312 311 311 313 312 314 313 313 313 309 312 313 313 316 311 309 310 311 309 308 305 306 305 307
296 299 296 296 292 292 295 302 303 302 302 302 303 304 304 303 303 303 303 307 306 309 312 313 311 313 313 312 314 313 312 311 310 308 309 307 310 309 308 309 309 309 305 305 304 301 301
296 299 295 294 292 292 293 299 304 304 304 303 303 303 305 305 305 304 302 311 309 308 309 307 309 310 311 313 312 313 311 311 310 308 307 308 310 309 309 308 307 308 306 307 300 302 306
296 296 297 294 293 292 292 296 304 304 304 304 304 304 307 306 306 306 305 309 311 310 310 308 309 309 309 310 310 311 310 308 309 308 307 306 307 310 309 309 309 308 306 304 303 303 304
298 297 296 296 294 292 292 292 301 305 304 305 306 300 307 308 304 307 310 309 309 310 311 309 306 307 308 308 308 309 309 308 308 307 309 308 306 303 310 307 306 307 307 304 302 302 301
300 299 298 298 296 294 293 292 292 304 305 305 304 305 307 308 304 307 306 308 308 310 310 309 308 307 307 307 309 308 308 307 308 307 308 307 304 302 308 308 307 308 307 305 303 301 299
300 297 301 299 298 296 293 293 292 298 305 305 305 300 306 308 306 307 308 308 310 310 310 307 307 307 308 308 307 308 308 308 307 308 309 308 304 304 305 305 305 306 307 305 305 299 305
301 298 299 301 300 297 294 293 292 294 304 304 304 302 303 304 304 303 305 308 310 311 310 308 308 308 308 309 310 309 308 308 309 311 309 307 303 303 306 306 306 307 308 307 304 305 305
301 301 297 300 299 299 295 293 292 291 302 304 303 303 304 304 303 304 304 309 310 310 310 310 307 309 309 308 308 309 308 308 309 308 307 305 307 307 302 306 306 307 307 307 307 308 307
300 300 297 299 299 299 297 295 294 291 293 302 301 302 302 305 301 304 305 307 309 310 310 310 309 310 312 312 311 309 308 308 308 307 307 307 305 302 303 306 307 309 307 307 308 307 308
299 299 298 299 300 298 297 298 296 296 292 294 298 301 302 303 301 304 305 306 308 309 310 311 311 311 312 311 311 310 307 307 307 306 306 306 306 306 301 306 309 309 307 307 308 308 307
298 298 298 297 298 298 299 296 296 295 295 293 292 299 301 302 303 302 304 305 308 310 310 311 311 312 312 311 309 310 312 311 310 308 309 308 310 307 305 312 308 311 309 309 311 314 308
297 298 298 298 297 299 299 298 295 296 296 295 293 291 296 300 299 303 303 304 305 306 307 311 312 312 312 308 310 312 311 309 312 312 309 310 309 307 311 313 311 309 314 313 312 315 312
298 298 297 298 296 297 299 299 297 296 296 294 294 294 292 295 297 300 303 304 306 305 304 307 311 310 311 308 311 310 307 308 311 312 311 313 313 313 312 311 310 307 309 313 317 313 312
298 298 297 298 296 296 297 299 299 297 295 295 295 295 294 293 292 292 295 300 300 304 306 307 308 308 306 308 309 308 307 307 309 310 311 311 311 312 312 312 312 310 312 315 312 311 311
298 297 297 297 298 297 296 297 299 298 296 295 296 296 295 294 294 295 295 294 293 293 296 302 307 306 308 305 304 305 309 306 306 310 307 311 308 310 308 309 308 309 312 312 311 312 311

GFSGBSN_850_thetae_033.txt.gz
Theta_e
306 305 307 307 306 306 307 306 305 304 304 303 303 303 303 302 302 302 302 301 302 303 302 303 304 305 305 308 313 314 319 317 317 318 320 321 321 320 321 317 317 317 317 319 319 319 319
306 306 306 306 305 306 306 305 304 304 304 304 303 303 302 302 302 301 301 301 302 302 301 303 303 304 303 309 313 315 314 315 315 318 319 321 320 320 319 317 318 317 317 317 318 318 318
307 306 306 305 305 304 305 304 303 304 303 303 303 302 302 302 302 302 301 300 303 302 302 303 303 303 304 307 313 313 314 314 314 319 318 321 319 318 317 316 317 316 317 316 316 316 317
306 307 305 305 304 304 304 305 304 303 304 304 303 303 302 302 302 302 300 301 301 300 302 303 303 303 304 305 312 313 316 314 319 318 319 320 319 318 317 316 316 317 317 320 317 316 316
307 306 304 305 304 306 303 303 303 304 304 304 303 304 303 301 301 302 302 301 300 300 302 302 303 303 307 310 312 313 316 317 320 317 317 318 319 319 317 316 318 316 317 317 318 316 316
306 305 304 304 304 304 303 303 303 305 305 304 302 302 303 301 301 300 301 301 300 301 301 302 301 305 309 311 312 313 315 318 318 317 317 318 318 317 314 316 318 318 317 317 317 314 314
303 304 304 304 303 303 304 303 304 304 304 303 303 303 303 303 301 301 302 301 301 302 301 302 304 308 311 312 313 313 317 319 318 317 319 318 318 319 318 315 313 314 315 316 314 312 313
302 302 304 302 303 303 302 303 304 304 304 302 303 302 303 304 302 302 302 300 301 301 300 301 305 306 311 312 312 313 317 318 317 317 317 318 318 315 315 314 314 315 315 315 314 311 312
302 303 302 301 301 302 302 303 305 302 303 302 303 303 303 301 302 302 301 300 301 301 303 303 306 309 312 312 314 315 315 315 314 316 316 316 318 316 317 316 318 316 316 314 315 311 308
301 302 302 301 300 302 302 303 304 302 302 300 302 303 303 301 302 301 300 301 301 302 304 308 308 311 312 313 314 314 314 316 317 312 316 317 317 318 318 318 317 318 312 312 311 312 316
299 300 299 300 299 299 301 304 302 302 302 301 301 301 302 302 301 301 301 301 301 303 312 306 309 311 311 311 313 314 314 315 316 316 316 315 318 319 319 319 316 315 309 309 308 309 308
300 298 297 299 296 296 301 303 302 302 301 303 301 302 301 301 301 301 301 302 303 299 311 310 311 312 312 313 313 314 315 314 313 313 312 312 314 315 315 314 313 308 307 306 305 306 310
299 297 295 296 296 293 299 303 302 302 302 302 304 304 304 303 301 302 302 302 299 306 308 313 312 312 312 313 314 314 314 313 317 315 315 313 311 309 311 311 309 310 313 312 308 309 314
297 299 295 295 295 292 293 302 303 303 303 303 303 303 305 304 303 303 303 298 308 314 314 311 311 311 314 312 313 313 313 311 309 313 313 315 315 311 309 310 312 309 311 311 312 308 308
297 298 296 295 294 293 292 293 303 304 304 303 303 303 306 306 305 304 303 308 304 310 312 311 309 311 311 312 313 313 311 311 309 309 312 310 311 308 308 308 309 309 309 304 305 301 306
298 299 298 297 295 294 293 292 295 304 304 304 305 304 307 307 306 306 305 312 310 308 309 307 309 310 311 313 312 312 311 310 309 308 307 307 311 309 308 308 307 308 305 309 303 306 309
300 300 300 300 302 297 294 293 293 300 304 305 306 305 308 308 307 307 308 308 310 310 310 308 308 308 308 310 310 311 310 308 308 308 306 306 308 311 309 309 309 308 308 304 304 305 308
302 299 302 301 302 302 296 294 293 294 304 304 305 301 308 308 305 307 309 308 309 310 310 307 306 307 308 308 308 308 309 308 307 308 309 306 306 308 310 306 306 307 307 305 307 305 303
302 301 299 301 300 301 301 294 293 293 303 305 305 306 308 308 308 308 307 308 309 309 309 308 307 307 307 307 309 307 307 307 307 307 308 307 305 304 308 307 307 308 306 304 302 302 304
301 301 299 301 300 300 302 298 294 293 300 304 304 299 306 308 305 306 308 308 309 309 309 307 306 307 307 307 306 307 307 308 307 308 308 307 305 304 305 304 305 306 307 305 305 305 306
301 300 300 299 300 299 300 300 294 293 297 304 303 301 303 303 303 303 305 307 310 311 309 307 307 307 307 309 309 308 308 308 308 310 307 306 305 303 306 306 306 307 308 306 305 305 308
301 300 299 299 300 300 299 298 295 293 295 304 302 302 303 304 303 302 304 308 310 310 310 309 307 307 308 308 307 308 307 307 308 308 307 304 307 306 303 306 306 307 307 307 307 307 306
300 299 298 298 299 298 298 298 297 294 292 299 301 301 302 303 300 302 304 306 308 308 309 310 307 309 311 311 311 309 308 307 307 307 306 308 306 302 303 306 307 309 307 307 307 306 308
299 298 298 298 298 299 298 297 296 297 294 292 297 299 301 303 300 302 303 303 305 306 309 311 311 309 311 309 308 308 307 306 307 305 306 306 306 302 303 305 309 308 306 306 307 307 306
298 298 299 298 298 298 299 299 297 297 296 294 292 296 299 299 301 300 302 303 305 308 309 310 311 312 312 310 308 309 310 310 309 308 308 308 309 307 305 307 307 310 307 308 309 314 307
298 298 298 298 298 297 298 299 299 297 295 294 294 294 293 297 296 301 302 303 302 303 305 310 311 311 311 308 310 311 311 309 311 311 309 309 307 306 309 310 310 309 313 311 311 317 311
299 298 297 297 297 298 297 298 299 299 297 295 295 294 293 293 293 298 300 303 305 305 302 304 310 310 310 309 312 312 308 306 309 310 313 312 313 311 312 311 308 306 311 312 318 315 311
300 299 297 297 298 298 298 297 298 299 298 297 295 295 295 294 294 294 295 298 299 301 307 304 308 308 305 309 311 310 307 306 307 307 310 310 311 312 310 311 310 308 310 315 314 311 311
298 300 297 298 299 299 298 298 298 298 297 296 295 294 296 295 295 294 295 294 295 294 293 296 302 304 306 304 303 303 307 304 305 309 305 310 306 308 307 308 306 309 311 312 310 311 311

GFSGBSN_850_thetae_036.txt.gz
Theta_e
306 308 307 306 306 305 306 306 306 305 304 305 304 304 304 303 303 302 301 301 301 303 303 302 303 303 305 306 307 314 317 318 318 317 318 319 320 322 322 320 319 319 320 319 319 320 321
305 306 306 306 305 305 306 305 304 303 304 304 305 305 304 302 303 302 301 302 302 302 301 301 304 303 305 306 307 311 315 316 318 317 317 320 318 321 320 321 320 319 319 319 319 319 319
305 306 305 305 304 305 306 304 304 303 305 305 305 304 304 303 303 302 301 302 302 302 302 302 302 303 305 305 311 311 313 314 318 316 318 320 318 319 319 320 319 319 320 320 319 319 319
305 306 306 305 304 304 304 305 303 305 306 304 304 303 303 304 303 302 302 301 302 300 301 301 302 304 304 303 310 313 313 315 317 317 318 319 319 319 319 318 319 320 319 321 319 319 318
304 305 305 305 304 304 305 303 305 305 305 305 305 304 303 304 302 301 301 301 300 300 302 302 302 304 305 306 308 312 314 315 317 318 319 319 318 317 317 318 319 319 318 318 318 318 318
304 304 303 303 304 304 303 304 304 305 305 303 303 303 303 304 301 300 300 301 301 301 302 302 303 304 305 309 311 312 313 316 317 318 316 317 318 319 318 318 316 317 316 317 316 317 319
303 304 303 302 302 304 303 304 305 305 306 302 303 304 303 304 301 302 302 301 302 303 303 302 302 305 309 310 311 310 314 317 318 317 317 317 319 320 319 317 315 317 316 316 316 315 317
300 304 302 302 301 303 303 303 304 306 304 301 304 303 303 302 302 302 302 300 300 301 302 302 303 305 307 311 313 313 315 317 317 318 317 318 319 317 318 317 317 317 316 317 316 314 316
299 302 299 300 300 301 302 303 304 305 304 302 302 302 301 301 301 301 301 300 300 301 305 305 305 306 312 312 314 315 313 314 317 318 318 319 318 316 317 318 318 318 317 318 317 315 313
300 300 296 297 294 300 302 301 302 302 303 302 303 301 302 302 301 300 301 301 301 302 308 307 309 311 312 313 315 312 313 312 313 316 317 317 318 316 317 318 317 319 316 316 315 317 318
300 298 297 295 294 294 300 302 302 302 303 304 304 303 300 300 300 301 301 300 301 303 315 307 309 311 312 313 313 312 312 315 313 313 315 317 318 318 317 318 317 316 314 314 313 316 315
299 298 298 296 294 293 293 302 302 303 303 303 303 304 304 301 301 301 302 302 303 310 315 312 312 311 313 313 314 314 315 313 312 312 314 314 313 316 317 313 316 310 312 311 312 314 321
300 299 298 296 295 294 293 294 303 303 303 303 303 304 306 305 303 303 302 303 313 315 309 314 314 313 313 314 314 314 314 315 315 315 315 311 311 312 312 313 311 312 317 321 321 322 322
300 301 300 301 300 295 294 293 294 304 304 304 304 304 306 306 306 305 304 308 315 312 313 312 313 313 314 314 313 314 314 316 313 315 317 319 317 313 310 312 314 315 318 321 320 316 314
299 301 301 301 302 302 295 294 293 296 304 304 305 305 306 307 307 306 306 314 313 311 312 312 312 313 313 314 315 315 315 314 314 314 317 316 315 310 309 310 312 313 317 308 312 308 314
301 301 301 301 300 301 302 294 294 294 302 304 306 306 307 307 307 306 313 312 311 309 310 310 313 312 313 314 314 315 315 312 311 310 310 311 316 310 309 309 309 312 309 315 314 317 317
302 301 300 301 300 300 300 302 294 294 297 304 307 307 307 308 308 310 310 312 311 311 310 310 311 312 312 313 313 314 313 311 310 309 309 311 314 312 311 313 313 311 313 310 311 311 314
301 301 300 301 300 299 299 299 297 294 295 304 305 313 308 308 312 311 312 310 309 311 310 309 309 310 312 311 313 313 311 311 309 310 312 309 313 314 313 308 308 310 312 310 314 313 310
301 301 301 299 300 299 298 299 301 293 294 304 304 305 308 308 313 313 310 311 310 311 311 310 309 309 309 311 312 310 311 308 308 310 311 310 312 313 312 310 309 311 311 309 307 309 313
301 301 301 300 300 299 299 299 300 293 293 304 304 311 308 308 306 311 312 312 312 310 310 308 308 309 309 309 309 310 310 310 308 309 308 309 309 312 312 313 312 312 311 309 310 313 312
300 300 301 299 299 299 299 299 298 293 295 303 303 303 303 310 309 308 308 310 312 312 311 308 309 309 309 310 310 310 310 309 308 310 309 310 313 309 309 309 310 311 311 310 310 311 313
299 300 299 298 298 299 299 298 297 293 294 302 303 303 303 305 304 306 307 311 312 312 312 310 309 309 310 311 310 311 310 311 311 310 310 308 312 309 310 308 309 310 310 310 310 310 310
299 299 298 298 298 299 299 298 298 295 292 297 300 301 302 303 305 307 308 309 310 309 310 310 309 311 312 311 311 310 309 310 310 310 310 311 310 311 313 309 310 312 311 311 311 310 310
299 298 299 298 298 298 298 299 298 297 294 292 295 299 302 305 304 306 305 305 307 308 311 311 310 311 310 308 308 308 308 309 309 309 309 310 311 311 312 310 315 311 309 310 311 310 310
299 299 298 297 298 298 298 298 299 298 297 294 294 293 299 300 301 301 303 304 305 307 310 311 311 311 309 310 312 312 312 311 310 309 309 309 311 313 313 312 312 311 309 310 312 316 310
299 299 298 298 297 298 298 298 298 298 298 296 295 294 292 297 299 300 302 302 305 308 310 310 311 311 310 312 313 312 314 311 312 312 310 310 311 312 311 311 314 313 314 310 312 319 313
301 301 299 298 298 298 298 298 297 299 299 297 296 294 295 294 293 297 300 302 304 306 308 306 309 311 310 313 313 311 312 310 313 312 312 312 312 313 313 311 311 311 313 312 319 318 312
300 299 299 297 298 298 299 298 298 298 298 297 297 296 294 295 294 294 294 297 297 297 305 303 309 309 309 313 313 312 311 311 311 311 311 312 312 313 312 312 311 309 311 315 315 311 311
299 299 298 298 298 298 298 298 298 298 298 298 297 295 294 295 295 295 295 295 295 295 294 295 300 303 309 312 311 312 312 310 312 313 309 312 311 311 311 311 309 310 312 312 311 310 311

GFSGBSN_850_thetae_039.txt.gz
Theta_e
307 308 307 306 306 306 306 305 305 306 306 306 306 306 305 305 304 303 303 301 301 302 303 303 302 303 304 307 307 313 313 316 318 317 317 319 317 320 322 320 319 320 320 320 320 320 320
307 306 307 306 305 306 306 306 305 305 305 306 306 305 304 304 304 303 303 302 302 302 302 301 303 304 305 307 306 309 316 317 319 317 318 317 317 320 320 320 320 320 320 319 319 320 321
305 306 306 305 305 305 305 304 305 306 305 305 306 305 304 303 304 303 303 302 302 302 302 301 302 303 305 305 307 309 309 315 317 319 316 317 317 319 320 321 320 320 320 320 319 319 320
304 305 305 304 304 305 304 305 305 305 305 305 304 304 304 303 304 303 302 302 301 303 300 301 302 304 305 304 305 309 309 310 316 319 316 317 318 318 319 319 320 320 320 321 320 319 319
304 304 305 304 303 304 304 305 305 305 305 304 306 305 303 303 303 300 301 302 301 300 300 302 303 305 304 307 305 306 312 312 317 318 316 319 320 318 318 319 321 320 319 320 319 319 320
301 304 303 302 302 303 304 304 305 305 305 305 303 303 303 303 301 300 300 301 301 301 303 304 304 304 304 307 308 310 312 315 318 317 317 319 320 319 318 318 320 318 318 318 318 319 319
301 301 300 301 301 303 304 305 305 305 304 302 303 304 303 301 301 302 302 303 305 304 304 303 304 303 307 309 311 312 314 316 316 317 319 319 320 321 318 317 316 315 317 316 316 317 318
301 300 300 299 301 302 304 304 305 305 305 302 302 301 301 302 302 302 303 303 303 302 304 303 304 304 306 308 312 312 314 316 316 318 316 319 319 317 317 316 316 317 316 316 317 316 316
301 300 300 297 299 296 302 303 304 305 305 305 302 300 302 301 301 303 302 301 300 303 305 305 304 306 309 309 312 314 312 312 316 318 317 318 317 317 317 317 317 316 316 316 316 317 316
301 301 300 297 295 294 296 301 302 303 303 303 304 302 300 300 304 302 301 301 302 303 309 308 308 310 310 312 313 313 312 311 313 317 317 318 317 317 318 318 316 316 316 317 317 317 315
301 301 301 300 298 295 294 293 299 303 303 303 303 305 303 301 300 303 301 302 302 304 316 310 311 311 313 314 313 312 313 311 314 316 316 317 318 318 317 317 317 318 317 317 317 318 318
301 301 301 302 302 303 295 294 293 297 303 304 303 303 305 304 303 302 302 303 304 311 315 314 312 314 314 314 313 313 313 311 311 314 313 314 313 316 317 315 316 315 316 316 316 317 322
301 302 301 301 301 301 303 297 294 293 297 304 304 303 304 305 306 304 304 305 313 317 311 314 315 314 314 315 315 315 315 313 312 315 315 313 311 313 314 316 315 316 318 321 321 323 321
301 302 301 301 301 300 299 302 299 295 294 303 305 304 306 305 305 305 306 311 317 312 313 313 314 314 315 315 314 315 315 317 314 315 317 319 316 311 310 315 315 317 318 323 321 322 320
300 302 302 301 301 300 299 298 300 300 295 299 305 306 307 307 306 306 308 315 315 313 313 312 313 315 315 315 316 316 316 316 316 316 319 319 317 310 310 311 315 316 318 313 315 311 315
300 302 302 301 301 300 299 298 298 301 296 298 305 306 308 308 307 308 314 313 314 312 312 312 314 314 316 315 316 316 316 314 314 312 312 315 316 312 311 311 310 314 313 318 317 321 317
300 301 302 302 301 301 300 297 297 300 299 298 305 309 309 308 309 313 313 311 313 312 312 312 312 313 314 314 315 315 314 313 313 312 312 314 316 314 312 314 314 312 315 314 314 314 319
299 301 301 301 301 301 299 297 298 299 295 296 306 315 308 308 314 313 314 313 311 312 311 310 311 312 313 313 314 314 313 314 312 312 313 312 315 315 315 311 310 312 314 315 317 317 313
299 300 301 301 301 299 298 298 299 295 293 297 307 309 308 309 316 314 312 312 313 313 312 311 311 311 311 313 314 314 312 310 311 312 313 312 314 314 314 313 311 313 313 313 311 312 316
298 300 300 300 299 298 299 299 299 294 293 301 306 311 312 311 311 313 313 312 313 312 312 311 310 311 311 312 311 313 313 311 310 311 309 310 312 314 316 317 314 313 313 313 312 316 315
298 299 300 299 298 299 299 299 299 294 294 303 305 307 305 315 312 312 312 313 313 314 312 310 311 311 311 312 311 312 312 311 310 310 311 312 316 311 311 311 312 313 312 313 313 313 315
300 299 298 299 299 298 298 299 298 293 294 302 304 303 304 307 307 310 309 313 313 313 313 312 311 311 311 312 311 312 311 312 311 311 311 311 313 312 312 311 311 312 311 312 312 312 312
299 298 299 299 298 298 298 299 298 297 293 297 297 301 302 306 309 310 312 312 313 312 312 312 311 311 312 312 312 311 311 311 311 311 311 312 312 313 314 311 311 313 312 312 312 312 312
299 299 299 299 297 298 298 298 299 298 297 296 293 297 301 306 307 309 308 308 310 311 312 312 310 312 310 309 310 310 310 311 311 311 311 312 313 312 314 312 315 314 311 312 312 312 311
299 300 299 299 297 299 298 298 298 299 298 297 295 294 298 300 300 302 305 306 307 309 311 312 312 312 310 312 312 313 312 312 312 311 311 311 311 313 314 314 313 312 311 312 313 315 312
301 301 301 299 298 299 299 299 298 298 299 298 297 296 294 296 301 300 300 301 306 310 311 312 312 312 312 314 313 313 313 312 313 312 311 311 311 312 312 313 315 315 315 311 313 319 314
301 300 299 298 298 299 299 298 298 298 298 298 297 296 296 297 297 296 299 301 302 306 308 309 309 312 312 314 313 312 312 312 313 312 312 312 312 313 312 312 311 312 315 314 319 319 314
300 300 299 298 299 298 298 299 299 298 298 298 297 296 295 296 296 296 295 296 297 297 304 303 309 311 311 314 314 312 311 312 312 312 312 312 312 313 312 313 313 311 314 317 316 313 314
300 300 300 299 299 299 299 299 299 298 298 298 298 298 296 296 297 296 295 295 295 295 295 296 300 301 306 312 313 312 311 312 312 313 311 312 311 312 312 312 311 311 313 313 312 313 313

GFSGBSN_850_thetae_042.txt.gz
Theta_e
307 307 306 306 305 306 306 306 306 307 306 306 306 306 305 305 304 305 304 303 302 301 303 303 302 303 302 306 307 310 312 309 314 318 319 318 317 320 321 320 319 321 320 320 320 320 320
305 306 306 306 305 306 306 306 306 307 306 306 306 306 305 304 304 304 303 303 302 302 302 301 302 303 305 306 306 308 313 317 314 319 318 319 317 320 320 320 319 319 320 320 319 320 320
303 305 306 305 304 306 305 306 306 306 306 305 307 307 305 304 304 304 303 302 303 303 302 301 302 303 306 305 307 310 309 316 319 318 317 317 316 318 320 321 320 319 320 319 319 320 320
302 303 303 303 303 304 305 305 306 306 305 306 305 303 303 303 304 303 302 303 301 302 301 300 302 305 305 305 304 306 308 312 314 316 317 317 317 317 319 320 320 320 319 321 319 319 319
302 302 302 300 303 305 305 305 305 306 306 304 304 303 303 302 300 298 300 302 300 300 300 300 303 305 305 307 304 305 306 309 315 317 315 317 317 318 319 320 321 320 320 320 320 319 319
302 301 301 299 299 301 303 304 305 306 306 303 301 302 301 301 301 301 301 301 301 303 301 304 304 305 305 305 307 305 307 309 317 317 318 317 317 319 318 319 321 321 320 318 319 319 319
301 301 301 298 297 299 302 304 302 306 305 306 302 302 302 302 302 302 303 305 305 304 305 304 304 304 304 307 308 309 311 311 316 318 319 318 319 319 318 317 318 317 317 317 317 318 318
301 301 301 299 296 296 299 300 302 302 305 304 305 300 302 301 301 302 304 304 301 302 305 303 304 303 304 306 310 310 312 316 317 318 317 318 319 317 317 316 316 316 315 316 316 317 317
302 302 301 302 302 301 297 298 295 302 303 303 303 303 300 301 303 303 300 301 301 303 303 305 304 306 309 309 311 310 312 314 316 317 318 317 317 318 317 317 316 314 315 315 316 316 316
301 302 301 301 301 302 302 298 295 294 299 303 303 303 302 301 305 304 303 302 302 303 308 309 309 309 310 310 313 312 312 312 314 316 316 317 317 318 317 318 316 316 315 315 316 316 316
302 302 302 301 301 300 299 302 301 295 294 297 304 304 304 302 303 306 304 302 303 304 315 310 311 309 309 312 312 314 311 311 315 316 317 317 318 318 319 318 316 317 316 317 317 317 317
304 301 302 301 302 300 299 298 298 302 296 295 302 304 303 307 306 305 303 303 304 310 313 313 312 313 315 314 313 313 312 312 311 314 315 314 314 316 318 317 317 317 316 316 316 316 317
302 301 302 302 302 301 301 299 298 297 301 296 300 305 305 305 307 306 305 305 310 315 311 314 315 314 315 314 315 314 312 313 314 315 315 311 311 313 313 318 316 316 316 317 318 317 316
300 300 302 302 302 301 301 300 298 297 299 299 301 306 307 307 306 305 306 308 313 312 314 313 315 314 316 315 315 315 315 315 313 315 316 318 315 313 311 315 316 316 315 317 318 318 315
301 300 301 302 301 301 301 300 298 297 300 299 302 307 307 308 306 306 306 312 312 314 313 313 314 316 316 316 315 316 316 316 316 316 318 318 315 310 311 312 314 317 315 311 314 311 312
300 300 301 301 301 301 301 299 297 298 301 297 300 307 308 308 307 309 313 312 313 312 312 312 314 314 315 316 317 318 317 315 314 314 313 315 316 312 311 312 312 314 312 317 313 316 316
300 299 300 300 301 300 300 298 299 300 300 296 306 309 312 308 311 311 313 311 312 312 312 312 313 313 314 315 315 316 315 314 313 312 312 315 315 314 312 313 315 314 314 314 312 313 316
298 299 299 300 300 299 298 298 299 298 295 295 309 312 310 309 314 315 315 313 312 312 311 311 311 313 313 313 314 314 314 314 312 312 313 312 313 315 315 311 313 314 315 315 315 315 310
299 298 299 300 299 298 299 299 299 295 293 298 306 308 310 309 316 313 312 312 313 312 312 312 311 311 312 313 313 313 313 311 311 312 312 312 312 312 313 312 311 313 313 315 314 313 316
297 300 300 298 299 299 299 299 299 293 296 302 307 310 311 312 311 313 313 313 313 312 312 311 311 311 311 312 311 313 313 311 310 311 309 310 312 312 311 313 313 312 313 312 311 312 314
301 300 298 299 299 299 298 299 299 293 300 304 306 306 305 311 311 309 312 313 313 314 312 311 311 311 311 312 311 312 312 311 310 310 311 312 311 308 311 312 312 313 313 313 310 312 311
300 298 299 299 298 298 298 299 299 296 298 299 302 302 302 306 308 310 310 313 314 314 313 313 311 312 311 312 312 311 312 311 311 310 311 311 311 310 309 311 311 311 311 311 312 312 311
298 299 300 300 298 299 298 298 299 299 297 296 294 299 302 304 307 310 310 310 312 312 312 312 312 311 311 313 313 312 311 311 311 310 311 311 309 308 311 311 311 310 310 310 311 310 311
299 300 300 300 298 299 299 299 298 299 299 297 295 298 300 303 303 305 306 307 309 310 311 312 310 313 310 310 311 311 311 311 311 310 310 311 311 309 308 310 310 312 311 311 310 311 310
301 301 300 300 298 299 299 299 299 299 298 298 297 296 297 299 297 302 301 303 304 309 310 312 313 312 310 312 311 312 312 312 311 311 310 310 310 311 312 309 311 311 311 311 312 312 310
301 301 300 300 298 299 299 298 298 298 298 298 298 296 297 298 298 296 297 301 304 306 309 312 312 312 312 313 313 313 314 312 313 312 310 310 310 311 313 311 313 316 311 311 312 318 313
300 300 300 299 298 299 298 299 299 298 298 298 298 297 297 298 298 297 298 298 299 302 304 308 305 311 312 313 314 312 312 311 312 311 312 311 310 311 313 312 310 312 311 313 318 317 313
300 300 300 300 299 299 299 298 299 298 298 297 298 298 297 297 297 297 297 296 296 297 299 299 305 309 311 312 313 312 310 309 310 310 310 311 310 312 312 313 310 314 314 316 314 314 313
301 300 300 301 300 299 298 298 298 298 298 298 299 298 296 296 297 296 295 296 295 295 295 296 298 299 302 308 310 311 311 308 309 310 308 310 309 310 309 310 310 312 313 313 313 313 314

GFSGBSN_850_thetae_045.txt.gz
Theta_e
304 305 306 305 305 306 307 307 306 307 307 305 307 307 306 305 304 304 304 303 302 302 302 303 303 304 305 304 306 307 311 310 316 318 317 318 319 322 319 320 320 320 320 322 322 321 322
303 305 305 304 304 307 308 308 306 308 307 305 306 306 303 303 304 304 303 303 302 302 302 301 302 303 303 305 306 310 312 311 315 318 318 318 315 320 320 320 318 320 320 320 319 320 320
303 304 305 304 304 304 306 305 306 307 308 303 307 304 303 303 304 304 303 302 303 303 302 301 301 303 305 303 307 308 311 314 315 317 318 317 315 318 320 319 319 318 320 319 319 320 319
302 303 304 303 303 301 306 306 306 306 307 304 302 304 301 299 298 299 302 302 301 301 301 299 301 304 305 304 304 305 307 311 315 316 317 317 316 318 319 319 319 319 317 320 318 318 319
302 302 302 300 301 300 300 305 304 306 306 306 301 302 302 301 301 300 300 301 300 300 300 301 303 304 304 306 305 304 305 307 314 314 317 317 317 317 318 318 319 318 319 319 319 317 318
302 302 301 302 302 301 297 297 303 305 304 304 305 301 301 301 302 301 301 302 303 304 302 304 304 304 304 305 306 304 305 308 313 313 316 317 317 317 317 317 321 319 318 318 318 318 318
302 302 302 301 302 303 302 296 297 301 304 303 303 302 300 300 301 301 303 304 304 304 304 304 303 304 304 304 307 305 304 309 312 315 316 316 317 318 317 316 316 317 317 317 317 317 318
302 302 302 301 301 300 300 302 297 295 297 302 303 303 300 301 300 302 302 302 303 303 304 304 303 303 303 305 309 308 307 311 316 317 314 316 316 315 315 315 316 316 316 315 315 317 318
302 302 302 301 301 301 300 299 300 301 295 294 299 303 303 300 303 301 302 301 301 304 304 306 306 307 308 308 309 310 310 314 315 312 316 317 316 316 317 316 316 314 312 313 315 315 315
303 303 302 302 301 301 301 300 298 298 300 296 294 302 303 302 305 304 305 302 302 303 307 309 309 309 309 310 309 308 312 313 315 314 316 317 316 316 316 316 315 315 312 314 315 315 316
303 302 302 302 301 302 301 302 301 298 298 300 294 301 304 304 302 305 305 301 303 305 310 311 311 307 309 308 310 312 311 313 314 316 315 316 317 318 317 317 315 314 314 315 314 314 315
303 301 301 301 302 302 301 302 301 299 298 300 296 302 304 305 306 306 305 304 305 306 312 311 309 311 310 310 313 312 312 313 313 315 313 314 314 315 317 317 316 314 314 313 313 313 311
302 300 301 301 301 301 301 302 302 300 299 300 296 303 305 305 307 306 305 305 306 308 309 315 314 314 313 314 315 313 313 314 315 316 316 313 312 313 314 316 315 315 314 316 315 310 312
301 301 300 301 301 301 302 301 300 299 300 301 297 305 306 307 307 305 306 306 308 311 313 314 314 314 315 314 314 313 314 314 313 313 315 315 317 314 311 315 317 316 314 314 315 313 314
301 300 300 301 300 300 301 300 298 299 301 298 298 307 307 308 307 308 307 304 306 313 313 314 315 316 316 315 315 315 315 313 314 314 316 314 314 311 312 312 313 316 316 313 312 311 308
301 300 300 300 300 300 299 298 299 300 301 296 300 307 308 309 307 309 306 308 309 312 312 312 314 314 315 316 317 317 315 315 315 314 314 314 315 312 312 312 312 314 312 315 310 315 313
302 300 299 300 301 298 299 299 299 298 297 296 307 309 310 307 308 310 307 308 312 312 311 310 311 312 313 314 314 316 314 314 313 314 312 312 311 314 311 312 316 314 315 313 312 310 313
301 299 301 300 299 300 299 299 299 294 295 297 308 306 310 307 309 311 305 311 311 311 311 311 310 311 311 312 313 312 313 313 312 311 313 312 312 315 314 313 313 314 314 313 311 313 307
299 302 300 299 299 299 299 299 298 294 299 302 305 307 309 309 314 309 310 312 312 312 311 311 310 310 310 311 312 311 310 310 311 310 311 311 309 313 314 311 311 314 313 315 312 310 310
301 300 299 299 299 299 299 299 298 295 300 305 306 303 308 311 310 311 311 311 312 311 312 310 310 310 310 311 310 311 311 310 310 310 309 310 310 307 309 308 310 310 313 314 313 310 313
301 298 300 300 299 299 299 299 299 296 298 302 303 304 303 306 306 306 308 313 312 313 311 311 310 310 310 311 310 311 310 310 310 309 310 309 306 305 309 312 311 311 311 312 312 311 313
299 300 300 300 298 299 299 299 299 298 296 294 300 299 301 302 305 306 308 311 313 313 312 313 310 310 309 312 310 310 310 309 309 309 309 308 306 305 303 309 310 310 310 310 311 311 310
300 300 300 300 298 299 299 298 299 299 298 297 296 298 301 303 302 306 308 308 310 311 312 311 310 310 310 312 311 311 309 309 308 308 308 309 303 301 305 310 309 307 308 309 310 310 311
300 301 300 300 298 299 298 299 298 298 298 298 297 297 297 298 298 300 301 301 303 306 309 309 312 312 310 310 310 310 310 309 309 307 308 309 307 303 304 306 307 307 309 308 309 309 309
301 301 301 300 298 298 298 299 299 298 298 298 297 297 297 295 297 298 296 297 302 305 308 310 312 312 310 311 310 310 309 310 310 309 309 309 310 307 306 309 307 310 310 310 309 310 308
300 300 300 299 298 299 299 299 299 298 298 298 297 297 297 296 296 296 297 298 299 301 306 309 310 311 311 310 311 313 313 311 311 311 309 309 309 307 311 309 311 314 310 310 311 314 311
300 300 300 300 299 299 299 299 299 298 298 297 298 297 297 297 298 297 297 297 297 297 300 305 301 307 311 309 311 311 310 310 311 310 310 311 310 309 311 311 308 307 311 312 316 315 312
300 300 300 300 300 299 299 298 298 298 298 297 298 298 297 297 296 297 297 296 296 296 297 298 304 305 307 311 310 309 308 307 308 307 308 309 308 307 309 311 308 311 312 314 313 313 312
301 300 301 300 300 299 298 298 298 298 298 298 297 298 297 297 296 295 296 296 296 296 296 295 298 299 301 306 308 308 309 305 306 308 306 309 307 308 307 307 306 313 312 313 313 313 312

GFSGBSN_850_thetae_048.txt.gz
Theta_e
304 306 308 304 303 305 307 308 307 307 308 302 304 307 305 305 304 304 303 303 302 302 302 303 303 303 305 305 306 308 309 310 313 314 317 316 317 320 320 320 323 320 322 323 323 324 324
303 303 306 304 303 302 307 307 308 307 307 304 303 302 300 300 304 304 302 302 302 302 302 301 302 303 304 306 306 309 311 311 311 317 316 316 317 320 320 320 321 322 320 321 322 323 324
303 304 303 303 303 301 302 306 306 307 306 308 301 302 302 300 298 302 302 302 302 302 302 301 300 304 305 303 307 305 311 312 312 317 317 316 316 319 319 318 319 320 321 319 318 320 319
303 303 302 302 304 303 302 302 304 306 306 306 305 300 302 302 300 299 302 302 300 301 300 299 301 303 303 305 304 305 307 312 314 316 317 317 315 318 318 319 318 317 317 320 318 318 319
302 302 302 301 303 303 304 303 301 302 305 305 302 300 300 300 301 301 300 300 300 300 299 301 303 304 303 304 306 304 306 306 313 315 317 316 317 316 317 316 317 317 318 319 319 318 318
302 302 302 301 302 303 303 305 304 302 299 302 303 301 300 300 301 301 302 303 304 303 301 303 304 304 304 304 306 305 304 306 313 314 317 317 317 316 315 318 320 319 317 318 319 318 318
302 303 302 302 302 302 301 302 303 306 301 295 301 303 300 301 301 301 303 303 304 304 304 304 303 303 303 302 307 305 305 307 312 314 315 317 317 318 316 315 315 316 315 317 317 316 318
301 304 302 302 301 302 302 301 303 302 302 302 295 297 303 301 301 303 301 299 302 301 303 304 304 303 304 305 308 307 305 308 309 315 311 317 318 314 315 316 315 316 316 315 315 316 317
302 304 302 302 302 302 302 302 302 303 300 300 300 295 303 302 303 302 303 301 302 304 304 306 307 307 307 308 309 309 310 308 311 312 312 317 316 315 316 316 316 315 314 313 315 315 314
302 304 302 301 302 302 302 302 302 301 299 298 300 296 303 304 304 303 304 302 302 303 306 310 309 308 309 309 310 308 310 312 311 315 313 317 315 316 316 316 314 315 311 312 314 315 317
302 303 302 301 301 303 303 302 302 301 300 299 300 296 304 303 303 304 305 302 302 305 310 309 310 308 308 310 309 312 311 313 315 312 315 316 316 315 317 316 313 315 312 313 313 313 313
302 302 302 301 301 302 301 303 302 300 299 300 300 297 304 304 306 305 305 304 304 299 307 310 309 310 308 309 313 312 312 313 314 314 313 314 314 314 316 315 315 313 313 311 311 310 310
302 302 303 302 301 301 301 302 300 299 300 300 299 298 305 305 307 306 305 305 299 306 308 314 315 311 312 314 314 312 314 314 315 314 313 314 314 313 313 315 315 313 312 309 313 312 314
302 302 304 301 301 300 301 300 300 300 299 298 297 304 305 305 306 306 306 301 302 308 315 314 314 313 314 314 314 312 314 314 313 312 313 316 316 314 312 315 316 314 312 310 314 313 312
301 304 302 302 301 301 299 300 300 299 297 296 297 306 306 307 306 306 306 299 303 307 312 315 315 316 316 315 314 313 314 313 313 312 314 315 312 311 313 313 312 316 314 312 309 308 305
304 303 302 302 301 300 299 299 300 297 296 296 302 307 308 308 306 307 304 305 307 311 311 311 313 314 317 316 317 315 314 313 315 313 311 311 313 312 312 313 312 313 312 315 307 313 311
304 303 302 300 300 299 299 299 299 295 296 299 308 309 309 307 306 308 300 302 310 312 311 310 310 311 312 314 315 315 314 314 313 313 312 309 309 314 313 315 317 314 315 314 313 312 312
304 302 301 300 299 299 299 299 297 295 297 302 307 308 309 306 308 309 303 309 311 311 310 310 309 310 311 311 311 311 313 312 313 313 313 311 310 312 314 313 313 314 314 313 315 311 307
303 302 300 300 299 299 299 299 297 295 298 304 307 306 307 308 313 306 308 311 311 311 311 311 310 310 309 310 311 310 310 309 311 310 312 310 309 311 311 310 312 315 314 314 311 308 307
302 299 300 300 299 299 299 299 299 296 295 304 306 300 306 308 308 308 309 310 311 311 311 309 309 309 309 310 309 311 310 309 310 309 309 310 308 307 310 309 309 312 315 314 313 310 314
301 299 300 299 299 299 299 299 299 299 297 302 302 302 300 306 306 305 307 311 312 313 311 310 310 309 309 310 310 310 310 309 309 309 309 307 306 304 307 310 309 309 311 314 314 314 314
300 300 300 299 299 299 298 299 299 300 299 298 298 298 300 300 302 305 307 309 311 313 311 312 310 310 309 311 309 309 309 308 309 308 309 306 304 303 302 307 310 310 309 311 314 314 312
300 300 300 299 299 298 298 299 298 299 299 298 297 298 301 300 297 304 303 303 306 308 311 310 309 309 310 311 310 310 309 309 307 307 307 308 302 299 302 308 308 307 308 308 310 311 312
300 301 301 299 298 298 299 299 298 298 298 298 297 297 296 296 295 298 297 299 301 303 307 307 311 311 310 311 310 309 309 307 307 307 307 306 304 300 302 305 306 307 308 307 308 309 309
301 300 301 299 299 298 299 299 299 298 298 298 298 297 297 295 295 296 296 298 300 303 305 308 310 310 311 311 307 308 308 309 309 307 306 306 307 305 304 304 307 309 309 308 307 308 307
300 300 300 299 299 299 299 299 298 298 298 297 297 297 297 296 296 297 297 297 297 299 303 308 309 311 311 309 310 310 308 308 310 310 307 307 308 306 309 309 310 309 311 309 308 312 311
300 300 300 300 300 299 298 298 298 297 298 297 297 297 296 297 297 297 296 296 296 295 297 300 298 305 310 307 310 310 306 307 310 310 310 310 309 311 308 309 307 305 306 311 313 311 311
300 300 300 300 300 299 298 298 298 298 298 298 297 296 296 296 296 297 296 296 296 295 296 296 302 303 306 309 310 308 307 306 306 306 307 308 308 308 308 309 307 308 311 312 311 312 312
300 300 301 300 301 300 299 298 297 298 298 298 297 297 295 295 296 295 296 295 295 296 295 295 296 299 300 306 307 308 309 305 305 307 304 309 306 306 306 307 305 308 311 312 313 313 312

GFSGBSN_850_thetae_051.txt.gz
Theta_e
304 304 304 303 305 304 302 305 306 307 308 308 304 306 304 298 302 304 302 302 302 302 302 303 302 303 305 306 306 307 307 311 313 312 315 316 316 316 318 319 322 320 322 323 323 324 324
303 304 303 303 304 302 304 303 305 305 307 307 307 304 306 301 298 302 302 302 302 302 300 300 301 303 304 304 305 305 307 310 310 312 313 317 316 316 318 319 321 321 322 323 323 323 323
303 303 303 302 302 303 304 304 303 304 307 307 307 307 304 301 300 300 302 302 301 302 301 302 300 303 304 303 305 306 309 309 310 311 313 316 314 318 319 317 322 321 320 320 323 323 324
302 303 304 302 302 303 305 306 306 304 303 306 307 306 305 300 301 300 301 301 300 301 301 299 300 302 303 304 304 305 306 312 312 312 314 316 316 318 317 318 318 316 317 320 320 321 321
303 303 304 303 302 302 303 304 303 305 305 302 304 304 305 303 301 301 300 300 300 300 299 301 303 304 303 305 304 304 305 309 313 314 315 316 315 317 317 315 315 316 317 318 318 320 319
304 303 305 303 302 302 303 307 305 305 306 304 304 300 302 302 302 301 301 302 303 302 300 303 303 303 304 303 305 306 306 309 312 314 315 315 315 315 313 315 319 318 315 319 319 318 317
306 302 304 303 302 303 304 305 305 305 305 304 304 303 296 301 301 302 301 303 304 303 303 304 303 303 302 302 307 305 304 309 312 313 317 315 316 316 316 315 314 313 315 316 317 317 319
306 303 304 303 302 303 303 302 304 305 305 304 303 301 297 303 302 302 302 300 301 302 303 303 304 304 305 305 307 307 305 308 308 312 315 315 317 314 314 315 315 315 314 316 315 316 318
307 304 303 304 302 304 304 303 303 305 305 303 304 303 297 303 301 302 302 302 302 304 303 306 307 307 307 308 309 309 309 309 308 311 313 316 315 314 316 315 316 314 313 313 315 315 314
308 305 303 303 302 303 304 303 303 304 304 301 303 300 296 303 304 304 304 302 302 303 298 309 308 308 309 309 309 308 309 310 309 312 312 316 314 316 316 316 314 316 312 313 314 315 317
309 305 303 303 302 302 302 301 302 301 304 301 300 296 296 303 304 304 305 304 302 303 299 307 310 309 308 310 308 309 309 311 311 314 314 315 316 316 317 316 313 315 310 311 312 312 313
311 307 302 303 302 302 302 302 300 301 303 300 297 295 297 304 305 305 304 304 304 297 307 312 310 309 309 310 311 311 311 313 311 314 314 315 313 314 315 314 313 311 311 310 309 309 310
312 307 303 304 303 302 302 300 300 302 302 296 296 297 303 305 306 306 305 305 299 299 307 312 312 310 310 313 313 312 314 314 311 314 315 315 314 313 313 314 314 313 312 315 316 317 312
312 305 305 305 304 303 300 300 300 300 296 296 296 305 305 305 306 306 305 302 301 305 313 313 313 313 314 314 312 313 313 315 313 312 314 317 317 315 312 313 313 312 311 310 315 313 312
310 306 305 305 303 300 299 300 300 298 295 298 298 305 305 306 306 306 306 297 301 304 311 314 314 315 315 315 313 313 313 314 313 311 312 311 314 312 313 312 312 314 310 309 307 306 304
308 306 305 304 300 300 300 299 299 296 297 300 304 307 308 307 306 307 306 305 304 309 310 311 313 314 317 316 314 313 313 311 313 312 310 310 313 311 313 313 312 312 311 313 304 308 311
307 306 304 302 300 300 300 299 297 296 297 304 308 309 308 306 306 308 305 300 308 311 310 310 310 311 312 316 315 314 314 312 313 312 311 308 310 313 313 314 317 314 314 313 311 307 310
306 306 303 300 300 300 300 300 299 296 296 303 307 304 307 306 308 308 300 307 310 310 310 309 308 310 310 310 313 311 314 312 312 312 312 309 310 312 312 313 313 313 315 312 315 313 305
306 304 301 300 300 299 300 300 300 299 296 304 307 307 307 307 311 305 305 310 310 310 310 310 309 309 309 309 311 310 310 309 312 310 310 309 309 313 313 311 311 316 315 313 311 307 307
305 302 300 300 300 299 299 299 300 300 298 304 305 300 305 307 308 307 307 309 310 310 310 309 309 308 309 309 307 309 309 309 309 309 310 310 307 307 310 308 309 314 314 315 314 313 313
304 301 300 300 299 299 299 299 299 300 299 302 302 299 299 305 305 304 307 308 311 312 310 310 309 308 308 309 309 310 309 309 308 309 308 307 306 304 306 308 308 308 311 313 315 315 315
302 301 300 300 299 299 299 299 299 299 300 298 297 298 300 299 300 303 304 307 308 307 311 311 309 309 308 310 309 309 308 308 309 307 308 305 303 302 303 307 309 309 308 310 312 313 314
301 301 301 300 299 299 299 299 299 299 299 298 298 299 300 297 295 302 297 302 304 304 310 308 308 308 310 309 308 309 308 307 307 307 306 306 302 299 301 305 307 307 307 307 309 311 312
301 301 301 300 299 299 299 299 299 298 298 298 297 297 296 296 296 296 296 299 301 304 306 307 310 310 310 310 309 308 308 306 307 305 306 304 302 299 299 304 304 305 305 306 307 308 309
301 301 300 299 299 299 299 299 299 298 297 297 297 297 297 295 294 296 297 297 298 301 303 307 309 306 311 310 307 308 306 309 309 306 306 304 305 303 302 301 304 307 308 307 307 308 305
301 300 300 300 300 299 299 298 298 298 297 297 297 297 297 296 295 296 296 296 295 295 299 304 306 309 310 308 309 309 308 307 309 309 306 307 305 304 306 307 308 306 311 308 307 310 309
300 300 300 300 299 299 298 298 298 298 298 297 297 297 296 296 296 296 295 295 296 295 295 299 297 303 308 308 311 309 305 306 309 309 309 310 309 309 310 310 307 304 305 309 312 309 310
300 300 300 300 300 299 298 298 298 298 298 298 297 296 295 295 296 296 296 295 295 295 295 296 302 301 305 309 308 308 307 304 306 306 306 307 307 308 309 311 308 306 310 310 308 312 312
300 300 300 300 301 300 299 297 297 298 298 298 297 296 296 295 295 295 296 295 295 296 295 295 297 299 299 304 305 306 309 304 303 306 303 307 305 306 306 307 306 306 310 311 312 312 312

GFSGBSN_850_thetae_054.txt.gz
Theta_e
305 304 305 304 304 306 307 308 305 303 305 306 307 306 307 305 303 302 302 301 302 302 301 300 301 304 304 305 305 307 307 309 311 311 312 316 317 316 316 319 322 322 321 322 322 322 322
305 304 304 304 304 306 307 307 307 306 304 305 306 306 306 305 304 300 302 302 302 302 301 301 301 302 304 304 304 305 306 306 310 312 310 315 316 315 316 317 319 321 321 322 323 323 323
306 303 303 305 303 305 307 305 305 306 306 305 304 305 305 308 301 300 301 301 300 301 301 300 300 302 303 302 304 305 306 306 310 312 311 314 316 316 317 317 318 320 321 321 322 323 324
307 304 303 305 303 304 306 306 307 306 306 306 305 303 304 305 304 301 300 301 300 300 299 299 301 302 303 303 304 306 306 307 309 310 310 314 316 316 317 318 319 318 318 323 320 322 322
311 306 303 305 304 303 306 307 306 307 306 306 304 304 303 303 304 302 301 300 301 302 301 300 303 304 304 304 303 304 306 308 310 310 309 314 316 316 316 315 317 316 319 317 320 322 322
314 307 303 304 303 303 304 307 306 306 306 305 304 304 305 299 301 305 301 301 302 303 300 301 303 304 303 303 303 304 305 307 312 313 312 315 315 315 313 316 318 319 314 317 317 321 322
316 309 305 304 304 303 306 308 306 306 305 305 304 304 303 302 302 302 301 301 302 303 302 303 303 303 302 303 306 306 304 310 311 312 314 315 314 314 314 314 313 312 314 316 316 316 319
316 310 307 304 304 304 304 306 305 305 305 304 304 302 303 300 303 302 302 300 301 303 303 303 303 304 305 305 307 306 307 309 310 313 312 314 314 311 313 314 314 313 313 314 315 316 318
316 312 307 304 303 304 304 305 304 305 305 304 304 303 303 298 303 302 302 302 302 303 303 305 307 307 307 308 308 307 307 308 308 311 309 314 313 312 315 315 314 313 313 312 315 314 314
317 312 308 304 302 304 304 304 304 304 303 303 304 302 300 299 303 303 303 302 302 302 299 308 308 308 308 308 308 309 308 308 307 311 310 314 313 314 315 316 313 316 312 312 313 315 316
318 314 309 304 302 304 303 303 302 303 303 302 303 298 297 300 304 303 305 304 303 304 304 308 310 308 308 309 307 309 309 309 308 311 309 314 315 316 316 315 313 314 310 311 312 310 312
317 314 310 304 303 304 303 302 301 302 302 300 297 296 297 303 304 304 304 304 304 298 309 311 309 309 309 308 310 309 311 311 309 311 312 315 313 314 314 312 311 309 310 310 308 309 309
316 313 309 305 304 304 301 300 300 300 298 297 297 298 302 305 306 305 304 304 298 301 306 311 311 309 311 312 313 312 311 312 312 314 314 315 315 312 312 314 312 311 312 311 315 312 312
315 313 307 305 304 301 300 300 300 298 296 298 298 304 305 305 306 305 305 301 301 303 312 312 313 313 314 313 313 313 313 314 312 312 314 317 317 314 311 312 312 312 312 310 314 312 311
315 312 307 306 303 300 300 300 299 297 297 300 302 305 306 306 306 306 305 295 300 306 312 314 313 314 315 314 312 313 314 314 313 311 314 314 315 312 313 311 311 313 313 307 305 303 303
314 311 306 305 301 300 300 300 300 297 296 303 306 307 307 306 306 306 307 305 303 305 310 312 314 314 317 314 314 313 314 311 313 312 309 308 315 311 313 312 311 311 308 312 304 307 311
314 309 306 304 301 300 300 300 300 300 296 305 307 308 307 307 306 307 307 299 306 309 310 309 309 310 313 315 314 314 312 312 311 312 308 307 310 313 313 314 316 313 311 311 309 306 308
313 308 306 302 300 300 300 300 300 301 299 304 308 307 307 306 307 308 307 305 309 309 309 309 308 309 309 313 314 312 312 312 311 311 310 308 308 313 313 312 312 314 312 311 309 309 304
311 307 304 301 300 300 300 300 300 300 299 303 306 306 306 306 310 306 305 308 310 310 309 309 308 308 308 308 311 310 309 309 311 310 310 308 307 313 312 311 311 315 314 313 310 307 305
309 306 302 301 300 300 300 300 300 300 300 302 305 300 305 307 308 305 306 308 309 310 309 308 308 307 308 308 307 309 309 308 310 310 311 309 307 306 308 308 310 314 314 313 313 315 314
308 305 301 300 300 300 300 300 299 300 300 299 301 298 299 299 303 303 305 307 309 310 309 308 308 307 308 309 309 309 308 308 308 311 309 309 308 304 306 306 308 310 311 313 314 313 314
307 302 301 300 300 300 300 300 300 299 300 300 297 297 300 297 297 302 302 307 305 305 309 310 309 308 307 308 308 309 308 308 309 307 306 304 305 303 305 306 307 308 307 309 312 313 314
306 301 301 300 300 300 300 300 299 299 300 299 298 299 300 295 295 301 296 300 303 304 307 307 308 308 308 309 309 308 307 306 306 306 306 306 302 299 301 304 306 306 306 307 308 310 311
304 301 301 300 300 300 299 299 299 299 299 299 298 297 295 296 295 295 296 298 299 301 305 307 308 308 309 309 308 307 306 305 306 304 305 303 301 298 299 302 302 304 304 305 306 306 307
302 301 301 300 300 300 299 299 298 298 298 298 298 298 297 295 294 296 296 296 297 298 301 307 307 304 309 308 307 307 306 308 308 306 306 303 303 302 302 301 303 305 307 306 307 307 305
301 301 301 300 300 299 298 298 298 298 297 298 297 296 297 296 295 296 295 295 294 293 297 303 305 307 308 306 308 308 307 307 308 308 306 306 303 303 305 304 306 304 309 307 306 308 308
301 301 300 300 299 299 298 298 298 298 297 297 296 296 296 296 296 296 294 295 296 294 293 298 297 304 307 308 311 309 305 305 308 308 308 308 309 305 307 310 307 304 305 307 311 307 310
301 301 300 300 300 299 298 298 298 298 298 297 296 296 296 296 296 296 295 295 295 295 294 295 301 301 304 308 308 307 306 303 304 305 306 306 305 306 307 310 307 305 308 310 307 310 311
301 300 301 300 300 299 298 298 298 298 298 296 296 296 295 295 295 295 295 295 295 295 295 295 297 300 298 304 304 306 308 305 301 305 302 306 304 305 304 305 305 305 308 309 309 309 311

GFSGBSN_850_thetae_057.txt.gz
Theta_e
310 308 306 305 306 304 306 308 308 308 307 306 305 305 306 307 305 306 304 304 304 304 300 300 300 303 304 304 304 306 307 308 310 310 313 316 317 315 316 319 322 321 322 322 322 322 322
313 310 306 305 307 303 305 306 308 307 307 306 307 305 303 305 306 304 303 302 303 301 301 302 301 302 303 304 303 303 304 307 307 310 312 313 316 316 316 320 320 321 321 321 322 322 323
315 312 307 306 306 306 304 306 308 307 307 306 306 304 305 303 304 305 302 304 303 300 300 300 299 301 301 302 303 303 304 305 307 308 311 312 315 315 316 316 319 320 321 321 322 322 324
318 314 309 305 306 306 305 305 307 307 306 306 305 305 305 305 303 305 304 302 303 299 299 299 300 302 303 303 303 305 305 305 307 310 311 310 316 315 316 317 318 318 319 323 322 322 322
319 316 311 304 306 306 305 306 307 306 305 305 305 305 304 304 303 302 305 301 302 302 302 299 301 303 303 303 303 304 306 306 308 309 311 310 314 315 315 318 318 317 321 319 321 322 322
320 317 313 306 306 306 305 306 307 306 305 305 305 304 303 304 303 302 303 301 302 302 302 301 302 303 303 302 303 305 306 307 309 310 312 311 313 316 314 318 318 319 318 317 320 323 322
320 318 314 308 306 306 304 305 306 305 305 305 304 304 303 304 300 302 303 301 303 302 302 302 302 302 303 303 305 306 305 307 310 312 312 311 311 316 317 313 313 314 316 317 316 320 323
319 320 315 310 308 306 305 305 306 305 305 304 303 303 303 303 302 303 302 301 301 303 303 303 302 303 305 305 306 305 308 308 311 312 309 308 313 312 314 313 313 316 314 316 314 317 320
321 320 317 311 308 305 305 305 304 305 304 303 303 303 303 303 301 303 302 302 302 302 303 305 306 306 306 307 308 306 308 308 311 311 308 312 313 311 315 314 314 312 316 313 315 315 314
321 318 317 312 308 304 305 304 302 304 304 303 303 303 299 299 304 303 303 303 302 302 297 307 308 308 308 308 307 308 309 308 309 310 310 314 312 312 315 315 313 316 311 313 314 316 320
322 318 317 313 307 304 305 302 302 304 303 303 302 300 299 297 304 303 304 304 303 303 303 306 309 308 308 308 308 308 309 308 309 310 311 314 313 314 316 316 313 314 311 312 311 312 313
321 318 317 312 305 305 303 301 301 302 301 300 298 298 298 302 304 304 304 304 304 299 307 310 309 308 308 307 310 309 311 309 309 311 311 313 313 314 314 312 311 309 310 310 308 310 315
320 319 316 311 306 305 301 301 301 299 297 298 299 303 304 305 305 305 304 304 299 300 305 311 311 310 311 312 312 312 311 309 311 313 314 315 315 312 312 313 311 311 312 317 318 317 315
319 318 315 310 307 304 300 300 300 299 296 300 302 305 306 306 306 305 305 302 303 307 312 312 312 312 313 312 312 312 311 311 310 312 313 317 316 315 312 312 314 312 313 312 315 315 314
318 318 314 310 307 303 300 300 301 299 295 302 305 306 306 306 306 306 305 295 307 308 312 312 312 312 314 313 313 314 314 314 313 310 315 316 316 313 312 311 311 313 313 306 306 303 308
318 318 313 310 306 301 300 300 300 300 297 303 306 307 306 306 306 306 306 305 306 305 309 313 313 313 313 313 314 314 313 312 313 312 308 309 316 313 313 312 311 311 308 314 308 310 313
319 317 313 308 305 301 301 300 300 300 298 305 307 307 306 307 307 307 309 305 306 308 309 309 309 311 314 315 312 313 312 311 311 311 307 307 310 313 313 315 315 312 311 310 310 308 312
320 316 312 308 303 301 300 300 300 300 299 305 308 307 305 307 307 308 309 307 309 309 309 308 307 309 311 313 314 311 311 312 311 311 310 308 310 313 314 311 312 312 311 310 312 310 306
320 315 309 307 302 301 300 300 300 300 300 303 307 305 305 306 308 308 306 308 309 309 308 308 308 307 307 308 310 310 309 309 311 309 309 308 307 313 313 311 310 314 314 311 308 306 306
319 314 308 305 301 301 300 300 300 300 300 304 306 299 305 306 306 305 307 307 308 309 308 307 307 306 307 307 306 308 309 309 310 311 310 308 306 306 310 308 309 313 314 314 314 316 314
317 311 307 303 301 301 300 300 301 300 300 299 302 299 300 298 302 303 305 305 308 308 308 308 307 307 307 308 308 308 308 308 308 311 309 308 307 303 307 307 309 310 311 313 313 313 314
315 310 306 302 301 300 300 300 300 300 300 298 297 298 299 296 297 301 302 306 304 304 307 309 308 307 306 308 307 309 307 307 308 306 309 304 306 303 304 306 307 308 307 309 311 312 313
315 309 304 302 301 300 300 300 300 300 299 299 298 300 299 295 295 302 298 300 305 304 307 307 307 307 308 308 306 308 306 305 305 305 305 305 302 301 304 304 305 306 307 307 308 309 311
312 308 302 301 300 300 300 300 300 299 299 299 299 298 298 296 295 296 296 298 299 301 304 307 306 308 307 308 307 306 305 305 305 303 304 303 302 302 300 302 304 304 303 305 306 306 307
310 306 301 301 300 300 300 300 299 299 299 299 299 299 297 295 294 296 295 295 296 298 300 306 306 303 308 307 307 307 306 308 306 305 304 302 302 302 303 302 303 305 307 305 306 308 304
308 303 302 301 300 300 300 299 299 298 298 297 297 298 298 296 294 295 295 294 293 293 298 303 305 306 308 306 307 308 307 307 308 307 305 305 303 304 304 304 306 303 307 307 305 308 307
306 302 302 300 300 300 299 299 299 298 297 298 297 296 297 296 295 295 294 294 295 294 293 296 297 303 307 305 310 309 305 304 307 306 307 307 308 306 306 306 306 303 304 305 309 307 308
307 302 301 300 300 299 299 299 298 297 297 298 298 297 296 296 295 295 295 295 295 294 293 295 300 301 304 308 307 307 306 302 303 304 305 306 305 306 306 307 307 304 307 309 305 306 306
303 302 301 300 299 299 298 298 298 297 297 297 297 297 296 296 295 295 295 295 295 295 296 295 298 300 298 305 304 306 307 306 301 304 299 306 303 304 304 305 303 304 305 304 302 299 301

GFSGBSN_850_thetae_060.txt.gz
Theta_e
317 312 309 307 306 307 306 306 308 307 307 307 307 306 306 305 307 307 303 303 304 303 301 300 300 301 304 306 305 305 307 307 308 307 310 314 317 317 317 319 322 324 324 324 323 323 323
317 317 313 308 306 306 307 306 307 306 307 307 307 306 305 305 304 307 305 303 303 301 300 300 300 300 303 304 303 303 303 306 307 308 310 314 317 316 315 318 322 322 323 323 323 323 323
317 318 316 311 308 306 306 306 307 308 307 306 306 305 305 305 304 303 306 303 302 302 299 299 300 301 303 302 303 304 303 303 306 307 310 313 316 316 316 318 318 320 323 323 323 322 321
319 318 319 314 309 307 306 306 307 307 307 306 306 306 305 305 304 301 303 306 301 301 300 300 302 303 304 302 303 304 305 304 305 307 309 310 315 316 316 317 319 319 321 324 322 322 322
321 320 319 318 312 308 307 305 307 307 306 305 306 305 304 304 304 303 302 305 302 301 302 303 303 304 304 303 304 304 305 307 306 308 308 312 311 316 317 318 320 320 319 321 323 322 324
321 321 319 318 315 310 308 305 307 307 306 305 304 304 304 304 304 302 302 303 301 301 302 301 301 304 304 302 304 305 306 306 308 309 309 310 308 316 317 318 319 319 319 319 321 324 324
323 322 320 319 317 312 309 305 306 306 305 304 304 304 304 303 303 302 303 302 303 304 303 303 302 303 303 304 305 306 306 308 308 310 313 311 310 317 316 315 314 315 318 320 320 323 324
324 324 321 320 316 314 310 306 305 305 304 304 303 303 303 303 302 303 303 302 301 303 305 303 303 303 305 305 306 306 307 308 310 312 311 312 314 310 315 315 315 316 316 318 319 323 323
323 324 322 320 316 315 309 306 305 303 304 304 303 303 303 303 301 303 302 302 302 303 306 306 306 306 306 307 308 306 308 309 310 312 312 312 313 312 316 315 317 317 317 319 319 323 321
324 324 320 320 317 315 309 306 302 302 302 304 303 302 303 303 304 303 303 302 302 302 309 309 308 308 308 308 308 308 308 308 310 311 312 313 312 313 317 315 316 318 317 318 321 321 320
324 324 319 319 318 314 308 305 301 300 301 303 300 303 303 301 304 303 304 304 303 304 315 308 309 307 308 308 308 308 307 309 311 311 312 314 314 316 318 316 315 316 315 317 318 316 317
324 323 320 318 317 312 308 303 300 301 299 298 299 302 299 301 304 304 304 304 304 310 313 311 309 309 308 308 310 309 310 310 310 311 311 314 312 314 315 315 314 313 315 315 316 316 318
325 323 320 318 317 311 308 302 301 301 297 298 302 304 306 305 305 305 304 305 310 313 308 311 312 309 309 310 310 311 311 311 312 313 313 315 315 314 314 315 313 315 317 319 318 320 318
325 323 320 318 316 311 306 301 300 300 298 300 304 306 306 305 305 305 305 307 314 310 312 312 312 313 313 312 311 311 310 312 312 313 314 316 317 315 314 315 316 316 315 317 316 316 316
325 323 321 319 315 310 305 301 300 300 299 302 305 306 306 306 305 306 307 312 313 310 313 312 313 312 316 313 312 313 312 313 313 312 316 317 315 313 314 313 314 316 317 311 314 310 316
325 324 322 319 314 309 303 301 300 300 299 304 306 306 306 306 306 306 309 309 310 306 310 313 314 313 314 314 314 313 314 312 312 312 311 314 317 315 313 314 313 315 313 316 317 318 316
324 324 321 318 314 308 302 301 300 300 299 305 307 307 306 306 306 307 311 309 308 310 310 310 312 314 312 314 314 314 314 311 312 312 310 311 315 315 315 317 317 315 316 315 315 315 316
325 323 320 318 313 307 302 301 300 300 300 305 307 308 306 307 308 309 311 308 309 310 309 309 311 311 313 313 313 312 314 313 313 310 312 310 315 317 317 313 314 314 316 316 317 317 315
324 323 321 317 311 305 301 301 301 300 300 305 307 305 306 306 311 310 307 309 309 311 309 309 310 309 309 312 314 312 312 310 311 311 312 311 314 316 315 313 313 316 316 315 314 314 317
324 323 320 315 309 303 301 301 301 300 300 303 306 307 306 306 306 307 309 310 311 309 309 308 309 308 309 310 310 312 312 310 311 312 309 310 311 314 316 315 314 315 315 315 315 318 316
323 322 319 313 308 303 301 301 301 300 300 303 303 305 304 307 306 307 308 308 311 311 310 309 310 309 309 311 311 311 311 311 311 310 311 312 314 310 309 311 313 313 314 314 316 315 316
322 320 317 311 305 302 301 301 301 300 300 299 299 302 300 299 300 306 307 308 308 307 310 311 311 310 309 311 310 311 311 311 313 311 313 310 313 309 309 308 309 311 312 313 314 314 314
321 320 315 309 303 301 301 301 301 300 299 300 299 299 301 297 302 307 304 304 306 306 308 308 309 310 311 309 307 308 307 306 309 312 311 312 311 312 313 307 308 310 309 310 311 312 313
320 318 312 307 302 301 301 300 301 300 300 299 300 301 300 301 302 302 299 301 305 304 306 308 306 310 305 306 306 306 306 306 307 306 307 309 310 310 312 308 312 307 305 307 309 309 309
320 316 309 304 302 301 301 300 301 300 300 299 299 299 299 299 299 298 298 298 298 301 303 305 305 303 307 307 310 311 311 310 308 308 307 307 309 310 312 311 309 310 309 309 310 312 309
319 313 305 302 302 301 301 300 300 299 299 298 299 299 298 299 298 296 297 296 300 301 305 304 304 307 307 310 311 311 312 310 311 309 307 306 308 310 309 311 310 309 309 307 308 313 309
318 309 303 302 301 301 300 300 299 298 299 299 298 298 299 297 295 295 298 298 296 296 301 299 298 304 307 311 312 311 310 307 311 310 311 310 310 311 311 310 309 307 306 306 312 311 306
317 308 302 302 301 300 300 300 299 299 299 299 298 297 298 296 295 295 295 295 295 295 301 296 302 303 306 310 311 311 310 307 308 306 309 310 310 310 310 311 310 305 308 310 305 302 301
312 303 302 302 301 300 299 300 298 298 299 298 297 297 297 296 295 295 295 295 295 296 296 296 300 300 300 305 307 307 308 308 308 310 304 310 307 309 309 309 304 303 305 302 298 298 299

GFSGBSN_850_thetae_063.txt.gz
Theta_e
318 318 318 318 314 308 307 308 307 308 307 308 307 308 306 306 305 305 307 305 305 304 302 300 300 299 304 306 306 306 306 306 308 310 309 308 315 318 319 319 322 325 324 324 323 323 323
321 319 319 319 317 311 309 307 306 307 308 307 307 307 307 305 305 305 305 308 304 305 302 300 300 299 304 305 305 304 305 304 307 309 306 309 314 317 317 317 321 323 322 324 324 324 323
322 321 320 319 318 314 308 308 307 307 308 307 307 307 307 305 305 305 305 305 307 303 304 299 299 305 305 305 304 304 305 306 307 309 309 308 313 316 317 317 317 322 322 323 325 324 324
324 323 322 321 319 316 309 308 308 307 308 307 306 306 306 304 304 305 304 303 306 304 303 302 301 305 305 304 304 305 305 306 305 308 307 312 312 312 317 316 318 321 323 323 324 324 323
325 324 324 322 321 319 312 308 307 306 307 306 305 305 305 304 304 304 303 303 305 303 302 303 305 305 305 305 305 304 305 306 307 308 307 310 310 311 317 318 319 320 323 323 323 322 323
323 324 324 324 322 319 315 310 307 306 306 306 305 304 304 304 304 304 303 303 302 301 303 304 304 305 306 304 304 306 306 307 308 308 309 310 307 312 319 319 321 319 319 320 323 323 322
322 325 324 325 322 320 316 312 307 306 305 305 305 303 304 304 303 303 303 306 307 307 305 306 304 304 305 305 306 307 307 308 308 310 309 307 307 319 318 317 316 316 316 316 319 321 322
321 326 325 325 323 320 317 313 307 306 303 304 304 303 303 303 303 303 304 306 304 305 308 305 305 305 305 305 307 307 308 308 309 311 311 311 313 316 316 316 315 316 317 319 319 322 322
322 325 325 324 322 321 317 313 307 305 301 304 303 303 303 303 303 303 305 304 302 303 308 308 308 307 308 308 308 308 307 309 310 311 313 313 313 313 316 316 315 316 317 320 321 320 322
320 326 324 324 321 320 317 313 307 303 301 301 302 302 303 303 304 305 305 303 302 302 310 310 309 309 309 309 309 308 308 309 307 313 313 314 313 314 316 315 315 315 315 316 318 321 321
319 323 325 324 321 319 317 312 307 301 301 299 298 301 303 302 305 306 305 304 304 305 317 310 309 308 309 309 308 308 308 311 312 312 312 314 314 312 318 316 315 316 316 317 320 320 318
319 323 325 325 321 319 317 311 305 301 301 297 300 303 300 300 304 305 304 304 305 310 314 312 310 309 309 310 310 310 311 311 311 311 311 314 313 313 317 316 315 316 318 318 318 317 319
320 322 326 325 322 319 317 311 303 301 301 299 304 306 306 305 307 305 304 306 313 315 310 312 313 309 310 311 311 311 312 312 313 314 313 314 313 313 316 317 316 315 317 318 318 320 319
320 321 325 324 322 319 316 310 302 300 301 301 306 306 305 305 305 304 307 309 315 312 313 312 313 311 313 313 312 311 312 312 312 311 315 319 318 315 315 316 317 316 315 317 317 317 317
320 321 325 325 322 319 315 309 302 300 300 303 306 306 306 306 305 306 308 315 314 313 313 312 314 315 311 312 312 312 312 313 312 314 316 319 316 315 315 315 316 317 318 314 316 315 317
320 320 323 324 323 319 314 307 302 301 300 304 307 308 308 306 306 306 311 311 313 310 311 314 314 314 318 314 314 314 314 313 313 313 313 316 318 315 315 315 315 316 315 315 317 318 314
320 320 323 325 322 319 313 305 301 301 300 305 308 308 307 306 306 309 314 312 311 311 311 312 313 313 313 314 315 315 314 313 313 313 313 315 316 316 316 317 317 316 316 316 316 317 319
320 320 323 323 321 319 311 303 301 300 300 305 309 309 307 306 310 310 313 311 310 311 311 311 313 314 313 314 313 314 315 314 313 312 314 313 316 317 318 315 316 316 316 316 317 318 316
319 320 323 322 322 318 309 302 301 300 300 306 309 306 306 306 312 312 310 311 311 312 311 311 313 312 311 314 315 313 314 312 313 312 313 313 317 318 317 315 315 317 316 316 316 316 318
319 319 322 321 321 316 306 302 301 301 300 306 308 307 306 307 308 310 312 312 312 311 310 310 311 311 311 313 313 314 314 313 313 313 310 311 315 316 318 317 316 316 316 316 316 319 316
319 319 321 321 319 312 304 302 301 301 300 304 306 309 308 308 309 309 311 311 312 312 311 310 311 311 312 313 314 314 313 312 313 312 313 314 316 312 312 313 315 315 315 316 317 316 317
320 320 321 320 319 310 303 301 301 300 300 303 303 305 304 308 307 310 310 312 312 311 312 312 312 312 311 313 312 313 313 313 314 313 314 312 314 312 313 311 311 313 313 314 315 315 316
318 320 319 320 315 307 302 301 301 300 299 301 299 302 305 303 307 310 310 311 310 310 310 311 311 312 312 310 309 309 310 309 312 314 314 314 312 314 316 310 310 311 311 312 312 313 313
315 319 317 318 312 304 302 301 301 300 300 300 300 303 304 306 308 309 305 307 307 307 310 310 309 312 307 306 307 308 309 309 310 310 311 313 313 313 314 310 313 308 307 308 309 310 310
316 318 318 316 307 303 301 301 300 300 299 299 300 301 303 305 305 302 303 304 305 304 307 309 307 305 306 308 312 312 312 311 310 310 310 310 312 313 314 313 311 311 310 310 311 312 311
313 317 317 314 303 303 301 301 300 300 299 299 299 300 302 303 303 302 302 303 307 309 308 307 305 308 310 312 312 311 312 312 312 311 309 309 310 311 311 312 311 312 309 309 309 313 308
311 315 316 309 302 302 302 300 300 299 299 299 299 299 301 300 297 298 302 302 299 303 309 305 304 308 309 312 312 311 311 309 312 311 311 311 311 312 312 311 311 308 308 308 311 311 305
307 314 315 307 302 302 301 300 299 299 299 299 299 299 300 299 297 297 297 298 298 299 306 301 305 307 309 312 312 312 311 309 310 310 310 311 311 310 310 311 311 306 309 310 306 304 302
308 315 313 305 301 301 301 300 299 299 300 299 298 298 299 298 297 295 295 296 296 297 299 301 304 304 304 308 309 309 309 309 310 311 307 310 309 310 310 311 307 304 306 304 302 302 302

GFSGBSN_850_thetae_066.txt.gz
Theta_e
323 323 321 320 319 319 318 312 310 308 307 309 308 307 307 308 307 305 305 304 308 305 305 302 300 299 299 307 307 307 305 305 306 307 310 311 310 315 318 318 319 322 324 324 324 324 326
324 324 323 322 321 321 319 316 311 308 308 310 309 307 307 308 307 305 305 304 306 309 304 305 300 299 306 305 305 305 305 305 306 308 309 308 309 313 315 317 319 322 323 324 324 324 325
323 324 324 323 323 322 321 318 311 309 308 309 308 307 306 307 305 305 304 305 303 308 306 303 303 301 306 305 305 304 305 306 306 308 309 307 308 310 315 316 317 321 323 322 322 324 324
322 322 323 324 323 323 321 318 313 310 309 308 308 306 306 305 304 304 304 304 304 306 307 302 302 304 305 305 304 304 305 306 306 308 308 308 308 311 313 317 316 320 322 324 320 323 324
321 322 323 324 323 323 322 320 314 311 309 307 307 306 305 304 304 304 304 303 302 305 304 302 304 305 305 305 305 304 305 306 306 308 308 307 310 311 313 317 317 319 324 323 318 317 324
320 322 321 322 324 324 323 321 316 312 308 306 306 305 304 303 304 304 303 302 303 302 305 306 305 304 306 305 306 305 306 307 307 308 308 307 307 310 311 318 319 319 321 322 320 318 320
319 322 321 323 326 325 324 321 317 313 308 305 304 305 304 304 303 302 303 305 307 306 307 307 306 306 305 305 306 306 307 307 308 308 309 307 310 313 311 316 316 317 319 321 320 321 321
319 321 322 321 323 324 324 320 319 314 309 303 302 304 304 303 303 303 302 306 305 305 307 307 306 306 306 306 307 307 309 308 309 309 309 309 310 311 313 315 316 316 317 318 320 322 322
321 320 322 320 323 325 324 320 317 314 308 302 301 303 302 302 303 304 304 307 304 305 308 308 308 308 308 308 308 308 308 308 309 308 309 314 311 311 316 318 316 315 315 317 321 322 322
323 321 321 321 322 325 323 320 317 313 306 301 300 299 302 303 304 305 305 305 303 304 309 311 310 309 309 309 309 308 307 309 308 309 312 313 311 315 316 316 315 317 317 319 320 321 322
319 324 320 322 320 325 324 320 317 312 304 301 299 300 303 303 305 306 306 304 304 306 316 310 310 308 310 309 308 309 308 309 310 312 313 314 313 315 318 315 315 315 315 317 318 319 318
312 321 322 321 320 324 324 320 317 310 303 301 300 304 301 301 305 306 305 304 306 309 312 312 310 309 310 310 311 309 311 310 311 313 314 314 312 313 316 316 316 316 317 317 318 318 315
310 314 322 321 320 323 322 319 316 309 302 301 304 306 306 306 307 305 304 306 311 314 310 313 312 309 311 312 312 311 312 313 313 314 314 314 312 313 315 317 316 317 316 316 316 314 315
308 311 316 322 321 322 321 319 314 306 302 301 306 306 305 306 305 305 307 309 313 311 313 313 312 312 313 312 311 311 311 312 312 313 314 317 315 315 316 316 316 317 315 316 316 315 316
309 309 314 322 321 321 323 318 313 304 301 301 306 306 306 306 305 306 307 312 313 313 313 312 313 312 310 311 312 312 313 313 311 314 316 316 316 315 316 315 316 315 316 313 316 314 315
308 308 312 320 321 321 321 318 313 302 301 303 307 307 307 306 306 307 310 311 312 311 312 313 315 314 316 312 313 313 314 313 313 313 314 315 315 315 315 315 315 317 314 315 313 315 315
306 307 308 312 321 321 321 317 310 302 301 305 308 309 308 306 306 308 312 312 311 311 311 312 314 313 313 312 313 314 314 313 313 312 313 315 314 315 316 316 316 315 316 316 316 314 318
303 304 308 311 320 320 321 316 307 301 300 305 308 310 307 306 308 309 312 310 311 312 311 312 313 312 314 314 313 315 314 314 313 313 314 313 315 318 317 315 315 316 315 315 316 316 313
302 306 311 314 320 320 320 316 303 301 300 306 308 307 307 306 311 312 311 312 312 312 311 311 313 312 312 314 314 315 314 312 312 313 314 314 315 316 316 315 315 317 316 316 315 315 316
301 304 308 317 320 319 319 313 302 301 301 307 307 306 307 307 308 309 312 312 312 311 311 310 311 311 312 313 313 314 313 313 313 313 311 311 315 315 317 315 315 315 316 316 316 313 316
300 303 311 320 320 318 318 309 301 300 300 308 308 308 307 307 308 310 311 312 312 312 311 310 311 312 312 313 313 313 313 313 313 312 312 313 315 309 312 313 314 315 315 315 314 315 314
298 301 314 320 319 318 317 308 300 300 300 305 306 307 307 309 309 309 310 312 311 312 312 311 312 311 311 313 312 313 312 313 313 312 314 312 311 310 309 311 311 312 312 313 314 315 315
298 304 306 317 319 318 313 302 300 300 300 304 303 305 306 308 308 309 310 311 312 311 311 311 312 312 312 310 309 309 310 310 312 313 314 314 309 309 313 310 309 309 310 311 313 313 313
300 302 310 315 319 317 309 301 301 300 300 301 301 303 305 305 307 309 309 309 309 309 310 310 310 312 308 307 308 309 309 310 310 310 312 313 312 309 308 309 309 308 307 308 309 310 310
300 303 307 313 316 313 304 301 300 300 300 301 300 304 304 305 306 305 306 308 306 307 308 309 307 306 307 309 311 310 310 310 310 309 310 309 312 310 310 309 309 310 308 309 311 312 308
304 306 308 312 314 310 303 301 300 300 299 299 300 303 304 304 302 304 304 307 307 308 307 308 306 308 310 311 311 311 312 311 311 310 309 309 309 309 309 309 311 310 308 308 309 312 306
299 308 308 310 310 305 303 301 300 300 299 299 299 302 303 300 298 301 302 303 301 306 308 307 306 308 310 311 312 310 310 309 311 310 310 309 309 308 309 308 309 308 308 308 310 307 304
299 300 305 309 305 303 301 301 300 299 299 298 299 301 302 298 297 298 299 299 300 301 305 301 306 307 309 312 312 311 310 308 309 310 310 309 308 308 309 310 306 305 308 309 303 304 303
302 302 304 305 302 301 302 301 299 298 298 298 299 300 300 299 296 296 297 297 298 298 300 302 305 305 305 308 308 307 308 308 309 309 307 308 307 308 309 308 305 304 305 303 302 301 301

GFSGBSN_850_thetae_069.txt.gz
Theta_e
323 323 323 323 323 324 323 322 320 317 313 309 310 310 308 307 307 307 305 305 305 305 309 305 305 300 299 305 306 307 305 305 305 306 307 309 310 311 315 317 317 320 321 322 322 324 324
320 321 322 323 323 323 324 323 321 318 313 311 310 309 308 307 306 306 305 304 305 302 308 308 304 303 301 306 304 305 304 303 305 307 307 310 309 311 314 316 317 319 320 322 324 324 324
313 316 320 322 322 323 323 323 322 320 315 312 309 309 307 306 306 305 305 304 305 302 306 308 303 304 303 302 304 305 304 304 305 306 307 306 306 308 311 315 316 317 321 321 324 323 323
319 313 314 321 322 323 322 323 322 320 317 313 308 308 306 306 305 304 304 304 304 302 305 307 304 303 303 304 305 305 303 305 305 306 308 307 306 308 311 313 315 316 320 324 321 324 323
324 320 315 319 323 322 322 324 323 321 318 314 307 307 306 305 304 304 304 303 302 302 305 303 302 305 305 305 305 305 304 304 306 306 307 306 307 311 313 314 317 317 321 322 320 321 322
321 322 320 317 321 322 322 325 323 321 318 315 307 305 305 305 304 304 303 302 302 303 305 304 305 306 305 305 305 305 305 306 307 306 307 306 306 310 311 316 319 318 319 321 321 318 321
317 320 321 319 320 322 321 323 325 323 319 313 307 302 304 304 304 303 303 305 307 307 307 306 307 306 305 305 305 306 306 307 307 307 308 307 309 312 311 311 314 315 317 321 319 317 318
313 315 319 321 321 321 322 322 323 323 318 311 306 301 301 302 302 303 303 306 305 305 305 306 307 306 306 306 306 307 307 307 307 308 308 308 310 311 311 312 314 317 319 320 320 319 318
307 312 314 319 321 321 322 321 322 322 317 310 304 301 299 301 303 304 303 306 305 303 306 308 307 308 308 308 308 308 308 308 308 309 309 311 311 311 312 314 317 317 319 320 320 320 320
299 303 310 313 319 322 322 321 320 321 317 309 302 300 299 301 304 305 305 305 304 304 307 310 310 309 308 308 308 307 307 308 308 309 307 311 312 314 313 316 317 315 314 318 321 321 323
302 303 304 310 313 319 322 321 320 319 318 306 301 300 302 302 305 306 306 305 304 306 305 310 310 308 309 309 308 308 308 307 308 310 312 312 313 316 316 317 316 316 317 319 321 319 318
302 303 304 305 309 315 319 321 319 318 317 304 300 303 302 302 305 306 305 304 306 308 300 312 309 309 310 310 310 308 310 308 308 313 312 311 311 314 315 316 315 316 317 316 317 317 314
302 302 302 305 309 312 313 321 320 319 315 304 301 306 306 306 306 305 305 306 310 310 308 313 311 309 311 312 312 312 312 312 311 311 314 312 313 312 315 315 315 315 314 316 316 314 316
301 302 303 306 309 310 313 317 320 319 314 301 305 306 306 306 306 305 306 306 310 309 313 312 311 311 312 311 311 311 311 310 311 312 313 310 312 314 315 314 315 314 313 313 316 313 314
300 301 302 303 308 309 313 318 320 318 305 301 306 305 305 305 305 306 307 310 308 312 313 313 312 310 309 310 311 311 312 311 311 312 316 316 316 313 315 314 313 316 310 311 311 310 310
299 301 301 299 304 309 312 319 318 315 305 301 306 306 306 305 306 307 308 310 311 311 311 313 315 313 313 310 311 312 313 312 312 312 313 314 316 315 315 314 313 314 313 311 308 309 314
298 299 301 299 302 307 308 315 318 311 309 304 307 308 307 306 306 308 310 310 310 311 311 312 313 312 310 312 312 313 313 312 312 311 311 313 312 313 313 315 315 315 315 315 313 312 315
297 298 301 299 301 307 308 310 318 308 310 306 308 306 307 306 307 308 310 310 310 311 311 312 313 313 312 312 313 314 313 313 313 312 313 312 312 313 315 313 313 315 316 315 314 315 311
297 297 300 300 304 305 309 310 317 312 312 307 308 307 306 306 305 309 311 310 311 311 310 311 313 311 314 312 314 314 312 313 312 312 312 312 309 314 311 311 313 316 315 315 313 312 313
296 297 299 300 305 308 312 312 316 306 304 307 306 306 306 306 306 307 309 311 312 310 310 310 310 310 311 312 313 313 312 312 312 312 311 311 312 308 309 310 312 315 315 315 312 307 314
296 298 297 299 308 311 312 314 315 304 303 308 307 304 305 307 305 306 309 310 312 311 311 310 310 311 311 313 313 313 312 313 312 311 311 311 310 306 311 311 313 314 314 315 312 313 312
296 298 298 301 303 307 312 314 306 305 306 308 308 306 306 304 306 305 307 310 312 311 311 310 311 310 310 311 310 312 311 313 312 311 313 309 308 306 306 310 310 311 311 312 313 313 314
297 297 299 301 304 308 310 313 312 301 302 307 305 306 307 306 304 305 307 309 312 310 310 309 310 309 309 308 307 308 309 310 310 310 312 310 305 303 307 308 307 307 307 310 312 312 312
297 297 299 300 303 308 310 308 305 301 302 304 304 305 305 304 303 306 308 309 310 307 310 308 308 309 307 307 308 309 309 309 309 308 311 310 308 305 303 306 305 306 306 307 309 309 308
298 297 299 305 306 307 308 306 302 300 301 302 303 305 304 302 303 306 306 305 306 307 307 307 306 306 307 308 308 308 308 309 309 307 309 309 309 307 307 305 308 309 308 308 310 309 306
297 297 300 308 307 308 305 303 301 300 299 301 301 303 304 302 299 300 304 305 304 305 306 306 307 308 309 308 309 309 309 309 309 309 307 307 306 305 306 306 310 308 307 308 307 310 304
296 297 300 300 307 306 305 302 300 299 299 301 301 302 303 299 298 300 301 303 305 305 303 306 306 308 310 308 309 307 306 308 308 308 309 307 307 305 307 304 307 306 307 307 306 304 302
297 298 301 302 305 305 303 301 299 299 299 300 299 302 303 298 297 299 300 300 300 302 303 302 305 306 306 309 308 307 306 305 307 307 307 307 305 306 306 309 307 304 306 308 302 301 301
297 299 302 304 305 305 302 300 298 298 298 299 299 301 301 301 296 297 298 298 300 301 303 303 303 303 305 304 305 303 305 304 304 306 305 308 305 306 305 305 303 304 301 300 301 300 300

GFSGBSN_850_thetae_072.txt.gz
Theta_e
321 318 315 316 319 321 322 323 323 322 320 318 314 311 310 309 307 306 306 306 304 306 304 308 308 305 303 303 302 302 306 305 303 305 306 307 308 309 311 313 315 317 318 321 322 324 325
322 321 320 317 313 316 322 323 323 323 322 319 315 312 310 309 307 306 306 305 305 306 303 307 309 305 303 303 303 305 304 304 304 305 306 307 308 308 310 313 315 316 317 319 322 323 324
321 321 321 322 319 315 319 323 322 322 322 321 319 313 309 308 306 305 305 304 305 305 302 306 308 304 304 301 302 304 304 304 304 305 306 306 307 308 310 313 315 316 318 319 320 323 324
319 319 320 321 322 319 319 322 323 323 323 320 316 313 308 306 305 304 304 305 305 303 302 306 307 303 303 304 305 304 304 304 305 305 306 307 305 307 308 311 315 316 317 321 320 322 322
306 313 316 318 320 321 318 320 322 323 323 321 318 312 307 305 305 304 305 304 303 301 304 306 303 304 305 305 305 305 305 305 304 306 306 306 306 309 309 313 316 316 319 320 322 323 323
304 303 309 315 316 319 320 320 321 323 321 320 319 315 307 304 305 304 303 302 303 302 304 302 305 306 305 305 305 305 305 305 305 306 306 306 306 309 310 313 317 318 319 319 321 321 319
302 302 297 305 313 315 318 320 320 323 321 319 319 313 306 301 304 303 303 305 307 306 306 306 306 305 306 305 305 306 306 306 306 306 307 307 308 309 311 313 313 314 317 319 318 319 320
302 303 303 301 302 309 314 318 320 323 322 319 317 312 302 301 302 302 303 305 305 305 304 304 305 306 306 306 307 307 307 306 307 307 307 306 309 307 311 311 314 315 317 320 319 319 319
304 302 303 303 305 305 308 313 318 320 322 319 318 309 301 300 302 303 303 306 305 304 304 307 307 307 308 307 307 308 307 307 307 307 308 309 311 309 312 312 315 317 317 318 319 319 319
303 302 302 304 303 304 302 306 314 316 321 319 315 304 300 300 303 304 305 305 304 303 298 309 309 309 308 308 308 307 307 307 308 308 308 309 311 312 313 313 314 317 317 317 318 321 323
301 301 301 301 302 303 300 303 309 314 320 318 313 301 301 301 305 305 306 305 303 305 300 309 309 308 309 309 308 308 308 307 309 308 308 312 314 314 315 315 315 315 317 318 318 316 318
299 300 302 301 302 303 303 305 310 313 319 317 305 300 303 302 304 306 305 304 305 300 300 310 309 309 310 310 309 308 308 307 307 309 311 311 311 314 315 315 315 314 317 318 316 317 320
299 299 299 300 302 302 303 307 309 310 313 316 306 303 304 304 305 305 304 305 300 300 305 312 310 308 310 311 311 310 312 312 312 311 311 312 313 315 315 317 315 315 315 319 320 318 316
299 299 298 299 300 303 301 303 307 310 312 311 304 305 306 306 304 305 306 307 299 305 311 311 311 311 311 310 310 311 311 310 312 312 314 315 316 314 314 314 317 315 312 313 318 317 314
298 298 298 299 299 302 301 303 308 312 312 304 305 306 306 306 305 305 306 306 301 305 312 312 310 309 308 309 310 310 311 311 311 312 313 312 316 313 314 313 313 314 315 310 309 309 313
297 297 297 299 299 300 300 304 312 311 312 302 305 305 305 305 305 306 306 307 309 310 312 312 314 312 309 309 310 311 313 311 312 311 312 313 314 313 314 313 312 312 311 310 306 311 315
297 297 297 298 298 300 300 303 304 308 307 304 306 307 306 305 306 308 303 304 309 311 311 313 312 311 310 310 310 312 312 311 311 310 311 311 310 311 311 313 314 313 313 312 309 309 311
298 298 297 298 297 299 300 302 303 307 304 306 307 307 306 306 307 308 308 310 310 311 310 312 312 311 307 309 312 312 313 312 311 311 312 311 309 312 315 312 312 314 315 311 308 310 308
298 297 298 297 297 299 300 303 305 307 304 308 307 306 307 306 307 308 309 309 311 311 311 312 313 312 312 311 312 311 311 312 311 311 311 311 307 304 308 309 311 315 314 313 311 309 309
298 298 298 297 297 299 300 307 306 308 306 307 306 306 307 307 306 307 310 310 312 310 309 310 310 310 311 312 311 311 311 312 312 311 311 311 309 307 308 308 310 314 315 314 311 307 312
297 297 298 298 300 299 302 307 308 307 306 307 305 304 305 305 305 305 307 309 311 310 310 309 310 310 311 313 313 312 312 313 312 311 311 309 308 305 310 310 312 312 314 313 310 310 310
298 298 298 298 299 300 301 306 309 308 307 307 307 304 305 302 305 305 307 308 310 310 309 309 310 310 310 311 310 311 312 312 312 310 312 307 305 305 305 309 308 311 311 312 313 312 313
298 298 298 298 299 300 305 308 309 307 307 307 306 306 306 303 301 306 306 307 311 309 308 309 308 308 308 308 307 309 310 310 310 310 310 308 305 302 306 305 306 308 307 310 311 311 312
299 298 298 299 301 304 305 307 308 306 307 305 305 306 306 304 303 305 307 309 309 308 309 307 309 307 307 308 308 308 308 307 308 307 309 307 306 302 301 304 305 305 305 306 308 307 306
299 299 298 300 304 306 307 307 305 305 305 303 305 305 305 301 302 306 306 305 306 307 306 306 306 306 307 308 306 307 306 308 308 306 308 307 307 306 305 303 305 308 307 308 309 308 303
299 298 299 300 301 306 306 307 304 304 304 302 303 304 304 301 297 301 303 305 304 303 304 305 307 307 309 307 307 308 308 307 309 308 306 305 305 305 305 306 310 306 306 307 307 308 301
298 297 297 302 303 306 306 305 303 302 305 302 301 303 304 298 297 300 302 304 306 303 302 305 307 309 309 306 308 306 305 306 308 307 308 307 307 306 306 303 305 305 305 307 306 304 300
298 297 300 302 306 304 304 303 301 301 303 301 300 302 302 298 297 299 301 301 303 305 303 304 305 306 305 307 306 306 305 304 305 305 306 306 304 305 305 308 308 303 305 306 302 300 301
298 298 301 303 305 303 303 301 301 301 300 299 299 301 301 301 296 298 299 300 301 302 303 303 303 304 305 303 303 302 305 302 302 306 303 307 304 305 304 305 301 301 301 300 301 301 300

GFSGBSN_850_thetae_075.txt.gz
Theta_e
318 318 320 321 321 320 319 319 316 321 323 323 322 319 314 312 310 308 306 307 306 305 306 304 308 309 306 303 301 300 305 305 304 303 304 307 307 308 308 310 311 314 315 317 320 321 324
316 317 318 318 319 320 320 319 318 320 322 323 324 320 317 313 310 307 306 306 306 305 305 304 307 308 305 303 302 304 305 304 304 304 304 306 307 308 308 307 310 313 313 315 319 321 323
305 307 311 315 316 318 319 319 319 319 321 322 323 322 318 314 310 307 304 305 306 305 305 303 306 308 305 304 301 305 304 304 304 304 305 305 306 306 308 308 308 311 315 315 317 320 322
305 304 304 305 309 314 316 318 320 319 319 321 323 320 318 314 308 303 304 305 305 305 304 303 307 306 303 304 304 303 304 304 304 304 305 305 306 305 306 308 310 313 315 316 317 319 321
305 305 305 302 303 304 311 314 317 319 318 320 323 320 318 313 306 303 304 304 303 302 304 305 307 303 304 304 304 305 305 305 305 304 305 306 305 307 306 308 313 313 318 316 320 320 322
304 305 304 304 304 303 306 309 311 316 318 319 322 321 317 312 303 303 303 302 303 303 304 304 304 305 305 305 305 305 305 305 305 305 305 306 305 306 309 310 316 315 316 316 320 320 320
302 303 304 304 305 304 306 306 306 310 316 318 319 321 317 311 302 302 302 304 306 305 304 305 306 306 305 305 306 306 306 306 304 306 307 306 308 308 309 310 313 313 315 317 318 320 321
301 303 303 303 303 304 304 303 302 303 308 316 318 319 317 306 302 301 302 304 305 305 304 305 306 306 306 306 306 306 307 305 306 305 306 306 308 307 309 310 314 314 315 318 316 317 320
301 301 302 302 302 304 303 303 303 300 305 313 317 317 314 303 301 303 303 304 305 304 303 306 307 306 307 306 307 307 307 306 306 306 307 308 308 307 311 312 314 315 315 318 319 315 315
300 300 300 300 300 301 301 303 303 301 306 311 314 316 311 301 301 304 303 306 304 303 296 307 308 308 308 308 308 307 307 307 308 307 307 309 308 309 311 312 313 315 315 318 319 318 323
299 299 300 299 301 301 300 301 302 302 304 311 313 316 307 301 304 305 305 305 303 304 300 306 308 308 309 309 308 308 308 307 307 309 308 311 312 313 311 312 314 315 316 315 316 316 318
299 299 298 299 299 300 301 301 302 302 303 307 313 312 302 301 305 306 305 304 304 299 299 309 308 308 309 310 309 308 307 306 306 307 306 310 311 312 313 313 314 315 317 316 316 316 319
299 298 298 298 299 298 300 301 301 302 303 307 310 307 303 303 304 305 305 304 302 298 303 311 309 308 309 311 311 309 312 311 313 313 313 314 315 315 313 316 315 316 317 320 319 319 320
298 298 298 298 298 298 299 300 302 300 304 307 310 307 304 303 305 305 305 304 299 302 309 310 309 310 310 309 310 310 310 312 312 312 314 314 316 314 314 314 314 314 312 317 320 318 315
298 298 298 298 298 298 299 300 300 301 305 308 307 305 304 306 305 304 306 307 301 303 311 311 309 306 303 308 309 309 311 312 312 312 314 315 316 313 313 312 313 314 312 310 310 310 315
298 298 298 298 298 298 298 299 300 302 309 308 305 305 305 306 305 306 304 305 306 307 310 311 311 309 308 308 309 309 310 310 312 310 310 312 316 312 312 312 311 313 310 312 309 315 315
298 298 298 298 298 298 298 299 300 301 306 309 305 305 306 306 305 307 306 302 307 310 311 312 310 311 309 308 310 311 311 310 310 310 309 309 310 312 311 313 313 312 313 311 309 309 312
298 298 298 299 298 297 298 299 300 301 304 305 305 306 305 305 307 305 302 307 309 310 310 311 310 308 307 308 311 311 312 311 311 310 312 310 308 312 314 312 311 313 314 309 308 310 306
298 298 298 298 298 298 298 299 300 302 304 305 305 304 305 306 305 304 308 308 310 310 310 311 312 311 309 309 311 310 311 311 311 310 311 310 306 303 307 308 310 314 314 310 308 306 307
299 298 298 299 298 298 300 300 300 303 304 305 304 305 306 306 305 305 309 310 312 310 309 309 309 309 311 311 310 310 310 311 311 310 311 310 307 306 307 309 309 314 314 312 309 305 311
299 298 298 299 299 300 299 300 301 304 305 304 303 304 305 306 305 305 308 310 311 311 309 309 309 310 310 312 311 311 311 311 311 310 309 307 307 304 308 309 311 312 313 312 308 309 310
299 298 298 299 300 299 300 301 304 305 305 307 304 304 304 301 304 305 307 310 310 310 308 309 309 309 309 310 309 310 311 311 311 309 309 305 304 304 304 306 306 311 310 311 312 311 312
299 299 299 299 299 300 302 304 306 306 305 305 304 305 304 303 301 306 308 307 309 307 308 308 308 307 307 307 306 308 309 309 309 310 309 307 303 301 306 304 306 307 307 309 310 310 311
299 299 299 300 299 304 306 306 307 307 305 305 305 304 304 303 302 307 307 309 309 308 308 306 308 307 307 307 308 308 308 307 307 305 308 306 305 301 301 303 306 306 304 305 308 306 306
299 299 300 299 304 306 307 307 307 306 304 306 304 303 304 300 302 306 307 307 306 306 305 305 305 306 307 308 306 307 306 307 307 306 306 305 305 305 303 302 304 307 306 307 308 308 303
299 299 298 302 305 305 306 307 306 306 303 302 302 303 304 302 298 300 303 306 306 304 303 305 307 307 309 305 306 307 307 307 308 307 305 305 303 304 305 306 309 306 305 305 306 307 301
299 299 299 303 306 305 306 306 305 304 303 304 301 302 303 299 297 300 302 305 305 303 301 305 307 308 308 304 307 305 304 305 307 307 308 308 308 309 306 303 305 303 305 305 307 305 301
299 299 300 304 305 304 304 305 304 305 303 302 300 301 302 299 297 298 300 302 304 305 303 304 306 306 304 306 306 305 304 303 304 304 305 306 304 305 305 308 306 302 305 305 301 300 301
299 299 301 303 305 303 302 302 303 303 303 304 300 301 302 303 297 297 298 300 302 303 304 303 302 304 305 303 302 301 305 301 301 306 302 306 303 305 304 304 299 300 301 300 300 301 300

GFSGBSN_850_thetae_078.txt.gz
Theta_e
306 306 307 309 312 313 316 318 319 320 319 318 320 322 322 320 317 315 311 308 306 306 306 306 305 307 310 305 305 303 308 308 305 303 303 304 307 308 308 308 309 310 311 314 314 314 318
306 306 306 306 305 307 309 311 315 317 319 319 318 319 322 319 317 314 309 307 305 307 306 305 304 307 308 304 303 302 300 305 304 304 303 304 306 307 307 307 308 310 310 311 313 315 317
305 305 306 306 306 306 306 308 310 313 315 317 318 318 321 318 318 314 307 305 304 306 305 305 303 307 307 306 302 303 305 303 304 304 304 304 305 306 307 307 307 308 309 311 312 313 318
303 303 305 304 306 305 306 306 308 308 310 313 316 318 319 320 318 313 305 304 305 305 305 304 303 307 306 304 304 302 304 303 304 304 304 304 305 306 306 306 307 309 308 312 313 315 318
303 303 303 304 304 304 305 305 306 306 307 308 313 317 319 320 316 310 303 304 304 303 304 304 306 306 303 304 304 304 305 304 305 304 304 305 306 306 307 307 309 307 310 310 314 314 318
302 303 302 303 303 303 304 304 304 304 303 303 306 316 317 319 315 309 302 302 303 303 305 306 305 304 304 305 305 305 305 305 305 305 304 305 305 306 307 309 309 308 310 315 315 317 318
302 302 302 302 301 303 303 303 304 303 304 301 303 313 316 317 314 305 302 302 305 304 304 303 304 305 305 305 306 306 305 306 305 305 305 306 308 307 305 308 308 308 310 313 316 318 319
301 301 301 301 302 301 302 302 302 302 305 303 304 311 314 316 312 304 302 303 306 305 305 304 304 305 305 306 306 306 306 306 306 304 304 305 306 306 307 308 310 309 313 316 317 318 319
300 300 300 300 300 301 301 301 302 303 301 303 302 309 313 312 308 303 302 302 305 304 303 305 306 306 307 306 307 306 307 306 305 305 305 306 306 307 308 309 312 313 314 315 317 316 314
301 300 300 299 300 299 300 300 300 302 301 302 304 309 310 309 306 303 303 303 305 304 298 306 307 307 307 307 309 307 307 307 307 306 305 306 306 309 310 310 313 315 314 316 316 316 319
300 300 300 299 299 298 298 299 300 300 300 301 302 306 308 309 304 303 304 305 304 304 299 304 307 308 308 309 308 308 307 307 306 308 308 309 308 309 311 312 312 315 315 316 315 314 318
299 299 299 299 299 299 299 298 299 299 300 302 301 304 309 304 303 304 305 305 303 300 299 308 308 308 309 309 309 308 308 307 306 306 305 308 309 312 310 312 313 314 315 315 315 316 317
298 299 299 299 299 299 298 298 299 299 300 300 301 304 307 305 304 304 305 303 303 300 302 309 308 307 308 310 310 310 311 310 311 311 313 312 313 313 312 313 315 316 316 317 317 318 319
298 298 299 299 299 299 299 299 299 299 300 301 301 303 305 304 302 305 304 302 303 300 307 309 308 308 310 308 309 310 310 312 309 311 315 313 313 313 311 313 316 316 315 318 320 318 317
298 298 299 299 299 299 298 299 299 299 300 301 304 306 304 302 303 305 305 302 300 303 310 309 308 304 302 307 309 308 311 312 312 312 312 314 316 313 312 311 312 313 314 311 312 311 315
298 298 298 300 299 299 299 298 299 299 301 305 306 304 304 304 305 304 305 306 305 306 309 309 308 307 307 307 309 308 308 309 311 310 311 312 317 312 312 311 311 311 309 312 311 316 316
298 299 299 299 299 300 298 298 299 300 300 302 305 303 303 304 305 306 307 302 305 309 311 310 308 309 307 307 309 310 310 309 310 310 309 308 310 314 311 312 313 311 311 309 309 309 314
298 299 299 299 300 299 299 299 300 301 300 303 302 304 304 303 306 306 305 304 307 309 309 310 308 307 306 307 310 310 311 310 310 309 311 309 307 314 314 310 310 312 312 307 309 310 305
298 299 298 299 299 299 300 300 302 300 301 304 302 305 305 305 308 307 304 307 309 309 309 310 311 308 307 308 311 310 310 310 310 308 309 309 305 303 306 307 309 313 312 309 306 305 307
298 298 299 300 300 299 300 301 300 301 302 304 303 304 304 305 305 303 306 308 311 309 309 309 309 309 310 310 309 310 310 310 311 310 311 308 305 306 306 308 309 313 313 310 308 303 310
299 298 299 299 300 300 300 301 301 302 303 304 303 304 305 306 306 304 306 308 310 310 308 308 309 309 310 311 310 310 310 310 310 309 308 306 306 303 306 307 310 311 313 312 308 308 308
300 299 299 300 300 302 301 301 302 303 304 304 303 303 303 301 304 303 307 310 310 308 308 309 308 308 308 309 308 310 310 310 310 308 307 304 303 303 303 304 305 311 309 311 311 310 310
299 299 300 300 301 304 304 305 304 304 304 304 305 304 304 303 302 303 307 309 310 307 307 306 307 306 307 307 307 308 308 308 308 309 307 305 302 301 305 303 305 307 307 309 310 310 310
299 299 299 301 306 307 307 306 305 304 305 305 305 305 303 303 301 304 307 309 308 307 307 305 307 307 307 307 307 308 308 306 306 304 305 305 304 300 301 303 305 305 303 304 308 306 306
299 299 300 304 305 306 307 306 305 305 305 305 306 304 303 300 300 306 307 306 305 305 304 304 305 306 307 307 305 306 305 307 305 305 305 303 304 303 303 301 304 306 305 307 309 308 304
299 299 302 305 306 307 306 307 307 306 305 306 303 302 303 302 300 298 305 306 306 303 303 305 307 307 308 303 304 306 306 307 308 308 305 304 303 304 305 306 310 306 305 305 305 306 301
300 299 301 305 304 306 306 305 305 305 304 303 302 302 302 299 298 300 302 304 305 304 301 304 307 308 308 303 306 305 303 304 307 308 307 307 307 310 308 303 304 303 304 304 307 304 300
299 299 303 304 305 305 306 306 305 305 304 303 301 302 302 299 297 299 300 302 304 305 304 304 305 306 304 305 305 304 304 303 303 303 305 305 304 304 306 308 305 300 305 305 301 300 300
299 299 303 305 304 303 303 305 306 306 305 303 301 302 303 303 297 298 299 300 301 302 304 303 302 303 304 302 301 301 304 299 300 305 301 305 303 304 303 303 299 300 300 300 300 301 300

GFSGBSN_850_thetae_081.txt.gz
Theta_e
306 306 306 306 306 306 306 307 307 309 311 313 315 317 318 317 320 320 318 315 308 305 307 307 306 305 307 307 307 306 305 309 307 304 303 302 304 307 308 307 308 310 310 310 311 313 313
304 305 305 305 306 306 306 306 306 307 308 309 311 314 316 318 320 320 318 315 306 304 307 307 306 305 307 306 306 303 300 308 306 303 303 303 304 306 307 307 307 308 308 308 309 309 311
304 303 304 304 303 304 304 305 305 305 305 306 307 309 313 316 320 319 316 311 304 304 306 306 305 305 307 306 306 301 304 303 304 304 304 304 304 304 306 306 306 307 308 308 308 311 310
303 303 303 303 303 303 303 304 304 305 305 307 308 306 312 315 318 319 314 310 304 305 305 305 304 305 306 306 303 303 303 304 303 304 304 304 304 305 305 305 305 307 307 308 307 310 310
302 303 302 302 302 302 302 303 303 304 304 305 306 302 309 314 317 318 314 310 304 304 303 304 303 305 305 303 303 304 304 304 304 304 304 304 304 305 305 305 305 306 308 307 307 311 312
302 302 302 302 302 302 302 302 302 302 304 304 305 303 303 313 316 314 311 303 303 303 304 304 306 305 303 304 304 305 305 304 304 305 304 304 305 307 306 307 307 306 308 308 308 312 313
302 302 302 302 302 301 301 301 301 302 302 302 304 303 306 312 315 314 309 305 304 304 305 305 304 304 305 305 305 306 305 305 305 305 303 305 308 307 306 306 306 308 310 309 310 311 315
301 302 301 301 301 301 300 300 300 301 301 301 301 302 306 313 314 310 305 302 304 304 305 304 304 304 305 305 306 306 305 306 305 305 304 305 306 305 305 306 308 308 308 310 313 311 315
301 301 301 301 301 300 301 300 300 299 300 301 300 302 303 309 310 308 305 304 303 305 303 304 304 304 306 305 306 306 306 305 305 305 304 304 304 306 307 309 311 311 309 310 316 316 315
300 301 301 300 300 300 300 300 300 300 300 301 300 302 301 307 306 307 304 303 303 304 302 306 306 306 307 307 308 307 306 306 306 306 304 305 306 306 308 311 309 314 311 313 316 317 321
300 300 300 300 300 300 300 299 299 299 299 299 299 301 301 303 306 305 304 303 304 304 308 305 307 307 308 309 308 308 307 306 306 307 308 306 310 308 311 310 312 314 314 315 315 316 317
299 299 300 300 299 300 299 299 299 299 299 298 299 300 301 305 306 304 303 304 303 305 307 309 307 307 308 308 309 309 308 307 305 306 304 307 307 308 310 312 314 313 315 315 315 315 316
299 299 299 299 300 299 300 299 299 299 299 299 300 300 302 301 304 304 303 304 306 307 303 310 307 306 307 308 309 310 311 309 310 311 311 310 311 312 312 314 314 315 314 317 318 318 319
299 299 299 299 299 300 299 299 299 299 299 300 301 302 301 301 303 303 303 304 308 304 307 307 306 307 309 308 308 309 310 312 309 310 313 311 306 312 311 314 315 314 315 315 319 318 318
299 298 298 298 300 300 299 299 299 299 300 300 300 304 302 303 303 304 304 307 306 305 308 308 306 304 302 307 308 308 310 313 312 312 313 314 314 312 311 312 313 313 315 310 312 312 317
299 299 299 300 299 299 299 300 300 300 302 300 302 303 304 303 303 303 305 307 305 304 308 307 307 306 306 307 308 308 308 309 309 311 310 311 317 312 312 311 311 311 311 312 313 315 319
299 299 299 299 299 299 299 300 301 301 301 301 303 302 303 302 304 304 308 305 304 307 309 309 308 308 305 307 309 309 308 309 309 309 308 307 310 315 311 312 313 311 312 309 309 309 317
299 299 300 299 299 300 300 300 301 301 301 301 302 305 302 303 303 304 306 304 306 309 309 308 306 306 306 307 309 309 310 310 309 308 310 307 311 315 313 310 309 311 311 307 311 311 305
299 300 300 300 300 300 300 300 301 301 302 303 301 303 304 304 308 307 305 307 308 308 309 310 309 307 306 308 310 309 309 310 309 308 309 308 306 307 309 308 309 312 311 307 305 305 307
298 300 300 300 301 301 301 302 303 302 303 304 303 303 303 304 303 304 305 307 310 308 308 308 308 308 308 309 306 309 309 310 310 309 309 306 304 305 307 308 309 313 312 308 307 307 310
299 300 300 300 302 303 303 302 301 301 304 304 304 304 304 305 305 303 305 306 309 309 307 307 307 309 309 310 309 309 309 308 309 308 306 305 306 302 304 305 310 311 312 311 308 307 309
299 299 301 303 306 307 305 303 301 303 304 304 303 304 304 303 303 304 306 308 309 307 307 308 307 307 308 308 308 309 309 309 309 306 306 303 303 303 304 304 304 310 309 310 311 309 309
300 300 303 306 306 306 306 303 303 304 305 304 304 305 304 302 300 304 306 309 309 306 306 305 306 306 306 307 307 308 308 307 307 308 306 304 302 301 306 302 304 306 304 308 309 308 308
299 301 305 305 306 306 306 304 304 304 306 305 305 304 302 302 301 304 306 308 308 306 306 304 306 306 306 307 307 307 307 305 305 304 303 304 303 300 302 303 306 304 302 304 307 306 306
300 302 306 306 307 306 305 305 304 305 306 306 305 303 303 301 300 306 307 305 305 305 303 304 305 305 306 306 305 306 305 306 305 303 304 302 303 303 304 302 304 305 305 306 307 307 304
299 302 305 305 306 307 306 305 305 305 305 305 306 303 303 301 300 299 303 305 304 303 302 305 307 308 308 301 303 306 306 306 307 307 304 304 302 305 305 306 310 305 304 304 305 305 301
299 302 305 304 305 306 306 305 305 305 305 304 303 304 304 300 299 300 302 303 304 302 300 304 307 308 307 303 305 305 303 303 306 307 308 305 304 306 307 303 304 302 302 303 308 304 300
298 301 304 304 304 306 306 306 305 305 303 302 302 303 304 301 298 299 300 302 303 304 303 304 305 306 303 305 304 303 303 302 303 303 305 305 303 304 304 305 304 300 304 305 301 300 300
298 300 304 304 303 303 304 305 305 305 304 303 302 303 304 305 299 299 299 300 301 302 305 304 303 303 303 302 301 300 303 298 299 304 300 304 302 304 303 303 299 300 301 301 301 301 301

GFSGBSN_850_thetae_084.txt.gz
Theta_e
304 304 304 305 305 305 305 306 305 305 305 305 306 308 309 313 315 317 320 319 316 314 304 308 308 306 305 307 308 307 307 309 307 304 304 305 305 305 306 307 308 309 307 307 308 310 311
305 304 304 304 304 304 305 304 305 305 304 306 306 306 307 309 312 317 319 319 316 313 304 307 307 306 306 307 307 305 301 309 308 304 304 305 304 306 306 306 307 306 308 309 308 308 308
304 304 304 303 303 303 303 303 303 303 303 304 304 306 306 307 314 316 318 318 315 308 306 307 306 305 306 306 306 306 302 303 305 304 305 305 305 305 305 305 305 306 307 307 307 308 310
303 303 303 303 303 302 302 303 302 303 303 304 304 304 306 304 312 314 316 316 313 306 305 306 305 305 306 306 305 303 302 303 305 303 304 304 305 305 306 305 305 305 305 308 307 307 308
304 303 303 303 302 302 302 300 302 301 302 302 303 303 304 304 310 315 315 315 307 304 304 304 304 305 306 305 304 303 304 305 306 304 304 304 304 305 306 306 307 305 306 307 307 307 308
303 303 302 302 301 301 301 302 301 301 301 301 302 302 302 306 306 314 314 312 304 304 304 305 305 305 305 305 304 304 305 304 305 305 305 305 305 306 306 306 307 307 307 307 308 308 309
302 302 302 302 301 301 300 301 300 301 301 300 300 301 301 306 308 313 314 308 305 304 305 307 306 305 304 304 305 305 305 305 306 305 305 304 306 306 306 306 306 307 308 309 309 308 309
301 301 301 301 301 301 301 301 300 300 300 300 300 300 301 303 307 313 310 307 305 306 305 304 304 305 305 305 306 306 305 306 305 305 304 306 307 306 306 307 307 309 309 309 309 310 310
300 300 301 300 300 301 301 301 300 300 299 299 299 300 301 301 308 308 308 305 306 304 306 305 305 304 304 305 306 307 306 306 305 306 305 306 306 306 306 307 309 309 309 308 311 311 312
301 300 299 300 300 300 300 300 301 300 300 299 299 299 301 301 307 306 305 306 304 304 309 307 306 306 306 307 308 307 307 306 307 306 306 306 307 307 308 309 310 314 310 310 312 314 316
301 299 300 299 299 300 301 301 299 300 299 299 299 298 300 301 304 305 306 305 304 304 316 308 307 306 307 308 309 308 307 307 308 307 308 309 309 311 311 310 310 315 312 312 309 318 318
300 299 299 300 299 299 300 301 300 300 299 299 299 299 301 301 304 304 304 304 304 308 312 310 308 308 309 309 309 309 308 307 305 306 306 307 306 307 312 312 314 315 316 316 316 317 320
300 300 299 300 299 299 300 300 300 300 300 300 299 300 301 301 302 304 305 303 309 313 306 310 309 309 309 311 310 310 311 309 311 311 311 310 311 312 312 315 315 315 318 320 320 320 320
299 300 300 299 301 300 300 300 300 301 301 301 300 301 301 300 302 304 304 307 312 308 308 309 308 309 311 310 310 311 312 312 309 310 312 315 314 313 312 314 316 316 317 320 319 322 320
298 299 299 300 300 300 300 302 300 302 302 301 300 301 301 302 303 303 304 310 310 308 310 309 310 310 310 309 310 311 311 313 313 311 316 317 313 311 312 313 314 316 317 312 317 315 318
298 300 300 301 300 301 300 301 301 301 301 301 303 302 303 301 303 303 306 309 307 306 309 309 309 309 310 310 311 312 312 308 310 310 309 313 317 313 312 312 313 314 312 317 318 321 321
298 299 300 301 301 301 301 301 301 301 302 303 303 303 304 303 303 303 310 308 307 307 309 309 310 309 308 311 311 312 312 311 311 312 311 311 315 317 314 315 315 315 315 313 313 314 318
299 300 301 301 301 301 302 302 302 302 303 304 303 304 304 303 303 304 308 306 307 310 310 310 309 309 309 310 312 312 313 313 311 310 313 311 316 318 315 312 310 313 314 312 316 315 312
299 300 301 302 304 305 304 303 303 302 304 303 302 300 302 304 307 307 306 308 308 310 310 312 310 309 309 311 312 312 312 311 310 312 313 311 314 319 317 314 313 315 313 312 311 313 313
300 301 303 306 306 306 305 303 303 302 304 304 304 304 302 303 304 306 308 309 311 309 309 310 310 310 311 311 310 311 312 312 310 311 308 309 311 311 314 313 313 316 315 314 313 318 314
301 304 306 306 307 307 305 304 302 303 305 305 305 305 304 307 306 307 307 309 311 311 309 308 311 311 311 312 311 311 311 310 310 309 309 311 313 309 309 309 312 314 314 314 314 312 315
303 305 306 306 307 307 305 303 303 305 305 304 305 306 303 305 304 306 307 311 310 309 309 310 311 309 310 311 310 311 311 311 312 311 310 308 313 309 311 309 311 313 312 314 313 312 312
303 305 306 305 305 304 303 304 305 305 305 304 304 304 304 304 305 307 308 309 310 309 308 306 308 310 310 309 308 308 309 309 309 311 310 310 311 312 314 308 309 312 309 311 312 312 312
303 305 305 305 304 304 304 304 304 305 305 305 305 304 303 304 305 306 308 308 308 307 309 306 306 310 307 306 307 307 308 308 309 308 307 310 309 310 314 310 315 308 305 306 308 309 309
302 305 305 305 305 305 304 305 305 305 305 305 304 303 303 305 304 307 308 307 306 306 306 306 305 306 306 306 310 310 310 311 310 308 309 308 310 311 315 313 309 307 307 309 310 310 307
301 305 304 305 306 305 304 304 305 305 305 304 304 304 303 305 303 301 305 306 309 308 308 307 307 308 307 307 308 310 311 309 311 310 308 309 309 312 311 313 312 309 306 305 307 310 305
300 304 304 305 305 305 304 305 305 304 302 303 304 305 304 301 300 301 305 306 304 305 308 306 307 308 307 309 309 309 309 306 309 309 310 310 310 312 311 312 310 306 304 304 310 308 303
299 303 304 303 304 305 305 305 305 303 303 302 304 304 305 302 299 301 302 302 303 304 309 306 308 308 309 310 309 308 309 307 307 306 308 309 310 310 309 310 309 303 305 308 305 301 302
299 300 304 303 303 304 304 305 305 305 304 302 303 305 305 305 300 301 301 302 303 303 304 304 305 305 306 309 307 307 308 305 306 309 304 308 307 309 308 308 303 302 303 302 301 302 301

GFSGBSN_850_thetae_087.txt.gz
Theta_e
305 305 305 304 305 305 304 304 305 304 304 304 306 306 307 306 308 310 314 317 319 319 317 307 307 307 307 309 310 306 307 309 309 306 305 305 305 306 307 307 308 308 309 308 307 308 309
305 304 304 304 303 303 303 304 303 302 303 305 305 305 305 307 305 310 312 317 319 319 316 309 307 307 308 309 308 306 304 308 308 306 305 305 305 305 306 306 307 306 307 308 308 308 308
306 306 306 305 304 304 303 303 303 302 303 303 303 305 304 304 305 309 313 318 318 317 310 306 307 307 308 309 306 306 303 304 307 306 305 306 305 306 305 306 305 305 306 307 306 306 308
304 303 304 303 302 303 303 302 302 302 302 302 303 303 303 303 303 308 313 316 317 314 309 308 306 308 308 308 307 307 304 305 306 306 305 306 306 306 306 306 306 307 306 307 307 307 306
304 303 302 303 302 302 302 302 301 301 302 302 302 301 302 301 304 304 314 314 314 308 306 306 306 307 308 306 306 306 305 306 306 306 305 305 306 306 306 307 307 307 309 307 307 307 307
304 303 301 301 302 301 302 301 302 301 301 302 302 301 301 301 307 305 312 312 307 306 305 306 307 307 306 306 306 305 306 306 306 306 306 307 306 306 307 308 308 308 308 308 308 308 308
303 303 302 302 302 301 301 301 301 301 300 301 300 301 300 301 304 310 309 310 307 306 306 308 308 307 307 306 305 306 306 306 306 306 307 305 306 308 308 308 307 307 308 308 308 308 309
304 301 301 302 301 301 300 300 300 300 300 299 300 299 299 301 302 306 309 309 308 308 308 307 307 307 306 307 307 307 307 307 307 308 306 305 307 307 307 307 307 307 308 310 309 309 309
304 300 301 302 301 300 300 299 301 300 299 300 299 298 299 301 303 307 306 308 308 308 308 307 306 306 306 306 308 308 307 307 307 307 306 307 308 307 307 307 308 309 310 309 309 310 311
302 301 301 300 300 301 300 300 300 300 299 300 298 298 298 300 306 305 305 305 307 304 312 308 307 307 306 307 308 308 308 308 307 308 307 306 307 308 308 310 310 312 309 310 312 312 313
298 299 301 299 300 300 300 300 301 300 299 300 299 299 299 299 302 304 304 304 304 304 316 308 307 307 308 309 310 309 308 308 309 309 309 310 310 309 310 311 310 313 313 312 312 313 314
299 299 301 300 300 301 300 300 300 300 300 300 300 299 299 301 301 303 304 304 304 310 317 310 308 309 309 309 309 309 308 307 305 307 308 308 307 308 310 312 314 314 310 311 312 312 319
298 299 300 300 300 301 302 301 300 302 301 301 301 300 300 301 303 303 304 304 310 315 309 310 309 309 310 310 311 310 310 309 311 311 313 312 312 312 312 314 315 317 319 321 322 324 320
299 300 299 301 301 302 301 301 302 301 302 302 301 300 301 301 301 303 303 305 314 310 312 309 309 310 311 311 312 312 312 312 309 311 314 315 317 314 313 314 317 317 318 322 322 322 320
299 300 301 302 302 302 302 302 301 302 301 302 301 301 301 301 301 303 304 312 311 310 310 310 310 311 311 311 312 312 313 313 313 311 315 316 317 313 314 313 315 317 321 315 321 318 322
301 301 302 303 304 303 302 302 302 303 303 303 303 301 301 301 302 303 305 310 309 309 310 309 311 310 311 311 313 313 313 310 311 311 310 315 318 314 311 313 314 315 314 316 320 324 322
301 302 303 305 306 306 305 302 302 303 303 303 304 303 303 303 303 303 309 310 309 310 310 311 310 310 311 312 313 314 313 312 311 313 312 314 316 317 314 316 317 316 316 315 314 316 322
302 304 306 306 307 306 304 302 303 304 303 305 304 304 303 304 304 305 310 307 308 312 312 311 310 310 311 312 313 314 313 314 312 312 314 313 316 319 317 314 313 315 315 314 317 317 316
304 305 305 306 307 307 303 303 304 304 304 304 301 302 303 304 308 309 308 310 309 312 312 312 310 310 311 313 313 314 314 312 312 314 314 313 316 320 319 316 314 316 315 315 314 317 316
305 305 306 307 307 306 304 303 304 303 303 304 305 305 304 304 306 309 310 310 312 311 311 311 311 312 312 312 313 314 313 313 312 312 309 311 314 315 317 316 315 317 316 314 315 318 315
305 305 306 304 306 305 303 304 304 304 305 306 307 306 306 309 308 309 310 310 312 312 311 311 311 312 312 312 313 312 312 312 311 311 311 313 315 312 312 312 314 315 315 315 315 314 315
305 305 306 305 302 304 303 304 305 305 304 307 308 308 307 307 307 309 310 311 311 312 311 312 312 311 311 312 312 312 312 312 312 313 313 312 316 312 316 312 313 313 313 315 315 314 313
304 305 305 304 304 302 304 305 305 305 305 307 305 306 307 306 308 310 310 311 311 311 310 309 311 312 312 311 311 311 311 311 311 313 313 313 314 316 317 312 312 314 310 312 314 314 314
304 305 305 306 304 304 304 304 304 304 305 305 305 305 307 308 308 310 310 310 310 310 311 309 309 312 309 308 308 311 311 311 311 311 311 312 313 313 317 313 318 310 308 309 309 311 312
304 304 305 305 305 304 305 305 305 305 305 304 304 305 306 308 308 310 310 310 310 309 309 309 308 307 307 308 312 312 312 312 312 311 311 311 312 315 317 314 311 309 309 310 311 312 310
304 304 304 305 305 304 304 305 304 302 302 303 303 303 306 307 308 306 310 309 311 311 311 309 308 308 309 310 310 312 312 311 312 311 310 311 311 313 313 315 313 311 308 308 308 312 308
302 304 304 304 305 305 305 305 304 303 302 303 304 305 305 306 303 303 309 310 308 310 311 309 309 310 308 311 310 310 311 308 310 309 310 311 311 313 313 313 312 308 307 306 311 310 307
298 303 304 303 303 304 305 305 305 304 304 302 304 304 305 304 302 302 303 306 306 308 312 309 310 310 312 312 311 310 310 310 309 309 309 310 310 310 310 311 310 307 307 309 307 304 306
299 298 303 304 303 302 303 305 305 306 305 302 301 303 304 305 302 303 303 304 304 305 306 307 308 309 310 312 310 309 309 308 309 309 307 309 309 310 309 310 306 306 307 304 304 305 304

GFSGBSN_850_thetae_090.txt.gz
Theta_e
308 306 307 306 307 306 305 304 304 303 304 304 305 305 306 306 304 307 307 309 313 318 318 319 314 308 306 310 310 307 306 309 308 307 306 306 305 306 307 307 307 308 308 308 308 308 308
306 306 305 305 305 305 304 304 303 303 302 304 303 304 304 304 305 304 307 310 311 317 318 318 310 307 309 309 308 308 308 311 309 306 306 305 305 305 305 306 305 306 306 306 306 307 308
305 305 305 304 304 305 304 303 303 302 302 303 303 303 303 303 303 303 306 310 314 316 317 315 308 307 310 309 307 306 304 309 308 306 306 306 306 306 306 307 306 306 306 306 306 306 307
306 305 305 304 303 303 304 303 302 303 302 302 303 302 302 302 302 304 301 311 316 316 315 311 307 308 309 309 307 306 305 305 307 306 306 306 306 306 306 306 306 306 306 307 306 306 307
306 306 304 304 302 303 303 302 301 302 302 301 302 302 302 302 303 306 300 312 313 315 311 308 306 308 309 307 307 306 306 306 306 306 306 306 306 306 306 306 307 306 307 307 307 307 307
306 305 303 303 302 302 301 301 300 300 301 301 301 301 301 301 302 307 308 312 309 308 306 306 308 307 307 307 307 307 305 307 307 307 307 307 306 307 307 307 304 307 308 308 308 308 309
305 301 302 301 301 301 302 301 300 300 300 301 301 301 300 299 301 305 307 307 308 306 307 308 308 308 307 306 306 306 306 306 306 306 306 306 306 307 306 306 307 307 308 307 307 307 307
305 302 300 301 300 300 301 301 300 300 300 301 300 299 299 300 299 301 306 307 308 308 308 308 308 307 307 307 307 307 307 307 307 307 307 306 306 306 306 307 308 308 308 308 307 307 308
303 299 301 302 301 301 301 300 301 301 300 299 300 298 299 298 302 305 306 306 307 308 309 308 307 307 307 307 308 308 307 307 307 306 306 306 307 307 307 308 309 308 309 309 310 309 308
303 301 301 301 302 301 301 301 300 300 300 299 299 297 299 299 304 305 306 304 305 307 310 307 307 307 307 307 308 309 308 308 307 307 307 307 307 307 308 310 310 311 310 310 311 311 311
301 301 302 301 302 301 302 302 301 300 300 300 299 299 299 299 303 304 303 304 305 306 314 308 307 307 307 309 309 309 308 308 308 309 309 309 309 310 310 309 310 313 311 313 312 312 311
301 302 302 302 302 302 302 302 301 301 301 301 301 300 300 301 303 302 304 304 305 309 314 311 308 308 308 309 310 308 309 307 306 308 307 307 308 308 309 310 312 314 311 311 311 313 315
301 302 303 303 303 303 303 302 302 302 302 302 301 301 301 301 302 304 304 304 309 312 308 309 309 308 309 310 310 309 309 308 311 311 312 311 311 310 309 313 315 315 312 317 314 312 320
303 303 304 305 305 305 304 302 302 303 302 302 302 301 301 301 301 303 303 306 312 313 311 309 309 309 312 310 312 311 310 312 308 309 313 314 313 313 313 314 315 316 317 320 319 322 320
304 305 305 305 306 306 304 303 303 303 303 303 301 301 301 301 302 303 304 310 311 312 310 310 310 311 311 312 312 313 313 312 312 310 315 314 314 313 313 313 315 315 318 314 319 318 323
304 305 306 306 307 307 305 302 303 303 303 302 301 302 302 302 303 304 306 309 310 310 309 310 311 311 312 311 313 314 314 310 311 311 311 313 316 315 314 314 314 314 314 315 317 321 323
305 305 306 307 307 307 303 303 303 303 303 304 303 304 303 303 304 304 308 309 310 311 311 311 310 311 312 312 313 314 314 312 311 313 311 312 314 317 314 316 317 316 316 315 314 316 323
305 306 306 307 306 304 303 303 303 305 305 305 304 304 303 303 305 305 309 308 310 311 311 311 310 311 312 313 313 314 314 314 312 312 314 313 314 318 317 314 313 313 315 313 312 315 313
306 306 304 306 305 303 303 304 304 304 304 303 303 303 304 304 309 309 309 310 310 312 312 311 310 311 312 313 314 314 314 313 312 313 313 313 313 314 316 314 314 316 314 313 314 315 313
305 305 304 305 304 303 303 304 304 304 305 306 304 305 304 305 306 309 311 310 312 311 311 311 312 312 312 313 313 314 314 313 312 312 310 310 313 312 312 314 313 314 314 313 313 311 314
305 305 304 304 303 303 304 304 304 304 305 308 307 306 307 309 309 310 311 311 312 312 311 311 312 312 312 313 313 312 312 312 312 311 311 312 312 308 312 312 314 313 314 313 312 311 312
305 306 304 304 304 305 305 304 304 305 305 308 309 307 307 308 308 311 310 311 312 311 311 311 312 312 311 312 312 312 312 312 312 312 312 312 312 311 309 311 313 312 310 313 313 313 312
304 305 305 304 305 305 305 305 305 305 308 307 306 307 308 307 308 310 310 311 312 312 310 310 310 312 311 310 310 311 311 311 311 311 311 312 311 309 314 311 311 312 308 309 313 312 312
304 305 305 305 304 305 305 305 305 305 304 305 306 306 307 307 308 310 311 311 311 311 311 310 309 311 309 308 309 310 311 311 311 311 311 311 311 310 309 311 312 309 308 309 309 311 311
303 304 305 305 304 305 305 306 305 303 303 304 304 306 307 307 309 310 310 310 310 310 310 310 308 308 308 309 311 311 311 312 311 310 310 309 311 310 309 309 310 309 308 309 309 310 309
300 304 304 305 305 304 305 305 304 303 303 304 303 305 307 308 306 308 310 310 310 310 310 309 308 308 309 309 309 311 310 310 310 310 310 310 309 310 311 311 313 310 308 307 308 309 307
298 302 304 304 305 305 305 305 305 304 303 304 304 305 306 307 304 306 306 307 309 310 310 310 310 310 309 310 309 308 308 308 309 309 309 308 309 309 310 309 310 307 307 307 310 308 307
296 299 303 304 303 303 304 305 305 305 305 303 303 304 304 305 304 305 305 306 307 308 310 309 309 309 311 311 309 308 307 308 307 308 308 308 307 308 308 309 306 307 306 309 306 305 306
294 297 299 302 303 303 303 303 305 305 305 305 302 303 304 305 304 304 304 304 305 305 305 308 308 309 309 309 308 307 307 306 307 306 306 306 307 308 307 308 306 307 307 305 305 305 305

GFSGBSN_850_thetae_093.txt.gz
Theta_e
307 306 306 306 306 304 305 304 305 305 303 304 304 304 304 304 305 305 305 304 309 312 316 317 317 315 306 308 310 309 306 308 306 307 306 306 305 306 305 305 305 305 306 307 307 306 306
309 308 307 306 305 304 304 304 303 304 303 303 304 304 303 303 303 303 304 304 308 310 313 318 318 311 309 309 309 308 307 307 307 306 305 305 305 305 305 305 304 305 305 305 305 306 306
311 309 308 307 304 305 304 304 302 302 303 303 303 302 304 303 302 303 304 305 308 310 315 317 316 309 310 308 308 308 308 309 309 306 306 306 305 305 306 305 306 305 305 305 305 305 306
309 311 309 305 303 303 303 302 302 301 301 302 302 302 302 302 302 305 305 298 309 312 314 315 310 310 309 308 307 306 304 308 308 306 306 306 305 306 306 306 306 305 304 305 305 306 306
307 305 305 303 302 302 302 302 302 301 301 301 301 300 302 301 302 305 304 302 312 314 313 312 309 308 309 307 307 307 305 307 307 306 305 306 306 306 305 304 300 303 302 305 306 306 307
305 302 301 302 302 302 302 302 301 301 301 300 301 301 302 299 298 304 311 313 312 310 307 307 308 308 307 307 307 306 305 306 307 306 306 306 306 301 302 300 297 303 303 305 306 306 306
302 303 302 302 302 302 302 301 300 301 300 300 301 301 301 299 298 300 308 309 307 305 308 308 308 308 307 307 307 305 305 307 306 306 305 306 300 302 302 303 305 305 305 306 306 307 307
304 303 302 302 302 303 301 301 301 300 301 299 301 300 299 299 300 302 304 306 306 306 307 308 307 306 306 306 307 306 306 307 306 307 306 304 303 303 305 305 306 306 306 307 307 307 308
303 303 301 301 302 303 302 302 302 300 300 300 299 299 298 298 303 303 304 304 305 307 306 307 307 307 306 307 307 307 307 307 307 307 306 306 304 305 306 305 306 306 306 308 309 308 308
303 302 302 301 302 304 304 303 302 300 300 299 299 298 298 299 303 304 304 304 306 307 308 308 307 307 306 308 308 308 307 308 308 307 307 307 305 306 306 307 308 310 309 310 313 313 307
303 304 305 305 305 302 303 303 303 301 300 300 300 299 300 299 301 303 304 305 306 307 309 307 307 306 306 308 308 309 307 308 308 308 308 305 308 308 309 308 308 311 311 313 313 311 310
304 305 306 306 306 306 307 303 303 302 301 301 301 301 300 302 303 303 304 305 307 307 310 310 307 307 308 309 309 308 308 307 306 307 307 307 307 307 307 308 308 310 310 310 310 312 309
304 306 307 307 308 307 306 304 303 304 303 302 301 300 301 302 303 304 304 305 307 304 309 308 309 308 308 311 309 309 308 308 309 308 304 308 309 308 308 309 312 313 314 314 313 312 312
306 307 306 308 307 306 303 303 303 303 302 302 301 301 301 301 303 303 304 305 305 312 309 308 308 308 311 310 311 311 310 309 308 307 310 310 306 312 312 313 313 314 314 319 319 321 319
306 306 308 308 305 303 303 303 303 303 303 301 301 301 301 302 302 303 304 306 309 310 309 309 310 312 311 311 312 310 310 310 311 307 312 313 309 312 313 312 314 315 318 314 318 318 317
306 306 308 303 303 303 303 302 302 302 301 301 302 303 302 302 302 304 305 309 310 308 310 309 309 309 310 310 311 311 312 310 310 311 310 312 314 313 313 313 313 314 314 313 313 319 324
306 306 305 303 303 302 303 304 303 303 303 303 303 304 303 303 304 305 308 309 310 310 311 312 309 310 309 311 312 314 312 311 311 312 310 311 313 314 314 315 315 314 314 314 312 313 319
306 306 304 303 304 303 303 304 304 304 304 303 303 304 303 304 303 306 307 308 309 311 312 310 309 310 310 312 313 313 313 313 312 312 313 312 312 314 315 314 313 312 313 310 310 313 310
306 304 303 303 304 303 304 304 304 304 304 303 303 304 304 305 308 309 309 308 310 311 310 310 310 310 311 311 313 312 313 312 312 311 312 311 309 306 308 308 309 313 312 311 311 309 311
305 304 303 304 304 304 304 304 304 305 306 306 304 298 304 305 306 308 309 309 311 311 310 311 311 311 311 311 311 313 312 312 311 311 311 309 310 308 307 311 311 312 311 311 309 307 311
305 303 304 304 304 304 304 304 304 304 305 307 306 301 305 300 305 306 308 310 310 311 310 310 310 310 311 312 311 311 311 310 311 312 310 309 309 306 309 310 312 311 310 312 311 311 310
305 304 304 305 305 305 305 305 305 305 306 308 307 305 307 307 307 309 307 310 311 310 309 310 310 310 309 310 310 311 310 310 310 309 311 308 307 309 306 310 310 309 307 310 311 311 310
303 305 304 305 305 305 305 305 305 305 305 306 307 307 307 306 304 307 307 310 310 310 309 309 309 309 309 309 308 308 308 309 309 309 309 309 307 304 308 310 309 309 307 308 311 310 312
301 304 305 304 304 305 305 306 304 304 304 305 306 306 306 303 304 308 309 309 309 309 309 309 308 309 309 308 309 310 310 310 310 309 308 309 308 304 303 306 308 308 307 308 308 310 309
299 303 304 305 305 305 305 305 303 304 303 304 304 306 306 302 306 308 309 309 309 309 309 309 308 308 308 309 307 308 308 309 310 309 309 307 308 306 305 304 308 307 308 308 309 309 307
295 300 303 304 305 305 305 305 304 304 303 304 304 306 306 305 304 304 306 309 307 307 307 308 308 308 309 307 306 308 307 308 308 306 308 308 306 306 307 308 310 308 307 307 306 307 306
294 297 300 302 303 304 304 305 305 304 304 303 304 305 305 306 305 306 305 305 307 307 306 308 309 309 309 306 307 306 304 306 307 307 307 305 305 306 307 305 307 307 306 306 308 305 306
296 294 298 300 302 303 303 303 305 305 305 304 302 304 304 305 304 306 305 306 307 306 306 308 307 308 307 308 306 305 305 304 304 304 306 305 304 305 304 306 304 305 305 306 304 305 306
300 293 296 299 299 300 303 303 303 305 305 305 303 302 304 305 304 305 306 306 306 307 306 307 307 307 306 305 304 303 304 302 303 304 304 304 303 305 303 304 304 306 306 306 305 305 304

GFSGBSN_850_thetae_096.txt.gz
Theta_e
306 307 307 308 309 306 304 304 303 304 303 304 304 304 305 303 303 304 304 305 304 307 314 317 317 312 308 308 310 308 305 307 305 306 307 306 306 305 305 304 305 305 304 305 305 305 305
301 305 304 302 304 305 304 303 304 303 301 302 303 303 303 303 303 303 303 303 303 308 310 315 317 316 308 309 310 309 307 307 306 306 305 304 305 305 304 304 304 304 305 305 305 305 305
304 304 302 303 302 303 303 303 303 302 301 301 303 303 302 302 301 302 304 305 306 308 312 314 316 316 310 309 310 308 308 308 306 306 305 305 305 304 306 305 305 305 304 304 304 305 305
304 303 303 303 302 302 302 302 302 301 301 301 301 302 301 302 300 302 305 306 299 306 313 315 314 309 308 307 307 307 309 309 307 305 306 306 305 304 305 305 305 304 303 304 303 305 305
304 304 305 304 302 303 303 302 300 301 301 301 300 302 302 302 299 301 307 299 304 310 313 313 312 311 307 306 306 305 308 308 307 306 305 305 305 305 305 301 298 300 301 303 304 305 306
304 305 304 304 303 303 303 301 300 300 301 301 301 301 301 301 298 306 310 306 310 313 310 309 309 309 307 307 307 306 305 306 306 306 306 306 305 299 300 296 295 302 302 303 304 305 305
304 302 302 302 303 302 302 302 301 301 301 300 301 301 301 300 299 301 306 308 309 308 308 309 308 308 308 307 306 306 305 307 306 306 304 305 298 300 300 302 302 304 304 304 305 305 306
303 304 305 305 303 302 303 303 302 302 300 299 299 299 299 300 303 303 305 302 305 306 307 307 307 307 306 306 305 305 306 306 306 305 305 302 300 302 303 304 304 304 306 306 306 306 308
304 305 306 306 307 305 303 303 303 301 299 299 297 297 298 303 303 302 304 303 305 306 306 306 306 306 307 307 307 306 306 306 306 306 306 306 304 304 305 305 304 303 302 305 306 308 309
305 306 307 307 307 307 305 303 303 301 299 299 299 298 299 302 303 303 303 303 305 307 308 306 307 307 307 308 309 306 306 307 307 307 308 306 305 305 306 306 305 307 307 308 310 313 312
306 307 307 308 307 307 306 304 302 302 301 300 300 300 299 302 303 304 303 305 306 307 309 307 307 306 307 309 308 308 307 308 308 308 307 305 307 308 308 305 307 307 310 310 313 313 310
306 307 307 307 306 303 303 303 303 302 302 301 301 300 300 303 304 304 305 307 307 304 310 309 306 307 308 309 309 309 308 308 306 306 306 306 306 306 306 307 307 308 309 311 311 313 306
307 307 306 304 303 303 303 303 303 302 302 301 300 301 302 303 304 304 305 306 303 306 309 307 309 308 308 310 308 309 308 308 308 305 305 306 308 307 307 308 310 309 312 312 306 312 311
307 306 303 303 303 302 302 302 302 302 300 299 300 301 301 303 303 304 305 302 306 309 308 307 307 307 310 310 310 310 310 309 308 307 308 311 305 310 309 310 313 313 314 317 317 319 317
306 303 303 303 303 302 301 301 301 301 300 301 301 301 302 302 303 303 305 307 308 308 307 308 309 310 310 310 311 310 310 310 310 306 310 313 306 310 311 312 313 315 318 315 316 317 311
305 303 303 302 303 300 300 300 300 301 303 303 303 303 302 303 304 305 305 310 308 307 308 308 309 308 309 310 311 311 311 310 310 308 309 312 316 311 313 313 312 314 313 316 313 314 322
304 303 303 303 302 303 303 304 304 303 303 303 304 303 304 305 306 307 307 308 309 310 309 310 308 308 308 309 309 311 311 310 310 311 310 310 312 311 313 314 314 313 314 313 313 314 318
303 303 304 303 303 304 304 304 304 304 304 304 304 299 305 307 305 305 303 308 308 310 311 309 309 309 308 308 311 312 312 312 311 312 311 311 312 312 313 311 312 312 312 310 310 313 309
305 304 303 304 304 304 304 304 304 305 306 304 303 303 305 307 302 303 307 308 309 310 309 309 310 310 310 311 311 311 312 311 311 310 311 310 307 305 306 307 308 311 310 310 309 307 310
305 304 304 304 304 304 304 304 304 304 304 306 304 299 306 307 306 306 307 309 310 310 309 310 309 310 310 310 310 312 312 311 311 311 311 309 308 308 306 309 309 311 309 310 307 306 310
305 304 304 305 305 305 304 304 305 305 306 307 304 302 305 300 304 305 307 308 310 309 309 309 309 309 310 311 310 310 309 308 310 311 309 308 308 305 307 307 309 310 307 309 309 310 309
302 305 304 304 305 305 305 305 305 305 305 307 307 306 306 305 305 306 306 309 310 309 308 309 309 309 308 310 310 310 309 309 310 308 309 306 306 308 304 309 308 310 306 308 310 310 309
299 303 305 304 304 305 305 304 305 304 304 306 307 307 307 303 303 305 306 309 309 309 309 309 308 308 309 309 308 308 308 307 306 308 308 308 306 302 305 307 308 309 307 308 310 310 310
296 300 303 305 304 305 305 304 303 304 303 306 306 306 306 303 304 306 308 308 308 308 309 309 308 309 309 308 308 309 308 308 307 307 307 308 306 302 303 305 305 308 306 307 308 309 308
298 297 301 303 304 305 305 305 304 304 303 304 304 306 306 302 303 306 306 308 308 308 308 308 308 308 308 308 306 306 305 307 309 307 307 305 305 304 304 303 305 307 306 307 308 308 307
306 295 297 301 303 304 305 305 305 304 304 304 304 306 306 305 303 307 305 307 306 304 305 308 308 308 309 306 304 307 305 307 307 305 305 306 304 305 305 307 308 306 306 307 305 304 305
306 300 294 298 301 302 303 304 305 305 304 303 304 304 305 306 305 305 305 306 307 306 304 306 308 308 309 305 307 305 303 305 305 307 306 303 304 305 306 305 306 305 305 306 307 301 306
307 304 294 295 299 300 301 303 303 304 305 304 302 303 304 304 304 305 305 306 306 306 306 308 306 307 305 307 305 304 303 303 304 302 306 303 303 303 303 305 304 305 305 305 302 305 306
308 307 298 294 297 300 299 301 303 303 304 305 305 303 302 304 304 305 306 306 306 306 307 307 307 306 306 304 302 301 304 300 301 304 302 304 302 302 302 302 302 305 305 306 305 305 305

GFSGBSN_850_thetae_099.txt.gz
Theta_e
306 306 306 305 305 304 304 305 305 304 304 302 303 304 304 305 304 303 302 301 304 305 307 315 318 316 309 309 310 307 309 306 305 307 306 306 306 306 305 304 304 304 303 304 305 305 305
306 305 305 305 304 303 303 303 303 303 302 301 303 304 303 304 303 302 303 303 301 302 305 312 316 317 309 309 309 307 308 306 306 306 305 305 305 304 304 304 303 304 304 304 304 304 304
306 305 306 304 304 305 303 303 302 301 301 301 301 302 303 303 302 303 303 303 304 304 308 311 315 310 310 312 310 308 306 305 305 305 304 305 305 304 305 304 304 304 303 303 303 304 304
305 306 304 303 304 304 304 304 301 301 302 301 301 301 302 302 302 300 299 304 305 303 309 312 314 310 308 312 310 308 308 307 305 305 305 306 305 304 304 304 303 303 302 303 302 304 304
305 305 304 302 304 304 303 302 302 301 301 301 300 300 302 302 301 298 305 308 304 300 312 313 310 308 307 307 307 309 309 307 306 305 305 305 304 305 304 299 296 299 300 301 303 304 304
304 305 305 305 305 303 303 303 302 301 300 301 300 301 301 301 299 302 306 303 302 309 311 309 310 309 305 305 305 308 308 307 306 305 305 305 304 298 298 295 296 300 301 302 303 304 305
305 306 307 307 307 307 303 303 302 302 300 300 301 300 299 299 302 301 306 309 310 309 309 310 309 308 307 306 306 305 306 306 305 305 304 303 298 298 300 301 300 301 302 302 303 304 305
307 307 308 307 308 308 305 303 302 300 299 298 297 298 299 302 302 303 305 305 306 306 306 306 307 307 307 306 305 305 306 306 305 304 303 300 298 301 302 302 302 302 302 304 304 305 307
307 308 307 307 306 307 307 303 303 300 299 297 297 298 301 302 300 302 304 305 306 306 304 306 306 306 306 305 305 305 306 306 306 305 305 303 304 304 304 304 304 302 302 304 305 308 309
308 307 306 304 303 304 305 303 303 301 300 299 299 299 301 301 302 302 304 306 307 307 307 306 306 306 307 307 307 305 306 307 307 306 307 304 304 304 304 305 303 305 304 305 307 313 315
306 303 304 304 303 303 303 303 303 301 301 301 300 300 302 302 303 304 304 307 307 308 307 306 307 306 308 308 307 307 306 308 308 308 305 304 306 306 307 304 304 306 308 309 310 313 313
305 305 304 304 304 303 302 302 302 302 301 301 299 301 304 304 304 304 305 306 307 302 304 309 306 306 308 308 308 308 308 307 306 306 306 304 306 305 305 306 306 307 307 309 310 311 305
305 305 302 301 301 301 301 301 301 300 300 300 301 302 303 304 304 304 306 306 302 307 306 307 307 307 308 308 308 309 308 308 307 300 301 304 306 305 306 307 308 308 312 309 308 305 309
305 305 301 300 299 299 299 299 299 299 300 301 301 302 303 304 304 304 304 302 305 308 308 306 306 308 309 310 309 309 310 310 308 307 309 302 304 308 307 309 312 312 315 316 317 310 315
303 305 302 301 301 300 300 300 300 301 302 301 301 301 303 303 303 305 305 305 307 308 307 307 309 308 310 310 310 310 310 310 309 307 309 309 305 307 308 310 312 314 315 315 317 313 317
303 303 303 303 304 304 304 303 303 304 304 304 304 305 306 306 307 307 303 309 306 306 306 308 308 308 309 310 311 310 309 310 310 308 308 310 312 310 311 312 311 314 312 315 313 317 319
304 303 303 303 304 304 304 305 305 305 304 305 306 306 307 307 308 308 305 307 308 309 308 308 308 307 307 308 308 310 310 309 309 311 308 310 311 310 310 313 313 312 312 313 312 312 318
304 304 304 304 304 303 304 304 304 304 305 305 306 301 307 308 306 303 304 307 309 310 310 309 308 308 307 307 310 309 311 310 310 310 310 310 311 312 310 310 309 311 312 310 307 310 309
304 304 304 304 303 303 304 304 304 304 305 305 305 306 308 308 303 300 305 307 309 309 308 309 310 309 309 308 310 310 311 311 310 309 310 309 306 303 305 305 307 310 310 309 307 305 310
304 304 305 305 304 304 304 304 305 305 307 306 305 301 308 307 306 305 305 307 309 309 308 308 308 308 309 310 309 311 311 310 310 310 311 309 307 307 305 307 308 309 309 306 307 304 310
300 304 304 305 305 305 304 304 304 304 305 306 305 303 304 300 304 303 306 306 309 308 308 308 309 308 309 311 309 310 309 308 309 310 309 307 308 303 305 305 306 307 308 306 309 309 308
297 301 303 305 304 305 305 304 303 303 304 306 306 306 306 303 304 305 305 307 308 308 307 308 309 308 307 310 309 309 308 308 309 307 308 305 305 307 303 308 307 307 307 305 308 310 310
300 297 301 303 305 305 305 305 304 303 303 306 306 306 307 303 303 304 306 308 308 308 308 308 307 307 307 308 308 308 308 307 306 307 306 306 304 301 304 304 306 307 306 307 309 308 309
307 298 298 301 303 305 305 305 304 303 303 306 306 306 305 303 303 305 307 307 307 307 308 308 307 308 308 308 308 307 306 306 305 304 305 306 305 301 303 302 302 305 305 306 306 307 307
307 305 297 298 301 302 304 305 305 304 303 304 305 305 305 302 303 305 307 307 307 307 307 308 308 308 308 308 305 305 304 306 307 305 304 304 304 304 303 301 303 306 305 306 307 306 305
305 308 301 296 299 300 302 304 305 304 303 303 304 305 306 305 301 306 306 306 305 304 304 307 308 308 309 304 303 307 304 306 305 302 303 303 303 304 304 306 307 304 305 306 304 304 304
300 307 305 297 296 299 300 301 303 305 304 304 303 304 304 305 305 305 305 305 306 305 303 305 308 308 308 304 307 305 303 303 305 305 305 303 302 305 306 305 305 303 305 305 306 301 305
299 305 307 301 295 297 300 298 302 303 304 304 304 302 302 303 303 304 304 306 306 306 305 306 305 305 304 306 305 303 302 302 303 302 304 303 302 302 302 304 304 304 304 304 302 305 306
299 301 307 305 295 295 299 299 301 303 303 304 304 303 302 302 304 304 304 304 305 306 307 306 306 305 306 303 302 301 304 299 300 303 300 303 301 301 302 302 302 305 305 306 305 305 306

GFSGBSN_850_thetae_102.txt.gz
Theta_e
308 307 307 306 305 306 303 303 303 303 302 302 303 302 304 304 305 304 302 301 299 305 306 310 316 317 312 310 310 310 311 305 305 305 307 306 306 305 303 303 304 303 303 304 305 304 304
307 306 307 305 304 305 304 303 302 301 301 301 302 302 303 303 304 304 302 302 302 301 304 311 315 317 314 310 311 310 308 305 305 305 305 305 305 304 304 303 302 303 304 304 304 304 303
306 307 306 306 304 304 303 302 301 301 301 301 302 302 302 303 303 302 302 301 303 306 303 310 313 313 311 312 311 308 307 306 305 305 305 304 304 304 304 303 304 304 302 301 301 303 303
305 306 307 306 306 305 304 303 302 301 301 300 300 300 301 302 302 301 300 299 302 305 304 310 311 311 312 311 310 306 305 305 305 305 304 304 304 303 304 304 301 301 301 301 301 302 304
307 308 308 308 308 307 302 303 302 301 301 301 300 301 302 302 301 299 304 306 303 304 308 311 310 310 310 310 308 308 307 306 305 305 304 303 303 304 303 297 296 297 300 301 302 303 304
308 308 308 308 307 307 304 304 303 301 300 300 301 301 301 300 299 305 306 304 304 306 310 309 309 309 307 307 309 309 307 307 305 305 305 304 303 298 297 295 295 301 301 302 302 303 304
308 307 306 305 306 307 304 303 302 299 299 299 300 300 300 302 300 304 307 306 308 307 308 308 309 307 306 305 307 307 307 305 305 304 304 302 298 297 301 300 299 300 302 301 302 303 304
305 303 303 303 305 305 303 303 300 299 297 297 298 298 302 301 302 303 306 306 307 305 305 307 307 306 306 305 305 306 306 305 305 303 302 300 298 301 302 301 302 302 302 302 302 304 305
307 305 304 303 305 303 303 302 301 299 298 298 299 299 301 301 302 306 306 306 306 305 304 306 306 306 306 305 305 305 306 305 305 305 304 303 304 303 303 303 303 299 300 302 303 306 307
303 306 305 304 303 303 302 303 301 300 300 300 300 299 302 302 303 305 306 305 306 306 306 305 307 306 307 305 307 306 306 307 306 305 307 304 304 304 304 304 301 304 303 304 306 309 312
301 304 304 302 301 301 302 303 302 301 301 299 302 304 303 303 302 305 306 307 308 307 307 307 306 306 308 307 306 306 306 307 308 307 302 302 305 306 306 303 303 306 306 307 309 311 311
300 300 303 299 298 298 298 300 300 299 299 301 302 304 303 305 306 306 306 308 305 304 307 307 306 306 307 308 308 307 307 307 306 306 305 303 305 305 304 305 304 306 307 309 310 309 305
302 303 302 300 299 299 299 299 300 300 300 301 303 304 305 306 305 306 307 306 302 305 305 307 306 307 308 308 307 309 307 307 306 298 297 302 305 305 305 306 307 307 311 306 304 301 307
303 305 305 304 304 303 303 302 302 301 300 302 302 303 304 305 305 305 305 300 303 307 307 305 306 308 308 309 308 309 308 305 307 307 303 304 304 307 306 308 311 311 314 316 313 307 310
304 303 303 304 304 305 304 305 305 304 303 303 305 306 306 306 306 305 304 304 302 306 306 306 308 307 307 309 309 308 309 309 308 306 308 310 304 306 307 308 310 313 314 314 315 311 314
304 304 304 304 304 304 304 304 304 305 304 305 306 307 307 307 307 306 303 308 305 306 306 307 308 307 308 310 310 309 309 308 310 307 308 310 313 308 309 310 310 311 311 310 312 310 311
304 304 304 304 304 304 304 304 304 305 305 306 307 307 308 308 308 308 306 307 308 308 307 308 307 307 307 309 308 309 310 308 308 309 307 310 310 307 308 311 312 310 310 311 310 310 315
304 304 304 305 304 304 304 304 305 306 306 307 308 302 308 309 306 302 305 306 308 309 309 309 307 306 307 307 309 309 310 308 309 310 310 309 311 311 308 309 307 310 311 307 307 309 307
303 304 305 305 305 305 304 304 304 305 306 306 307 308 309 309 303 300 304 307 308 308 307 308 309 308 307 307 310 308 308 310 309 308 309 309 306 303 303 304 306 309 309 308 307 304 307
299 302 304 304 305 306 305 305 304 304 306 306 307 301 308 307 305 304 305 305 307 308 307 307 308 307 308 309 307 309 310 309 309 309 310 308 306 306 304 305 306 308 307 306 306 301 308
302 299 301 304 304 305 306 306 303 303 304 306 307 303 304 300 304 303 305 306 308 308 307 308 308 307 308 309 309 309 308 307 308 309 309 306 307 303 304 304 305 306 307 306 306 306 307
308 299 299 301 304 305 305 306 305 302 304 306 306 306 305 303 304 304 304 306 308 308 307 308 308 307 307 309 308 308 308 307 308 306 307 304 304 305 302 306 305 307 305 305 304 308 306
306 306 298 299 301 304 305 305 305 303 304 306 306 306 305 302 302 304 305 307 307 307 307 308 307 306 306 307 308 308 308 307 306 307 305 305 303 301 305 303 304 306 305 305 306 307 307
300 308 303 297 300 301 304 305 306 303 304 305 305 305 305 303 301 304 306 307 306 307 307 307 307 307 307 307 307 306 305 305 304 303 304 304 304 301 303 302 301 303 304 305 306 305 305
299 303 307 298 296 300 301 303 305 304 303 304 305 305 305 301 302 304 306 306 307 306 305 307 308 308 308 307 304 303 302 304 305 303 302 302 303 303 302 300 303 304 304 305 306 305 303
302 300 306 305 296 296 300 300 303 305 304 303 303 304 305 304 300 305 305 306 304 303 303 306 307 307 308 303 303 306 303 304 304 302 301 301 301 304 303 305 304 300 304 305 304 303 302
307 300 302 307 301 295 297 300 299 303 305 304 303 302 304 305 305 305 304 304 306 304 302 304 307 307 307 303 306 304 302 301 304 304 304 303 301 305 305 304 304 302 304 304 306 300 304
313 304 300 306 306 297 295 299 298 301 303 304 304 303 301 303 303 303 304 305 305 305 304 306 305 304 303 305 305 303 302 301 302 301 302 302 301 301 301 304 304 303 304 305 302 304 305
315 309 302 303 307 304 295 297 299 299 302 303 304 304 303 302 302 303 303 304 303 305 306 306 305 304 306 302 301 300 303 297 299 303 298 301 300 301 301 302 301 304 305 306 305 305 305

GFSGBSN_850_thetae_105.txt.gz
Theta_e
306 305 306 307 306 304 305 304 303 301 301 302 303 303 303 304 304 305 304 302 300 301 306 312 316 316 312 310 312 313 311 306 305 306 306 306 305 304 303 303 303 303 303 304 304 304 304
307 308 308 308 308 307 304 303 302 301 300 300 302 303 302 303 303 305 305 302 302 301 305 310 314 316 312 312 311 312 306 305 305 305 305 305 305 304 303 303 303 303 303 303 303 302 302
309 310 310 309 307 308 304 302 302 301 301 301 301 301 302 303 303 304 302 302 302 306 304 312 315 314 313 310 312 309 306 305 305 305 305 304 304 304 303 303 303 303 302 301 301 303 303
309 309 307 306 305 305 303 303 302 301 301 301 300 300 301 302 302 302 301 299 300 307 304 311 311 312 311 309 306 306 305 305 304 304 304 303 303 303 303 303 300 300 300 302 301 302 303
306 308 306 305 304 303 304 303 302 300 300 301 301 301 302 302 301 300 303 303 303 305 307 311 311 311 310 307 307 307 307 305 304 304 304 303 302 303 301 298 299 299 302 302 304 303 304
306 307 306 304 304 302 302 301 300 299 301 301 301 301 301 300 304 306 304 303 304 307 310 310 311 310 308 309 308 307 307 305 304 304 305 304 303 300 299 299 300 302 303 302 303 304 303
305 306 305 304 303 303 300 299 300 300 298 297 298 302 301 300 303 306 305 306 307 307 307 308 308 308 308 307 308 306 306 305 304 304 304 302 301 300 301 299 298 300 302 302 302 303 304
304 305 307 303 302 303 301 299 299 299 298 299 299 302 301 303 304 306 307 305 304 304 306 306 306 305 305 305 306 306 305 305 304 304 302 302 301 301 301 301 302 302 302 303 303 303 306
301 305 306 305 302 303 303 301 301 300 300 301 299 302 302 305 305 306 304 305 305 306 304 305 306 306 305 305 305 306 306 305 304 304 303 303 304 301 303 303 303 301 302 302 305 305 307
298 301 302 301 300 300 301 300 300 299 300 303 304 303 303 305 305 306 304 306 306 306 306 306 306 305 306 305 306 306 306 307 305 306 305 304 303 303 303 304 302 304 302 304 305 309 312
301 299 299 299 299 299 299 299 299 300 302 303 303 304 304 304 305 306 306 307 307 306 305 307 306 307 307 306 305 305 306 307 306 306 302 303 304 305 306 303 302 307 305 306 308 310 311
306 304 303 302 301 301 302 301 301 301 303 305 305 305 306 306 306 306 306 307 305 301 307 307 306 306 307 307 307 306 307 306 305 304 302 303 304 304 304 305 303 305 308 310 310 309 309
303 304 304 304 304 303 303 303 302 301 303 304 304 306 307 307 307 307 307 305 301 307 305 306 307 307 307 307 307 308 306 305 303 300 297 302 305 304 305 306 306 308 312 312 306 305 311
303 303 303 303 304 304 304 304 305 303 303 306 306 306 306 306 307 306 305 301 302 307 307 305 307 307 308 308 307 308 307 304 306 305 300 301 304 306 306 308 311 312 313 315 315 311 311
304 304 303 303 304 304 304 304 304 305 305 306 306 306 307 307 306 306 305 305 302 306 305 305 306 306 306 308 307 307 307 307 307 304 305 307 305 305 306 307 310 313 313 313 315 311 313
305 305 304 304 303 304 304 305 305 306 306 307 307 307 307 307 306 306 303 306 304 305 305 306 307 306 308 309 308 308 308 307 309 306 307 310 310 308 309 309 309 311 310 310 312 314 313
304 305 305 305 304 304 304 304 305 306 307 307 307 308 308 308 308 307 301 304 307 307 307 307 306 307 306 308 307 308 309 307 308 307 307 310 310 307 307 310 310 311 310 310 310 311 314
301 303 304 305 306 305 304 304 304 306 307 308 308 303 308 309 307 301 305 307 308 308 308 308 306 306 306 306 308 308 310 308 308 309 311 309 311 310 308 307 306 309 309 306 309 309 308
299 300 303 305 305 306 306 304 303 304 306 306 308 308 308 309 303 298 304 306 307 307 306 307 308 307 306 307 309 308 308 309 309 308 309 308 308 308 303 303 305 309 308 307 305 304 308
304 299 300 303 305 305 306 306 303 303 306 306 306 300 308 308 305 303 305 306 307 307 307 307 307 307 307 308 306 308 309 308 309 309 310 309 305 306 306 305 305 308 307 306 306 305 307
306 304 299 300 302 305 306 306 304 302 305 306 307 303 303 300 304 303 304 306 308 308 307 307 307 307 308 309 308 308 307 307 307 309 309 306 307 302 304 305 305 306 307 305 305 305 308
301 307 302 298 300 301 305 306 305 302 305 306 307 306 304 303 303 304 305 306 307 307 307 308 308 307 306 308 307 308 307 306 306 306 306 303 306 304 302 305 305 306 305 304 305 305 305
301 302 307 299 298 300 301 305 306 303 305 306 306 306 305 301 301 303 304 306 306 306 307 307 306 305 306 305 308 308 308 307 306 306 304 304 303 302 305 303 303 304 304 304 305 304 306
305 301 305 306 297 298 300 301 306 304 304 305 305 305 304 302 301 303 305 306 305 306 306 306 307 305 306 307 307 306 305 304 303 303 304 303 303 301 303 302 299 301 303 303 304 305 304
317 306 301 306 305 296 298 300 302 305 303 303 304 304 305 300 301 302 305 305 306 306 305 306 307 307 307 307 303 303 301 303 303 301 300 301 303 303 302 301 303 302 304 305 306 305 303
316 315 306 302 307 303 295 299 299 302 305 303 303 304 304 304 299 304 305 305 303 302 302 306 307 307 307 302 302 304 302 302 303 302 299 300 300 304 302 304 304 299 303 304 303 303 300
315 314 314 303 304 307 299 295 299 299 303 304 304 302 303 304 304 304 304 304 305 303 301 303 306 306 306 302 305 303 301 300 303 303 304 303 301 305 305 304 304 301 304 304 306 301 303
315 314 313 312 302 306 305 296 296 299 300 303 303 304 302 302 302 303 303 304 304 305 303 305 304 303 302 304 304 303 302 300 301 300 300 302 300 301 301 304 304 302 303 305 302 303 304
315 315 314 313 312 304 306 300 294 298 298 301 302 303 303 302 303 303 303 303 303 303 305 305 304 303 305 301 300 300 303 297 298 303 297 302 299 300 301 302 301 303 305 306 305 305 305

GFSGBSN_850_thetae_108.txt.gz
Theta_e
310 309 309 307 306 307 308 302 303 301 300 302 302 302 302 304 305 305 305 303 302 306 307 310 313 316 313 312 312 313 311 305 305 306 306 306 306 307 308 307 306 307 306 306 306 306 305
308 309 305 304 304 305 303 302 302 301 302 302 303 301 301 302 303 304 305 303 302 302 307 314 311 314 312 311 311 310 306 305 305 306 306 305 306 305 306 306 307 306 306 306 305 304 304
306 306 304 304 304 303 303 302 301 301 302 300 300 300 301 303 303 303 304 302 304 303 307 311 312 312 311 308 310 306 305 305 305 305 305 304 304 306 305 306 304 305 306 305 305 305 306
307 304 304 303 302 302 301 300 301 302 300 300 300 300 301 302 301 302 301 301 304 304 310 312 310 311 307 307 305 305 305 304 304 304 304 304 303 303 305 303 303 305 306 308 306 306 306
306 305 305 304 304 301 298 298 298 300 300 301 302 302 302 301 300 300 299 299 306 304 309 312 311 309 306 305 306 306 305 304 304 304 303 303 303 304 303 306 307 307 308 308 308 306 307
305 305 306 306 305 303 300 298 299 297 297 298 301 301 300 302 306 305 305 304 306 307 310 310 310 309 307 306 306 306 305 304 304 304 304 304 304 307 307 309 313 307 308 308 308 308 308
304 305 306 306 304 303 302 300 300 299 299 298 302 302 302 306 305 304 304 308 307 306 307 307 309 308 307 307 306 305 305 305 305 306 307 304 311 309 307 305 305 306 308 309 309 307 309
299 303 305 305 306 305 303 301 300 302 302 299 302 301 304 305 304 304 306 305 305 305 306 306 307 307 306 306 306 306 305 306 307 308 306 309 309 305 305 305 307 307 309 311 310 307 310
299 299 299 303 305 303 301 301 302 302 303 303 302 303 305 306 306 305 305 305 305 306 305 306 306 306 306 306 306 306 307 306 307 308 308 309 306 304 306 306 308 309 310 311 311 310 313
303 301 300 300 301 302 303 302 302 304 304 304 304 304 305 305 304 306 306 306 306 306 310 307 307 306 306 306 307 306 306 308 307 309 308 308 305 305 306 307 307 312 307 308 310 313 316
305 305 304 303 303 303 302 301 303 304 305 305 304 304 305 305 306 306 306 307 307 306 314 307 307 306 307 306 306 306 306 308 308 307 307 307 307 308 309 309 307 311 307 309 311 312 312
303 303 303 304 304 304 304 304 302 303 304 306 306 305 305 304 305 306 307 307 304 315 310 308 307 308 308 307 307 307 307 306 306 307 306 307 305 307 308 307 306 308 311 312 311 311 314
303 303 303 303 303 304 304 304 304 305 305 307 307 306 306 306 306 307 307 304 314 311 305 308 308 308 308 308 308 308 308 309 309 314 312 308 308 307 306 311 310 310 314 318 319 318 320
304 304 303 303 303 304 305 305 305 304 306 306 306 306 307 306 307 306 305 309 310 307 307 307 307 309 310 309 309 309 309 311 308 309 311 314 315 309 308 311 314 314 314 315 319 321 318
304 305 305 304 303 303 304 304 306 307 307 307 307 307 307 307 306 306 307 310 309 308 307 308 308 310 310 309 309 310 310 310 310 308 313 314 315 308 308 309 312 314 315 313 315 315 315
303 304 305 305 305 304 303 304 306 307 307 308 308 308 307 307 306 306 310 307 308 306 306 308 310 308 311 311 311 311 312 309 310 308 309 311 314 310 311 310 311 314 312 314 316 317 319
300 301 304 305 306 305 304 303 306 307 307 307 308 308 308 309 308 308 309 309 308 307 307 309 309 309 309 311 310 311 312 310 310 309 309 311 311 312 310 313 316 314 315 314 313 314 317
303 300 301 304 305 306 306 303 304 307 307 308 308 312 308 309 312 308 311 309 308 307 308 309 308 309 310 310 311 312 312 311 309 310 312 311 312 313 313 310 309 311 312 312 313 314 314
307 303 299 301 303 305 306 305 302 305 306 307 308 308 308 308 315 312 308 308 308 309 308 309 310 309 308 310 311 311 311 310 309 311 312 312 312 314 309 309 309 311 312 311 310 310 313
302 307 304 299 300 303 306 306 302 303 306 307 307 314 308 308 306 309 310 309 310 307 308 308 309 308 309 311 309 312 312 310 309 310 309 310 311 313 312 310 308 310 310 311 311 313 312
308 303 307 303 299 300 303 306 303 303 306 306 307 306 305 312 309 307 308 309 310 310 308 307 309 310 311 311 310 311 310 309 309 310 311 311 313 312 311 311 311 311 311 310 311 311 311
312 307 304 307 302 299 300 305 305 304 306 307 307 307 305 304 304 307 307 309 309 309 308 310 310 309 309 311 311 311 310 309 310 309 311 308 313 309 309 310 309 309 309 309 310 310 310
317 311 305 305 307 301 300 300 306 303 306 306 306 306 306 303 306 308 308 308 308 308 307 307 307 308 308 308 307 308 308 307 307 309 309 309 311 310 311 309 308 309 308 308 308 308 309
317 315 309 305 305 306 300 300 300 306 303 305 305 305 305 306 306 308 307 307 308 307 308 307 307 308 306 307 307 306 306 306 306 307 307 309 308 309 312 310 309 305 306 306 308 308 308
315 316 313 306 304 306 304 298 300 301 305 303 303 304 304 305 304 304 305 307 306 306 307 307 307 307 307 307 309 308 307 306 306 305 306 306 309 311 312 310 308 305 306 307 308 308 307
315 315 315 312 304 304 307 301 298 299 301 305 303 303 304 305 305 305 306 306 308 307 306 305 306 306 307 307 307 308 306 304 306 305 303 305 307 308 308 310 308 304 305 305 306 308 304
315 314 314 314 311 304 305 306 298 298 299 301 304 304 302 303 304 303 305 306 305 305 307 305 305 306 306 309 309 308 307 303 306 306 308 308 307 309 309 309 310 308 306 304 308 306 304
314 314 313 313 313 313 305 306 303 297 299 299 301 303 304 302 303 303 303 304 305 305 307 305 306 305 306 309 309 308 308 306 305 305 305 308 309 308 308 310 311 305 304 307 307 304 304
312 313 313 312 313 313 311 304 306 298 297 299 301 302 302 303 304 304 304 302 303 303 304 305 305 305 307 308 306 307 308 305 306 308 301 305 306 307 308 308 306 304 307 305 305 304 304

GFSGBSN_850_thetae_111.txt.gz
Theta_e
304 303 304 304 304 303 303 302 301 301 301 301 300 301 303 305 306 306 306 304 301 307 307 315 315 314 310 314 312 312 308 306 306 307 308 308 308 309 311 310 309 310 309 308 308 307 307
303 302 306 306 304 304 304 303 301 302 301 300 300 301 302 303 303 303 305 305 300 306 311 313 312 313 312 312 310 307 306 305 307 307 308 308 308 309 309 309 310 308 308 308 307 306 306
306 304 306 306 304 304 302 303 303 302 301 302 301 300 303 302 304 305 305 301 302 305 312 313 311 310 311 309 307 306 305 305 306 307 307 307 307 309 308 308 307 307 309 308 307 307 308
305 305 305 306 304 303 303 302 302 303 303 302 302 301 302 302 304 303 302 301 305 307 310 312 312 312 306 306 307 306 306 305 305 305 305 306 307 307 308 305 306 309 308 311 308 308 308
306 305 305 305 305 304 303 302 302 300 301 302 302 301 302 301 301 301 300 301 306 308 311 310 311 309 306 306 307 307 307 306 305 304 303 303 305 306 306 309 310 309 313 310 311 309 310
305 305 305 304 305 305 303 303 302 301 299 302 302 300 302 305 302 299 300 306 306 308 310 309 308 308 306 306 307 307 306 306 306 306 306 307 307 309 309 312 321 313 310 310 310 311 310
302 300 304 303 303 303 303 304 304 302 301 302 302 303 305 305 304 303 306 307 307 306 309 309 309 308 306 306 307 307 307 307 307 308 310 307 315 315 309 307 308 309 310 311 311 311 311
302 301 301 301 302 304 304 304 305 304 302 303 302 305 304 305 304 306 307 305 305 304 305 306 307 307 307 307 307 307 307 308 309 310 308 311 312 307 307 308 309 310 311 313 313 311 313
308 307 305 305 304 302 303 305 305 305 305 303 304 305 306 305 305 306 307 306 306 307 307 307 306 307 307 308 308 308 308 308 310 311 310 313 309 307 308 309 310 311 312 313 313 314 315
304 304 304 304 306 305 304 304 305 305 304 304 305 305 305 305 306 306 307 307 306 307 312 308 308 307 307 307 308 308 308 309 309 311 311 310 306 307 308 310 310 316 310 311 314 315 320
303 303 303 303 304 304 304 303 305 305 305 304 305 305 305 307 306 307 307 307 306 307 318 308 308 308 308 309 307 307 308 309 310 309 311 310 309 310 312 312 310 314 311 313 313 313 314
303 303 303 303 303 305 305 304 305 306 306 305 305 305 307 307 307 307 308 306 305 316 312 310 309 309 309 309 309 308 308 308 308 309 310 309 307 309 311 310 309 310 314 313 313 313 319
305 304 304 304 303 303 305 306 305 307 307 306 306 306 306 305 308 308 306 305 316 313 307 309 309 309 309 309 310 310 311 311 312 314 313 311 311 309 308 314 313 314 317 323 322 322 324
304 305 305 305 304 303 303 306 306 306 306 306 306 307 307 306 307 307 306 312 312 308 309 308 309 310 311 311 311 311 312 314 311 311 314 317 316 312 311 314 315 315 316 317 319 323 321
301 304 305 305 305 304 303 305 307 307 307 307 307 306 306 306 306 306 310 314 310 310 309 309 310 312 312 311 311 312 313 313 311 311 316 318 317 310 310 311 314 316 316 314 316 315 315
300 301 304 305 306 305 304 304 307 307 308 307 308 309 307 307 306 310 312 310 310 309 309 310 310 311 312 312 313 313 314 311 312 310 311 313 318 312 313 312 312 315 314 315 316 317 319
306 300 301 303 306 306 305 303 306 307 307 307 307 312 308 309 311 311 315 311 309 308 309 311 311 311 312 313 313 313 313 312 311 311 311 312 314 315 311 314 317 315 315 314 314 314 316
305 306 300 300 303 306 306 303 305 306 306 308 310 315 308 311 315 313 314 310 308 309 309 311 310 312 313 312 313 313 314 313 311 311 313 313 314 316 315 313 313 314 315 314 314 313 314
303 305 305 300 300 303 307 306 302 305 306 307 311 311 308 311 317 314 311 310 310 311 311 311 312 312 311 312 313 313 312 312 311 312 313 313 315 316 314 311 311 312 312 313 314 312 312
310 304 306 305 300 300 304 307 303 304 306 307 310 316 312 310 310 312 312 312 312 309 310 310 311 311 311 312 312 313 313 312 311 312 310 311 313 314 314 312 312 312 311 312 313 314 312
316 311 306 306 305 300 300 305 305 304 306 307 309 310 308 315 311 311 311 311 312 312 310 310 311 312 312 313 312 312 312 311 310 311 312 313 314 313 313 312 311 311 311 311 312 312 313
317 315 311 307 307 304 300 300 306 304 306 307 311 311 307 309 308 311 309 312 311 311 311 311 311 311 311 312 312 312 311 311 311 311 312 312 313 312 311 310 310 310 310 311 311 311 311
316 317 315 311 307 307 303 300 301 305 305 307 306 306 308 307 310 310 311 311 311 310 310 310 310 310 310 310 309 309 309 310 310 310 312 312 312 312 312 311 311 312 311 310 309 310 310
316 316 316 314 310 306 307 302 300 302 305 304 304 305 308 309 309 310 309 309 309 310 310 309 309 310 309 307 308 308 308 308 309 309 309 310 310 311 312 311 313 309 308 307 308 309 309
315 315 315 315 313 308 305 307 301 299 302 305 303 304 307 308 306 306 308 309 309 308 308 309 309 308 307 308 309 309 309 307 308 309 309 309 310 311 312 312 311 309 306 308 308 309 309
314 314 315 314 313 314 310 305 307 300 299 302 304 303 305 307 308 305 307 307 309 309 309 308 306 306 307 309 309 309 308 307 307 307 305 308 309 310 311 310 310 307 308 307 308 309 309
313 313 313 313 313 313 314 308 305 306 300 299 302 303 303 306 306 304 306 307 307 307 308 308 308 308 307 310 310 309 309 306 307 307 309 309 308 310 311 310 309 310 308 307 308 308 307
312 312 312 311 312 313 313 313 307 306 304 299 300 301 302 304 305 303 304 305 306 306 307 307 308 307 309 310 310 310 309 309 307 307 308 310 311 310 309 310 311 307 307 307 308 307 306
312 311 311 312 311 312 312 313 312 307 305 301 299 300 301 301 303 302 303 303 303 305 306 306 307 307 309 310 310 309 309 309 308 308 307 307 308 309 310 311 309 307 308 307 307 306 306

GFSGBSN_850_thetae_114.txt.gz
Theta_e
306 309 307 306 305 305 304 303 304 304 304 302 301 303 305 306 306 306 306 303 302 307 310 312 313 314 314 312 310 309 307 305 305 308 308 309 310 311 312 311 309 311 310 309 308 308 307
305 307 307 306 304 304 304 303 304 303 303 302 302 302 304 304 303 303 305 303 304 307 309 313 313 313 313 310 308 307 306 307 308 308 308 308 309 309 309 309 310 309 309 309 307 307 307
305 306 306 305 304 303 303 303 303 303 302 301 301 302 302 302 304 305 304 302 306 309 312 312 311 311 310 306 307 307 307 306 308 308 308 308 308 309 309 309 308 307 308 308 308 308 309
307 306 305 305 305 304 303 302 302 302 303 303 302 302 303 304 305 304 301 304 304 307 313 311 311 311 306 307 308 307 307 306 306 307 306 306 308 308 308 307 307 308 308 310 308 308 309
305 304 304 304 304 305 305 305 302 302 303 302 302 302 302 304 302 301 302 304 309 311 311 310 311 311 306 306 307 307 307 306 305 304 304 304 307 307 307 309 309 308 309 310 310 309 310
302 302 303 305 306 306 306 306 304 302 303 301 302 304 304 302 300 299 306 306 310 309 310 310 309 308 306 307 307 307 307 307 307 306 306 307 308 309 309 314 317 311 309 310 310 310 310
308 308 307 307 304 305 306 306 305 303 302 303 305 305 304 302 300 308 307 307 308 307 308 308 307 307 306 307 307 307 307 308 308 309 309 308 315 314 307 307 308 309 309 310 311 310 311
304 304 305 306 307 307 306 306 306 305 303 304 305 305 303 302 306 308 307 306 305 306 305 306 306 307 307 307 308 308 309 309 310 310 308 312 310 308 308 309 310 310 311 313 313 311 313
304 303 304 305 306 306 307 307 305 305 304 304 305 304 305 306 307 306 306 307 307 307 305 306 307 307 307 308 309 308 310 309 311 311 311 312 309 307 309 309 311 311 312 312 313 313 314
303 303 303 303 305 305 304 306 305 304 304 305 305 306 305 306 307 308 308 307 307 309 310 308 308 307 308 308 308 308 309 310 310 311 311 309 307 308 309 310 310 316 311 312 314 313 314
304 304 303 303 303 306 306 306 306 305 304 305 305 306 308 308 308 308 307 306 305 310 312 308 309 308 309 309 307 308 308 310 311 309 311 310 309 310 312 310 310 314 311 313 313 313 311
305 305 304 304 303 305 306 307 307 306 305 305 305 306 307 308 308 307 306 305 309 315 310 310 309 309 310 309 309 309 309 308 309 310 310 309 308 309 311 311 310 311 313 315 313 313 315
304 305 305 305 304 304 306 306 307 307 307 307 307 307 308 308 309 307 306 308 312 312 307 309 309 310 310 310 310 311 312 311 312 313 310 311 311 310 309 313 312 313 314 313 314 321 315
301 304 305 305 305 303 305 306 306 307 307 307 307 307 307 305 306 307 306 311 310 308 310 309 310 310 311 311 311 311 313 312 310 312 313 313 310 312 311 313 315 315 315 309 314 314 312
300 301 304 306 306 304 303 306 307 307 307 308 307 307 307 306 306 306 309 311 310 310 309 310 310 312 312 310 311 313 313 313 311 311 315 312 314 310 311 312 313 315 315 313 311 312 311
306 300 300 304 306 306 303 305 307 307 307 307 308 310 308 308 310 311 312 311 310 309 310 311 311 310 313 312 313 314 314 312 312 311 311 313 314 313 312 312 312 314 313 313 314 310 313
307 305 301 300 303 307 305 303 305 306 306 307 310 313 308 310 313 312 313 310 309 309 310 311 311 311 312 313 313 313 313 311 311 311 311 312 313 313 312 313 316 313 314 313 312 312 311
309 307 306 301 300 303 307 303 303 306 306 308 312 317 308 313 316 313 313 311 310 310 310 311 311 312 313 312 313 313 313 313 311 312 313 312 312 312 314 313 312 313 314 312 311 312 311
315 311 307 307 302 300 304 306 303 305 306 306 311 312 310 314 318 314 311 311 311 311 311 312 312 312 311 313 313 313 312 311 311 312 313 312 313 309 314 311 311 311 311 312 312 311 311
316 315 312 308 308 303 301 305 304 305 306 307 312 313 313 311 312 312 312 312 312 310 311 311 312 311 312 312 312 313 312 312 311 312 311 311 312 311 310 311 311 311 311 310 311 310 311
316 316 315 312 308 308 303 301 305 305 306 309 311 310 310 316 312 311 312 312 312 312 311 310 312 312 312 313 312 312 312 311 311 311 311 311 311 310 311 311 311 310 310 310 310 310 311
315 316 316 314 310 308 308 304 302 305 307 307 312 311 309 310 309 311 309 312 312 312 311 312 311 312 311 312 312 312 311 311 310 311 311 311 309 310 307 309 309 309 309 309 309 310 310
315 315 316 315 313 308 308 307 303 302 305 306 307 307 309 309 310 310 311 312 311 310 311 310 310 310 310 310 309 309 309 309 309 310 310 311 309 308 309 309 309 309 309 309 309 308 308
315 314 315 314 314 314 310 307 305 302 302 304 303 305 308 309 308 309 310 309 310 310 310 310 309 309 308 308 307 308 308 308 308 308 309 309 309 309 308 307 309 309 308 307 308 308 307
313 313 313 313 313 314 314 309 306 304 301 302 304 304 307 307 306 306 307 309 309 309 308 309 309 309 308 308 308 308 308 308 308 307 307 307 308 308 305 307 309 309 306 306 306 306 306
314 313 313 312 312 313 313 313 308 306 304 301 301 303 304 307 307 306 306 307 307 307 308 308 308 308 307 308 308 308 307 307 307 307 305 306 307 308 307 308 309 308 306 307 307 305 305
313 313 312 312 312 312 312 312 313 310 306 303 301 301 303 306 306 305 306 306 307 307 307 308 308 307 308 308 308 307 306 306 304 306 305 306 307 309 309 309 308 306 306 307 305 304 306
312 312 312 311 311 312 311 312 312 312 309 305 302 301 300 304 302 303 304 305 305 306 305 307 307 307 307 308 308 307 307 305 306 306 307 307 305 306 307 307 307 307 306 305 305 306 306
311 312 312 311 310 310 311 311 311 311 311 307 303 301 299 300 302 302 302 302 304 305 305 306 307 307 308 307 307 306 307 306 306 305 305 304 307 306 307 307 307 308 308 307 307 307 306

GFSGBSN_850_thetae_117.txt.gz
Theta_e
308 306 306 305 304 304 305 304 303 302 302 300 304 305 306 307 306 306 303 302 305 307 312 313 314 315 314 310 307 307 306 306 306 311 311 311 310 311 309 309 308 308 308 308 308 307 307
307 307 306 306 305 304 303 302 304 303 302 300 301 302 305 305 303 305 304 302 306 308 311 312 315 314 314 307 307 306 307 307 308 308 308 308 309 309 309 308 308 309 308 308 307 306 306
306 305 306 306 306 306 304 299 301 304 303 301 302 302 302 302 305 305 303 305 308 313 313 311 311 313 309 306 307 306 306 307 308 308 308 308 309 309 309 307 307 307 307 306 306 307 307
306 307 306 306 307 307 306 302 302 303 302 303 302 304 304 305 305 302 304 306 309 311 311 310 312 311 306 307 307 307 306 306 307 307 308 308 309 309 308 307 306 307 305 307 307 307 308
308 307 306 305 307 307 307 304 302 303 302 301 301 303 304 303 301 303 306 310 311 312 311 311 311 310 306 307 307 307 306 305 305 305 305 306 306 306 307 305 304 305 306 308 308 309 309
308 306 307 307 308 307 306 306 303 301 304 305 305 304 304 300 301 308 309 310 310 309 310 309 309 309 307 307 307 307 306 306 304 306 306 307 309 304 303 307 308 308 307 308 309 309 309
308 308 307 307 307 308 306 306 305 303 305 306 304 304 301 302 307 307 309 309 309 307 307 307 307 306 306 307 308 307 308 307 308 308 305 309 303 301 306 307 307 308 309 308 310 309 311
304 307 308 308 306 308 306 305 304 303 305 305 302 300 302 308 307 308 308 307 306 307 307 308 307 308 308 308 308 309 309 309 309 306 308 304 303 307 307 308 309 309 309 310 310 312 312
304 304 307 308 306 306 307 305 304 303 305 304 304 305 307 307 307 308 307 307 307 307 308 308 308 308 308 308 308 308 309 309 308 308 308 306 307 307 308 308 310 309 310 310 311 311 311
305 304 303 306 306 307 306 305 304 304 305 305 303 305 307 307 309 309 309 308 307 308 306 308 308 308 308 308 307 308 309 310 309 309 307 306 306 308 308 308 308 312 310 311 313 308 308
305 304 304 304 306 306 307 306 306 304 305 306 305 307 308 308 308 307 306 305 305 310 308 308 309 308 309 308 307 307 309 309 309 309 308 307 307 309 311 307 309 312 310 311 313 310 306
305 305 305 304 304 306 307 307 307 307 306 306 308 308 308 308 308 307 306 305 309 307 308 309 309 310 310 309 309 309 309 308 308 309 307 307 308 308 310 310 309 310 312 313 313 313 311
302 305 305 305 304 305 306 307 307 308 307 307 308 308 308 308 308 307 306 309 303 305 306 309 309 309 309 310 310 310 310 310 307 300 301 308 309 309 309 311 311 311 311 304 313 311 311
300 301 305 306 304 304 306 307 307 307 307 307 307 307 307 306 306 306 307 303 303 305 308 308 309 309 310 309 310 310 311 307 309 310 306 302 301 310 309 312 313 313 310 303 305 307 308
304 300 301 306 306 304 304 306 307 307 307 307 308 308 308 308 307 308 310 303 302 306 308 309 310 310 310 310 310 311 311 310 310 309 309 304 307 310 309 311 312 314 310 311 305 304 303
307 305 301 301 306 306 303 304 305 306 307 307 308 310 308 311 311 311 305 307 307 308 309 309 310 309 311 311 311 311 311 310 310 310 310 312 309 311 311 311 311 313 312 309 307 305 309
310 308 307 301 300 305 306 303 304 306 307 307 312 312 308 310 313 310 302 305 308 308 309 310 310 310 310 312 311 312 312 310 310 310 310 311 309 311 311 311 312 311 312 312 310 308 308
314 311 308 307 302 301 305 305 304 305 307 309 312 307 311 313 310 308 303 309 309 309 310 310 310 310 311 311 312 312 311 312 311 310 312 311 310 308 310 309 310 310 311 310 308 310 307
316 314 311 309 308 303 301 305 305 306 306 308 310 312 311 313 305 301 309 310 310 309 310 311 311 311 310 311 311 311 311 311 311 311 311 310 309 303 308 307 309 310 309 310 310 308 308
316 315 314 310 309 309 304 302 305 306 306 308 311 304 311 311 311 308 310 311 310 310 310 310 310 310 310 311 311 311 311 311 311 311 311 310 309 307 303 307 309 310 309 309 310 305 308
315 315 315 314 311 309 309 304 303 306 306 310 311 306 309 305 309 309 310 310 311 311 310 310 310 310 311 311 310 310 310 310 310 311 310 309 309 307 308 308 309 310 310 309 309 309 309
315 315 315 315 315 313 309 309 304 304 307 307 310 310 309 309 309 309 308 311 311 310 310 310 310 310 310 310 310 310 309 309 308 309 309 309 306 308 303 307 307 307 307 308 308 308 309
314 314 313 313 314 314 313 309 310 306 304 305 307 307 308 308 307 306 307 310 310 309 310 310 309 308 308 308 308 308 308 309 308 308 308 308 306 304 306 306 305 306 307 306 306 306 308
313 313 313 312 312 313 314 313 309 308 305 303 304 306 307 304 304 306 309 309 309 309 309 309 309 308 308 308 307 307 307 307 306 306 309 306 306 304 304 304 306 304 306 305 306 307 306
313 313 312 312 312 312 312 313 314 309 308 303 302 304 306 302 305 305 306 307 308 308 308 307 308 308 308 308 306 304 303 306 306 305 304 305 305 304 304 303 305 307 306 305 305 304 304
313 313 312 312 312 312 311 311 312 312 310 307 304 301 303 305 303 305 305 306 303 304 304 308 308 308 307 306 305 307 305 304 305 306 303 305 304 304 304 306 309 305 305 307 305 302 303
312 312 312 312 311 311 311 311 311 311 311 310 307 304 302 304 304 306 304 304 307 306 303 307 307 307 307 305 307 305 303 304 304 305 305 305 306 308 308 309 306 305 305 307 305 305 306
311 311 310 311 311 311 310 311 311 310 311 310 309 309 306 301 304 303 304 304 306 306 303 307 305 307 305 306 305 305 303 304 305 303 304 305 304 305 306 307 306 305 305 305 305 305 307
311 310 310 310 311 311 310 310 311 310 310 310 309 308 307 306 307 306 304 303 304 303 305 305 306 307 308 305 304 304 305 303 304 305 302 305 305 306 305 306 305 306 307 307 307 306 306